Date StartTime U_cm/s V_cm/s W_cm/s Ustd_cm/s Vstd_cm/s Wstd_cm/s Uvar_(cm/s)^2 Vvar_(cm/s)^2 Wvar_(cm/s)^2 KE_(m/s)^2 TurbulentKE_(m/s)^2 HorizWindSpeed_cm/s FrictionSpeec_cm/s DragCoef SpeedOfSound_m/s SonicTemperature_C Pressure_mb 
12/19/2014  00:00:00      -84.013      -11.718       -1.382       31.240       38.755       19.955      975.909     1501.932      398.208        0.504        0.144       84.826       17.304        0.042      333.893        3.508      862.124
12/19/2014  00:01:00      -65.084       20.427       -2.345       30.295       24.487       16.103      917.771      599.610      259.319        0.322        0.089       68.214       11.757        0.030      333.976        3.645      862.066
12/19/2014  00:02:00      -86.798       16.418      -15.727       26.998       32.671       15.158      728.874     1067.426      229.751        0.504        0.101       88.337       12.131        0.019      334.017        3.712      862.086
12/19/2014  00:03:00      -94.129      -37.269      -10.693       25.262       23.359       12.773      638.181      545.633      163.148        0.585        0.067      101.238       12.935        0.016      333.958        3.614      862.176
12/19/2014  00:04:00     -121.361      -29.003       -9.918       20.548       31.984       16.180      422.228     1022.990      261.787        0.869        0.085      124.778       12.634        0.010      333.869        3.466      862.241
12/19/2014  00:05:00     -148.654       41.922      -13.559       30.450       25.521       17.872      927.209      651.323      319.402        1.297        0.095      154.452       10.525        0.005      333.864        3.457      862.285
12/19/2014  00:06:00     -164.010      -16.733      -18.777       26.604       33.711       16.270      707.772     1136.445      264.713        1.482        0.105      164.861        9.766        0.004      333.808        3.364      862.353
12/19/2014  00:07:00     -134.781      -49.671      -12.773       29.600       23.098       16.993      876.138      533.509      288.752        1.125        0.085      143.643       14.522        0.010      333.693        3.173      862.381
12/19/2014  00:08:00      -85.379        3.984      -11.621       28.572       41.294       15.028      816.336     1705.229      225.850        0.509        0.137       85.471       10.526        0.015      333.715        3.210      862.317
12/19/2014  00:09:00      -88.341       98.839      -22.349       47.140       56.862       25.091     2222.149     3233.291      629.562        1.208        0.304      132.564       28.112        0.045      333.848        3.432      862.209
12/19/2014  00:10:00      -98.560       96.224      -19.162       31.157       43.847       30.552      970.751     1922.567      933.450        1.158        0.191      137.743       26.407        0.037      334.059        3.781      862.172
12/19/2014  00:11:00      -94.645       41.742       -5.600       36.903       29.812       23.983     1361.831      888.762      575.162        0.678        0.141      103.441       15.057        0.021      334.109        3.865      862.213
12/19/2014  00:12:00      -40.830       16.000       -2.163       30.160       25.791       14.595      909.605      665.156      213.018        0.186        0.089       43.853       15.265        0.121      334.104        3.856      862.232
12/19/2014  00:13:00      -27.736       79.061      -16.080       29.958       39.674       17.558      897.497     1574.024      308.275        0.503        0.139       83.785       16.006        0.036      334.274        4.139      862.221
12/19/2014  00:14:00       -1.641      117.435      -17.450       22.656       26.648       15.477      513.297      710.110      239.529        0.778        0.073      117.447       12.974        0.012      334.188        3.996      862.216
12/19/2014  00:15:00      -59.560      107.377      -14.234       32.637       45.870       23.790     1065.153     2104.044      565.958        0.951        0.187      122.789       23.895        0.038      334.288        4.161      862.253
12/19/2014  00:16:00     -110.350      -12.073      -13.771       35.386       34.308       21.402     1252.200     1177.040      458.054        0.770        0.144      111.009       15.477        0.019      334.194        4.006      862.328
12/19/2014  00:17:00     -134.125        8.780      -20.493       39.120       45.855       22.603     1530.385     2102.720      510.879        1.131        0.207      134.413       11.886        0.008      333.963        3.622      862.379
12/19/2014  00:18:00     -103.259       -1.078      -19.967       50.929       43.634       28.350     2593.774     1903.885      803.733        0.818        0.265      103.265       24.270        0.055      333.948        3.597      862.380
12/19/2014  00:19:00      -87.350      -33.690       -1.832       42.663       31.168       23.005     1820.148      971.424      529.214        0.604        0.166       93.622       22.551        0.058      333.893        3.506      862.380
12/19/2014  00:20:00      -89.169      -44.752       -9.216       43.693       28.488       20.188     1909.039      811.576      407.575        0.658        0.156       99.769       13.729        0.019      333.869        3.466      862.365
12/19/2014  00:21:00     -109.774      -45.595      -10.322       22.272       26.294       14.408      496.035      691.352      207.601        0.782        0.070      118.867       14.294        0.014      333.804        3.361      862.360
12/19/2014  00:22:00     -114.998      -36.823      -11.681       21.564       25.170       16.202      465.007      633.524      262.497        0.804        0.068      120.750       11.686        0.009      333.816        3.379      862.362
12/19/2014  00:23:00      -82.937      -24.543       -4.012       21.980       24.379       15.555      483.102      594.324      241.952        0.441        0.066       86.492       11.539        0.018      333.768        3.299      862.360
12/19/2014  00:24:00      -87.479        5.640       -7.195       21.960       22.129       16.256      482.251      489.702      264.270        0.449        0.062       87.661       14.050        0.026      333.704        3.192      862.367
12/19/2014  00:25:00     -112.321       -3.703       -9.465       39.292       21.709       21.377     1543.858      471.271      456.965        0.760        0.124      112.382       22.508        0.040      333.754        3.275      862.392
12/19/2014  00:26:00      -96.104        0.067      -14.357       27.107       14.112       15.909      734.787      199.159      253.107        0.531        0.059       96.104       14.340        0.022      333.804        3.358      862.413
12/19/2014  00:27:00      -82.348        5.876       -9.268       28.888       17.225       12.978      834.537      296.701      168.434        0.410        0.065       82.557       12.436        0.023      333.848        3.433      862.395
12/19/2014  00:28:00     -161.245       20.294      -19.426       32.347       16.428       14.008     1046.346      269.882      196.211        1.415        0.076      162.517       16.402        0.010      333.859        3.450      862.402
12/19/2014  00:29:00     -211.507       13.926      -30.237       19.627       21.164       16.967      385.209      447.928      287.862        2.348        0.056      211.965       12.828        0.004      333.854        3.439      862.421
12/19/2014  00:30:00     -155.749       -9.718      -17.571       45.173       33.512       26.309     2040.625     1123.036      692.188        1.426        0.193      156.052       24.198        0.024      333.755        3.277      862.431
12/19/2014  00:31:00     -106.532       61.094      -20.364       38.156       43.464       24.445     1455.914     1889.091      597.562        0.972        0.197      122.807       24.649        0.040      333.853        3.440      862.409
12/19/2014  00:32:00      -95.334        9.913      -14.376       63.540       30.257       24.163     4037.362      915.469      583.848        0.746        0.277       95.848       32.273        0.113      333.994        3.673      862.387
12/19/2014  00:33:00      -41.876      -10.688       -2.993       45.824       43.283       23.569     2099.868     1873.443      555.481        0.320        0.226       43.219       19.850        0.211      333.919        3.550      862.362
12/19/2014  00:34:00      -47.192       38.550      -13.952       30.446       21.582       19.022      926.988      465.796      361.823        0.283        0.088       60.935       20.455        0.113      334.170        3.967      862.320
12/19/2014  00:35:00       -3.052       59.236        1.942       30.900       28.467       18.185      954.827      810.371      330.704        0.281        0.105       59.314       12.573        0.045      334.106        3.862      862.297
12/19/2014  00:36:00       38.590       48.099       -0.654       25.272       26.004       17.508      638.659      676.215      306.541        0.271        0.081       61.666       16.021        0.068      333.920        3.552      862.269
12/19/2014  00:37:00      -25.661       79.078      -13.206       34.715       30.499       17.577     1205.099      930.169      308.940        0.476        0.122       83.138       18.961        0.052      334.074        3.808      862.229
12/19/2014  00:38:00      -84.927       32.776      -11.869       27.951       23.899       20.284      781.276      571.157      411.428        0.510        0.088       91.032       12.449        0.019      334.227        4.061      862.175
12/19/2014  00:39:00      -53.064      119.583      -22.701       38.353       36.117       17.587     1470.930     1304.432      309.285        1.036        0.154      130.828       11.826        0.008      334.223        4.054      862.121
12/19/2014  00:40:00      -27.437      146.355      -16.344       34.210       41.003       20.323     1170.319     1681.217      413.007        1.285        0.163      148.905       21.611        0.021      334.434        4.404      862.126
12/19/2014  00:41:00      -14.439      121.555      -17.685       25.182       27.459       14.794      634.108      753.974      218.862        0.845        0.080      122.410        9.639        0.006      334.449        4.429      862.170
12/19/2014  00:42:00       19.752       43.020      -14.069       18.325       22.546        9.764      335.813      508.320       95.327        0.169        0.047       47.338        3.361        0.005      334.229        4.063      862.188
12/19/2014  00:43:00       48.881       38.958       -0.222       17.898       18.624       14.584      320.340      346.864      212.684        0.239        0.044       62.507       12.481        0.040      334.135        3.908      862.177
12/19/2014  00:44:00       58.290       23.905       -1.766       22.949       13.704       11.089      526.661      187.812      122.956        0.240        0.042       63.001        8.147        0.017      334.089        3.831      862.160
12/19/2014  00:45:00        4.730       -7.215       -4.973       24.722       28.008       12.649      611.160      784.430      160.002        0.083        0.078        8.627       15.999        3.439      334.105        3.857      862.162
12/19/2014  00:46:00      -88.100      -10.336      -14.580       41.322       22.614       20.128     1707.477      511.410      405.123        0.535        0.131       88.704       19.929        0.050      334.056        3.777      862.178
12/19/2014  00:47:00     -140.649      -54.481       -3.273       53.840       36.126       29.176     2898.773     1305.083      851.250        1.391        0.253      150.832       23.225        0.024      334.002        3.688      862.184
12/19/2014  00:48:00      -76.332      -25.398       -0.855       39.073       24.850       15.462     1526.737      617.538      239.062        0.443        0.119       80.447       12.729        0.025      334.123        3.887      862.131
12/19/2014  00:49:00      -18.472      -39.614       -1.794       20.720       12.736        9.491      429.319      162.211       90.081        0.130        0.034       43.709        5.659        0.017      334.251        4.102      862.080
12/19/2014  00:50:00      -95.922      -69.778       -1.144       52.209       42.949       25.159     2725.732     1844.646      632.973        0.964        0.260      118.617       21.119        0.032      334.160        3.950      862.073
12/19/2014  00:51:00      -91.135      -67.422       -5.042       62.293       33.084       20.207     3880.450     1094.528      408.303        0.913        0.269      113.364       20.098        0.031      334.157        3.945      862.028
12/19/2014  00:52:00       30.878        5.919        9.597       41.420       46.572       23.253     1715.580     2168.911      540.710        0.275        0.221       31.440       19.129        0.370      334.270        4.133      861.974
12/19/2014  00:53:00       66.819      101.007       67.986       54.758       37.865       39.141     2998.472     1433.755     1532.007        1.263        0.298      121.108       33.176        0.075      334.376        4.308      861.895
12/19/2014  00:54:00      -37.266       14.090       21.061       44.412       34.861       40.375     1972.411     1215.261     1630.146        0.342        0.241       39.841       39.817        0.999      334.544        4.587      861.885
12/19/2014  00:55:00     -171.385      -41.853      -11.745       51.109       52.702       33.702     2612.145     2777.533     1135.802        1.889        0.326      176.422       21.791        0.015      334.319        4.212      861.893
12/19/2014  00:56:00     -155.740      -30.200       -2.659       59.473       37.749       32.535     3537.010     1425.004     1058.544        1.560        0.301      158.641       29.006        0.033      334.092        3.835      861.863
12/19/2014  00:57:00      -41.398      -37.884       -7.963       49.469       19.858       20.166     2447.144      394.350      406.656        0.323        0.162       56.116       21.677        0.149      334.258        4.113      861.813
12/19/2014  00:58:00       21.375       76.113       90.007       41.465       46.368       41.464     1719.326     2150.018     1719.234        0.997        0.279       79.058       38.638        0.239      334.400        4.347      861.768
12/19/2014  00:59:00       12.102       72.568      117.658       40.338       61.996       33.535     1627.189     3843.486     1124.600        1.292        0.330       73.570       32.859        0.199      334.572        4.632      861.723
12/19/2014  01:00:00       22.224       81.973      116.185       61.829       65.730       64.038     3822.771     4320.466     4100.881        1.648        0.612       84.932       46.657        0.302      334.449        4.429      861.667
12/19/2014  01:01:00       54.106       58.687      114.158       62.969       81.209       63.813     3965.066     6594.934     4072.077        1.701        0.732       79.822       55.343        0.481      334.457        4.442      861.604
12/19/2014  01:02:00       97.359      -23.846       35.234       79.497       56.771       57.718     6319.824     3222.934     3331.317        1.208        0.644      100.237       52.351        0.273      334.493        4.501      861.591
12/19/2014  01:03:00       21.459      -86.611       22.900       53.229       60.703       47.794     2833.359     3684.873     2284.226        0.864        0.440       89.230       25.732        0.083      334.530        4.561      861.653
12/19/2014  01:04:00       80.958      -90.576      -13.965       56.540       68.137       46.542     3196.727     4642.592     2166.131        1.248        0.500      121.484       45.969        0.143      334.525        4.554      861.675
12/19/2014  01:05:00       38.379      -27.337       18.466       51.949       53.038       40.275     2698.695     2813.004     1622.098        0.485        0.357       47.120       36.575        0.603      334.458        4.444      861.644
12/19/2014  01:06:00       27.566       62.532       77.673       44.958       47.420       31.947     2021.183     2248.677     1020.595        0.800        0.265       68.339       33.183        0.236      334.382        4.318      861.610
12/19/2014  01:07:00       51.198       72.471       80.107       64.005       50.605       33.888     4096.692     2560.851     1148.413        1.105        0.390       88.731       35.733        0.162      334.388        4.328      861.620
12/19/2014  01:08:00       75.292       82.407       76.198       71.154       61.590       50.417     5062.860     3793.336     2541.871        1.483        0.570      111.624       27.375        0.060      334.329        4.229      861.662
12/19/2014  01:09:00      139.618       77.693       82.731       88.022       59.596       60.831     7747.926     3551.693     3700.395        2.368        0.750      159.779       45.679        0.082      334.184        3.986      861.697
12/19/2014  01:10:00       68.451      -33.213       35.906       62.992       59.113       39.279     3967.960     3494.406     1542.878        0.804        0.450       76.084       38.031        0.250      334.212        4.036      861.756
12/19/2014  01:11:00       80.796      -54.199       18.487       56.692       68.526       53.294     3213.999     4695.816     2840.201        1.028        0.538       97.291       51.152        0.276      334.210        4.032      861.788
12/19/2014  01:12:00       76.344      -38.282       51.115       84.001      108.192       67.931     7056.190    11705.610     4614.657        1.664        1.169       85.405       88.345        1.070      334.219        4.047      861.798
12/19/2014  01:13:00       49.568      -34.876       29.843       49.962       44.301       43.785     2496.175     1962.552     1917.157        0.547        0.319       60.608       32.784        0.293      334.246        4.092      861.792
12/19/2014  01:14:00       81.215      -15.197       53.194       82.651       82.336       48.317     6831.261     6779.264     2334.560        1.280        0.797       82.624       44.635        0.292      334.226        4.059      861.756
12/19/2014  01:15:00       59.132       80.357      102.639       60.456       68.182       50.310     3654.943     4648.834     2531.113        1.566        0.542       99.769       52.805        0.280      334.208        4.027      861.733
12/19/2014  01:16:00      131.438      129.446      126.520       77.212       85.743       67.791     5961.765     7351.925     4595.632        3.397        0.895      184.478       53.263        0.083      334.118        3.875      861.741
12/19/2014  01:17:00       80.001       41.653       84.371       86.451       78.736       65.894     7473.848     6199.299     4341.991        1.663        0.901       90.195       57.213        0.402      334.135        3.906      861.790
12/19/2014  01:18:00      110.938      105.041      120.158       85.200       99.584       53.313     7258.978     9916.968     2842.266        2.889        1.001      152.778       51.148        0.112      334.112        3.865      861.796
12/19/2014  01:19:00       60.067      105.287      116.514       79.795       56.162       42.471     6367.314     3154.119     1803.792        1.979        0.566      121.217       44.263        0.133      334.113        3.867      861.828
12/19/2014  01:20:00       91.335       44.436       44.489       73.096       45.078       54.512     5342.963     2032.052     2971.609        1.132        0.517      101.571       49.863        0.241      334.110        3.866      861.875
12/19/2014  01:21:00       92.979       30.221        8.841       42.902       33.745       24.411     1840.572     1138.718      595.883        0.661        0.179       97.767       14.106        0.021      334.034        3.741      861.934
12/19/2014  01:22:00       45.452       29.575       14.404       16.736       15.025       14.226      280.084      225.753      202.378        0.193        0.035       54.227        7.688        0.020      334.025        3.726      861.975
12/19/2014  01:23:00       69.465       14.636       17.228       28.356       23.751       21.939      804.076      564.115      481.304        0.359        0.092       70.990       17.546        0.061      334.066        3.793      861.944
12/19/2014  01:24:00       74.379       38.812       31.153       38.607       30.093       38.019     1490.507      905.601     1445.406        0.592        0.192       83.896       25.070        0.089      334.045        3.759      861.943
12/19/2014  01:25:00       85.633       36.780       17.548       36.959       26.029       24.191     1365.947      677.494      585.218        0.581        0.131       93.198       20.658        0.049      333.976        3.646      861.969
12/19/2014  01:26:00      125.128       65.528       12.798       30.651       29.200       24.956      939.511      852.652      622.819        1.126        0.121      141.248       18.913        0.018      333.999        3.684      861.958
12/19/2014  01:27:00       88.367       69.242       37.522       22.695       17.885       27.004      515.063      319.885      729.219        0.779        0.078      112.264       13.517        0.014      333.991        3.671      861.958
12/19/2014  01:28:00      109.876       59.611       22.434       30.204       22.520       23.298      912.303      507.160      542.793        0.905        0.098      125.004        6.266        0.003      333.927        3.563      861.956
12/19/2014  01:29:00      127.362       57.408       19.914       33.646       27.650       28.290     1132.034      764.495      800.331        1.130        0.135      139.703       17.349        0.015      333.877        3.480      861.929
12/19/2014  01:30:00       99.302       60.731       24.609       35.172       25.166       31.768     1237.104      633.350     1009.223        0.852        0.144      116.401       24.188        0.043      333.903        3.522      861.905
12/19/2014  01:31:00       71.160       45.807       19.915       33.313       23.711       21.542     1109.787      562.198      464.076        0.485        0.107       84.629       15.752        0.035      333.808        3.364      861.870
12/19/2014  01:32:00       83.361       29.744        4.645       32.545       25.656       14.011     1059.179      658.251      196.300        0.488        0.096       88.508       10.526        0.014      333.806        3.360      861.841
12/19/2014  01:33:00       69.326       35.117        3.972       28.964       20.396       14.618      838.905      415.983      213.699        0.376        0.073       77.714       12.318        0.025      333.817        3.381      861.822
12/19/2014  01:34:00       26.237        8.427       13.091       15.435       14.204       11.195      238.250      201.751      125.326        0.075        0.028       27.557        9.355        0.115      333.767        3.299      861.822
12/19/2014  01:35:00       46.002       17.471        2.028       11.557        7.621        8.064      133.555       58.081       65.025        0.134        0.013       49.208        6.386        0.017      333.844        3.427      861.857
12/19/2014  01:36:00       23.272       12.125        7.146       16.592       13.355        7.049      275.302      178.358       49.685        0.062        0.025       26.241        7.226        0.076      333.880        3.486      861.893
12/19/2014  01:37:00      -46.957      -27.043       -5.607       35.569       13.661       14.260     1265.139      186.616      203.357        0.231        0.083       54.187       13.765        0.065      333.965        3.627      861.941
12/19/2014  01:38:00      -71.631      -23.986       -4.887       18.872       16.640       13.220      356.162      276.890      174.779        0.327        0.040       75.540       12.683        0.028      333.909        3.534      861.985
12/19/2014  01:39:00      -73.311       -9.204       -4.477       30.506       17.471       16.087      930.597      305.220      258.782        0.349        0.075       73.886       14.432        0.038      333.821        3.387      862.032
12/19/2014  01:40:00      -70.074      -22.885        0.783       25.637       20.481       15.646      657.231      419.478      244.809        0.338        0.066       73.716       16.156        0.048      333.853        3.440      862.092
12/19/2014  01:41:00      -43.832      -33.008        6.484       34.638       23.871       17.213     1199.757      569.804      296.304        0.256        0.103       54.870       18.294        0.111      333.986        3.662      862.142
12/19/2014  01:42:00     -115.967        3.810       -4.815       37.771       31.886       16.775     1426.618     1016.702      281.407        0.810        0.136      116.030       15.179        0.017      334.089        3.832      862.151
12/19/2014  01:43:00     -146.229      -18.043      -16.197       36.050       31.254       20.796     1299.570      976.796      432.473        1.234        0.135      147.338       17.219        0.014      334.064        3.789      862.142
12/19/2014  01:44:00     -171.702      -15.853      -11.581       59.860       55.653       27.492     3583.249     3097.300      755.790        1.865        0.372      172.432       28.344        0.027      333.947        3.595      862.169
12/19/2014  01:45:00     -115.029      -48.084       -5.304       70.201       43.979       29.037     4928.134     1934.162      843.145        1.164        0.385      124.675       26.019        0.044      333.897        3.513      862.220
12/19/2014  01:46:00     -130.345      -65.348       -0.968       46.478       44.286       22.920     2160.245     1961.257      525.329        1.295        0.232      145.809       20.880        0.021      333.851        3.436      862.249
12/19/2014  01:47:00     -149.191      -38.204       -2.247       44.013       27.805       21.102     1937.111      773.123      445.279        1.344        0.158      154.005       23.351        0.023      333.791        3.337      862.239
12/19/2014  01:48:00     -137.750      -81.768       -4.841       52.338       43.211       28.155     2739.270     1867.204      792.717        1.554        0.270      160.191       26.973        0.028      333.824        3.391      862.252
12/19/2014  01:49:00     -106.509      -45.906       -7.893       43.125       26.059       18.265     1859.741      679.071      333.613        0.819        0.144      115.981       18.445        0.025      333.884        3.492      862.273
12/19/2014  01:50:00      -96.298      -14.318       -8.363       25.187       22.696       15.696      634.406      515.110      246.378        0.547        0.070       97.357        7.340        0.006      333.990        3.669      862.239
12/19/2014  01:51:00     -156.317       13.469      -17.253       22.071       21.714       16.877      487.130      471.477      284.830        1.308        0.062      156.896        8.466        0.003      334.049        3.766      862.221
12/19/2014  01:52:00     -117.744        4.588       -9.200       38.455       22.466       19.594     1478.812      504.735      383.925        0.817        0.118      117.833       17.657        0.022      334.004        3.690      862.221
12/19/2014  01:53:00     -103.479      -40.770       -7.810       31.951       39.472       20.343     1020.889     1558.045      413.839        0.771        0.150      111.221       18.595        0.028      333.795        3.345      862.234
12/19/2014  01:54:00      -38.343      -11.094        5.719       28.086       15.454       16.840      788.831      238.829      283.587        0.147        0.066       39.916       19.593        0.241      333.745        3.262      862.235
12/19/2014  01:55:00      -47.734       -9.155       -2.047       34.712       24.664       15.060     1204.916      608.327      226.798        0.220        0.102       48.604       14.098        0.084      333.884        3.493      862.237
12/19/2014  01:56:00      -47.901      -31.696        4.034       49.791       31.488       11.169     2479.158      991.489      124.741        0.345        0.180       57.439       19.672        0.117      333.795        3.344      862.240
12/19/2014  01:57:00       96.089       78.220       25.500       46.250       41.671       38.051     2139.060     1736.457     1447.864        1.066        0.266      123.901       31.052        0.063      333.873        3.474      862.184
12/19/2014  01:58:00       52.161      126.770      109.146       54.988       56.130       39.946     3023.718     3150.625     1595.684        1.924        0.389      137.081       26.878        0.038      333.668        3.132      862.129
12/19/2014  01:59:00       54.963       65.507       46.164       55.496       44.002       39.217     3079.793     1936.186     1537.986        0.800        0.328       85.511       28.536        0.111      333.573        2.976      862.136
12/19/2014  02:00:00       55.873       28.782        9.133       45.976       28.723       22.884     2113.814      824.994      523.676        0.375        0.173       62.851       25.587        0.166      333.458        2.784      862.162
12/19/2014  02:01:00        8.540       10.585       15.843       13.372       17.798       12.367      178.804      316.772      152.943        0.054        0.032       13.601       11.881        0.763      333.469        2.804      862.182
12/19/2014  02:02:00       36.339       28.941      -10.064       16.178       17.828        9.148      261.729      317.832       83.685        0.146        0.033       46.456        8.078        0.030      333.713        3.208      862.184
12/19/2014  02:03:00       43.205       47.577       -8.849       16.163       13.270       21.760      261.230      176.099      473.500        0.256        0.046       64.267        8.844        0.019      333.651        3.105      862.174
12/19/2014  02:04:00       24.311       31.322       -0.572       23.839       14.980       16.328      568.301      224.391      266.590        0.132        0.053       39.649       12.025        0.092      333.523        2.892      862.187
12/19/2014  02:05:00       -7.919       62.473      -14.084       16.831       22.872        9.051      283.271      523.113       81.916        0.253        0.044       62.973       10.855        0.030      333.754        3.276      862.243
12/19/2014  02:06:00      -70.990        7.270       -8.956       32.037       32.608       22.084     1026.369     1063.252      487.687        0.387        0.129       71.361       16.354        0.053      333.622        3.058      862.301
12/19/2014  02:07:00      -86.719       20.039      -17.147       44.780       45.629       30.803     2005.283     2081.975      948.832        0.662        0.252       89.004       26.305        0.087      333.691        3.171      862.356
12/19/2014  02:08:00      -54.529       59.901      -13.507       51.897       32.353       28.516     2693.330     1046.687      813.161        0.565        0.228       81.003       31.545        0.152      333.883        3.490      862.395
12/19/2014  02:09:00        4.744       45.410        6.186       21.164       46.487       17.437      447.894     2161.027      304.043        0.252        0.146       45.658       23.893        0.274      333.943        3.590      862.366
12/19/2014  02:10:00        4.528      116.410      -22.268       10.821       14.923        6.394      117.102      222.688       40.888        0.722        0.019      116.498        4.938        0.002      333.986        3.661      862.336
12/19/2014  02:11:00      -19.111       81.522      -19.428       16.809       39.404       13.223      282.534     1552.640      174.846        0.470        0.101       83.732       16.561        0.039      334.074        3.807      862.316
12/19/2014  02:12:00      -50.307        9.542       -6.903       25.136       20.408       12.900      631.796      416.503      166.413        0.194        0.061       51.204        9.619        0.035      333.940        3.584      862.314
12/19/2014  02:13:00      -25.683      -40.519       -1.512       28.829       21.280       12.297      831.094      452.859      151.224        0.187        0.072       47.972       14.273        0.089      333.787        3.331      862.362
12/19/2014  02:14:00        1.854      -57.156       -5.124       22.207       20.181       13.106      493.169      407.274      171.762        0.218        0.054       57.186        9.791        0.029      333.944        3.593      862.442
12/19/2014  02:15:00      -70.753      -46.175      -11.429       50.445       17.415       13.157     2544.710      303.267      173.116        0.514        0.151       84.488        7.058        0.007      333.991        3.669      862.523
12/19/2014  02:16:00      -86.097      -22.989        3.068       36.783       44.966       17.474     1352.975     2021.960      305.345        0.581        0.184       89.114       16.466        0.034      333.791        3.338      862.548
12/19/2014  02:17:00       21.019       38.108       -7.735       55.714       22.571       13.082     3104.033      509.465      171.146        0.287        0.189       43.521        7.606        0.031      333.826        3.397      862.523
12/19/2014  02:18:00       84.852       44.536       25.842       41.228       37.389       40.191     1699.777     1397.954     1615.345        0.728        0.236       95.829       33.896        0.125      333.860        3.452      862.510
12/19/2014  02:19:00      128.743       70.657       13.326       42.725       27.115       21.458     1825.454      735.250      460.438        1.238        0.151      146.858       19.540        0.018      334.180        3.983      862.479
12/19/2014  02:20:00        3.241        0.690       -4.398       58.475       20.857       18.553     3419.336      434.994      344.202        0.211        0.210        3.313       23.455       50.108      334.222        4.051      862.481
12/19/2014  02:21:00      -32.073       -7.068        0.321       24.811       25.295       14.574      615.576      639.822      212.404        0.127        0.073       32.842       12.915        0.155      333.894        3.510      862.466
12/19/2014  02:22:00      -13.846      -58.415        5.120       29.823       26.068       24.345      889.382      679.540      592.702        0.290        0.108       60.034       12.963        0.047      333.987        3.662      862.438
12/19/2014  02:23:00      -48.851      -44.804       -5.654       52.140       39.489       24.384     2718.624     1559.408      594.603        0.465        0.244       66.286       22.307        0.113      334.293        4.169      862.496
12/19/2014  02:24:00       67.621       26.209       16.562       49.838       22.583       27.184     2483.821      510.010      738.975        0.463        0.187       72.523       26.737        0.136      334.347        4.261      862.495
12/19/2014  02:25:00       14.443      -92.287       -8.395       48.118       63.951       35.404     2315.324     4089.694     1253.433        0.823        0.383       93.410       36.379        0.152      334.416        4.374      862.511
12/19/2014  02:26:00       -7.445       -2.195       15.866       47.342       33.635       32.046     2241.277     1131.309     1026.943        0.235        0.220        7.762       25.479       10.776      334.373        4.303      862.524
12/19/2014  02:27:00       34.607      -42.618       31.855       59.351       84.239       65.469     3522.503     7096.276     4286.221        0.946        0.745       54.899       53.595        0.953      334.126        3.892      862.473
12/19/2014  02:28:00       18.904       53.431      107.092       57.989       88.646       70.360     3362.679     7858.194     4950.481        1.542        0.809       56.676       65.478        1.335      334.008        3.698      862.459
12/19/2014  02:29:00      -60.003       47.058       44.673       53.733       36.518       63.283     2887.287     1333.534     4004.680        0.802        0.411       76.255       50.541        0.439      334.046        3.761      862.477
12/19/2014  02:30:00      -69.512      -67.639        6.570       88.368       54.823       42.228     7808.949     3005.537     1783.228        1.102        0.630       96.989       52.941        0.298      334.313        4.203      862.542
12/19/2014  02:31:00       15.452        9.163       19.578       22.805       17.132       20.314      520.051      293.510      412.673        0.097        0.061       17.965       11.013        0.376      334.278        4.147      862.592
12/19/2014  02:32:00       -7.458       -3.380       -3.156       14.862       12.301        9.905      220.892      151.302       98.116        0.027        0.024        8.188        6.205        0.574      334.366        4.294      862.635
12/19/2014  02:33:00      -10.531       41.830       72.186       25.696       57.978       57.290      660.288     3361.440     3282.132        0.719        0.365       43.135       52.793        1.498      334.163        3.955      862.638
12/19/2014  02:34:00      102.514      105.911       68.162       51.271       73.596       50.201     2628.688     5416.307     2520.125        1.847        0.528      147.398       56.812        0.149      334.155        3.938      862.586
12/19/2014  02:35:00       14.726       22.527       48.912       31.928       31.540       19.132     1019.386      994.782      366.045        0.275        0.119       26.913       21.003        0.609      334.238        4.080      862.603
12/19/2014  02:36:00       39.128       24.666       18.273       30.274       23.831       20.232      916.533      567.902      409.354        0.218        0.095       46.254       19.105        0.171      334.459        4.447      862.624
12/19/2014  02:37:00       60.448       47.388       19.372       34.933       23.472       23.273     1220.291      550.929      541.642        0.429        0.116       76.809       14.297        0.035      334.519        4.545      862.607
12/19/2014  02:38:00       72.168       35.771       15.477       19.621       20.383       21.903      384.995      415.468      479.739        0.400        0.064       80.547        6.572        0.007      334.537        4.575      862.587
12/19/2014  02:39:00        4.030       43.225       -3.843       48.669       24.063       28.829     2368.708      579.024      831.101        0.284        0.189       43.412       15.864        0.134      335.186        5.654      862.592
12/19/2014  02:40:00       -5.171      -19.042        2.906       15.653       28.064       17.393      245.012      787.610      302.523        0.087        0.067       19.732       17.577        0.794      334.734        4.902      862.611
12/19/2014  02:41:00       21.638       59.798       68.366       29.979       27.181       24.526      898.731      738.796      601.540        0.548        0.112       63.592       21.702        0.116      334.364        4.289      862.609
12/19/2014  02:42:00      -10.281       18.294       46.365       19.060       40.817       32.644      363.293     1666.009     1065.650        0.284        0.155       20.985       31.749        2.289      334.342        4.252      862.595
12/19/2014  02:43:00       41.191       34.331        7.040       29.489       22.749       15.240      869.579      517.528      232.260        0.227        0.081       53.622       10.394        0.038      334.678        4.810      862.585
12/19/2014  02:44:00      -73.572      -13.607       -6.048       50.893       36.102       20.892     2590.131     1303.377      436.467        0.498        0.216       74.820       20.466        0.075      334.435        4.405      862.605
12/19/2014  02:45:00      -25.701      -13.896        2.368       60.465       34.464       23.803     3656.041     1187.755      566.579        0.313        0.271       29.217       30.127        1.063      334.147        3.927      862.574
12/19/2014  02:46:00       12.188        0.899       40.077       28.143       42.354       24.837      792.014     1793.834      616.853        0.248        0.160       12.222       22.782        3.475      334.228        4.062      862.523
12/19/2014  02:47:00        1.892        7.031       20.690       20.714       16.235       14.664      429.055      263.588      215.047        0.069        0.045        7.281       12.041        2.734      334.171        3.967      862.544
12/19/2014  02:48:00       15.845      -25.868       13.761       20.162       36.379       23.250      406.522     1323.443      540.576        0.169        0.114       30.335       18.516        0.373      334.320        4.217      862.580
12/19/2014  02:49:00       26.002       43.916       29.270       23.679       25.917       18.528      560.687      671.709      343.278        0.252        0.079       51.037       10.418        0.042      334.164        3.955      862.578
12/19/2014  02:50:00       39.039       61.643       68.933       42.914       34.450       30.125     1841.647     1186.811      907.490        0.701        0.197       72.965       24.823        0.116      334.078        3.813      862.568
12/19/2014  02:51:00       18.626      -22.715       54.258       48.614       95.754       65.509     2363.325     9168.813     4291.383        0.981        0.791       29.375       57.824        3.875      334.185        3.990      862.505
12/19/2014  02:52:00       49.908      -78.732       -4.594       53.350       88.459       44.109     2846.233     7825.072     1945.644        1.066        0.631       93.218       51.760        0.308      334.409        4.362      862.541
12/19/2014  02:53:00       43.656      -30.816       54.077       68.167       73.208       66.607     4646.761     5359.341     4436.497        1.011        0.722       53.437       35.837        0.450      334.274        4.138      862.544
12/19/2014  02:54:00       -4.012       71.485      145.573       40.897       84.911       51.130     1672.540     7209.920     2614.325        1.890        0.575       71.598       52.844        0.545      334.023        3.722      862.506
12/19/2014  02:55:00      125.591      -70.456       16.346       46.859      103.120       57.183     2195.800    10633.671     3269.933        1.855        0.805      144.004       66.308        0.212      334.034        3.739      862.483
12/19/2014  02:56:00       60.066       72.163       76.673       67.051       52.186       46.743     4495.880     2723.406     2184.910        1.205        0.470       93.891       46.482        0.245      334.197        4.010      862.405
12/19/2014  02:57:00      112.752     -144.835      -32.571       62.925       64.250       25.817     3959.533     4128.067      666.492        2.175        0.438      183.549       17.891        0.010      334.080        3.813      862.357
12/19/2014  02:58:00       80.322      -64.629       16.112       64.434       67.685       46.695     4151.690     4581.206     2180.434        1.090        0.546      103.095       43.030        0.174      334.092        3.835      862.337
12/19/2014  02:59:00      111.866     -176.382      -21.884       97.232      110.557       59.734     9454.067    12222.773     3568.141        3.467        1.262      208.865       67.119        0.103      334.145        3.922      862.362
12/19/2014  03:00:00       62.575      -54.804       27.089       67.970       79.381       45.068     4619.969     6301.357     2031.155        1.030        0.648       83.181       50.168        0.364      334.226        4.058      862.410
12/19/2014  03:01:00      -20.374      -46.162       -2.253       42.094       33.735       28.269     1771.869     1138.069      799.118        0.313        0.185       50.458        5.254        0.011      334.218        4.048      862.459
12/19/2014  03:02:00       24.416      -52.249       14.915       38.868       75.927       42.629     1510.718     5764.895     1817.210        0.632        0.455       57.673       46.495        0.650      334.108        3.864      862.453
12/19/2014  03:03:00       33.176       40.180       60.826       39.346       64.831       45.107     1548.122     4203.098     2034.618        0.710        0.389       52.107       50.140        0.926      333.831        3.405      862.351
12/19/2014  03:04:00      140.419      104.225       35.896       57.076       53.291       48.354     3257.711     2839.977     2338.084        2.015        0.422      174.872       37.071        0.045      333.744        3.257      862.229
12/19/2014  03:05:00      192.433      107.910       47.264       76.002       49.861       55.038     5776.273     2486.078     3029.127        3.110        0.565      220.625       39.900        0.033      333.629        3.066      862.173
12/19/2014  03:06:00       76.247       47.889       45.530       82.860       50.106       43.747     6865.816     2510.645     1913.799        1.073        0.565       90.039       39.705        0.194      333.549        2.936      862.225
12/19/2014  03:07:00       11.629       68.906       73.680       28.436       33.454       24.547      808.584     1119.194      602.556        0.642        0.127       69.881       22.741        0.106      333.497        2.850      862.251
12/19/2014  03:08:00       36.835       41.461       29.127       39.493       34.628       35.801     1559.688     1199.087     1281.745        0.398        0.202       55.460       20.574        0.138      333.488        2.836      862.201
12/19/2014  03:09:00       92.521      105.701        4.975       56.844       42.303       35.811     3231.245     1789.515     1282.438        1.303        0.315      140.474       34.982        0.062      333.330        2.574      862.127
12/19/2014  03:10:00       -0.311      136.417      -24.481       39.143       63.230       24.113     1532.196     3997.973      581.446        1.266        0.306      136.417       30.600        0.050      333.331        2.576      862.084
12/19/2014  03:11:00      -17.735      174.780      -29.913       31.077       33.252       20.749      965.789     1105.669      430.503        1.713        0.125      175.677       20.706        0.014      333.421        2.724      862.061
12/19/2014  03:12:00      -69.059       89.933       -8.684       43.662       45.231       26.866     1906.408     2045.847      721.761        0.880        0.234      113.389       20.919        0.034      333.672        3.140      862.063
12/19/2014  03:13:00      -91.782      135.446      -25.823       43.248       35.422       30.593     1870.423     1254.699      935.913        1.575        0.203      163.613       20.144        0.015      333.470        2.806      862.104
12/19/2014  03:14:00      -26.933      126.317       -9.088       38.515       32.192       22.973     1483.395     1036.306      527.760        0.991        0.152      129.157       17.694        0.019      333.580        2.987      862.169
12/19/2014  03:15:00       43.479       24.130        1.027       32.227       46.493       19.613     1038.595     2161.640      384.682        0.303        0.179       49.726       15.339        0.095      333.585        2.995      862.267
12/19/2014  03:16:00       34.803      -86.270      -17.102       35.340       44.380       19.028     1248.913     1969.562      362.059        0.626        0.179       93.026       14.764        0.025      333.639        3.087      862.367
12/19/2014  03:17:00       24.431      -51.352       -4.397       56.354       59.566       34.305     3175.747     3548.113     1176.831        0.558        0.395       56.867       42.584        0.561      333.654        3.111      862.413
12/19/2014  03:18:00      -45.062      -47.843        3.437       60.303       37.391       26.066     3636.498     1398.111      679.459        0.502        0.286       65.723       22.864        0.121      333.663        3.125      862.439
12/19/2014  03:19:00      -39.810      -32.739        0.759       44.880       47.184       24.720     2014.238     2226.284      611.065        0.375        0.243       51.543       28.814        0.313      333.595        3.012      862.437
12/19/2014  03:20:00       23.984       20.456       10.797       21.573       18.128       25.093      465.415      328.622      629.650        0.127        0.071       31.523       14.187        0.203      333.661        3.123      862.419
12/19/2014  03:21:00       -5.688       45.747       81.604       27.281       35.756       20.687      744.271     1278.462      427.954        0.562        0.123       46.100       20.869        0.205      333.625        3.063      862.356
12/19/2014  03:22:00       61.352       63.875       39.677       45.930       28.473       36.940     2109.545      810.721     1364.559        0.685        0.214       88.567       34.572        0.152      333.568        2.968      862.232
12/19/2014  03:23:00       48.139       21.609       33.600       43.816       43.434       22.104     1919.862     1886.530      488.579        0.410        0.215       52.767       19.750        0.140      333.619        3.052      862.106
12/19/2014  03:24:00        2.122      -15.893       45.468       23.377       48.598       27.447      546.472     2361.742      753.325        0.299        0.183       16.034       28.480        3.155      333.680        3.154      862.062
12/19/2014  03:25:00       75.910     -113.686      -11.817       31.754       35.194       15.607     1008.302     1238.612      243.583        1.066        0.125      136.700       15.175        0.012      333.746        3.263      862.024
12/19/2014  03:26:00       66.599     -120.233       -6.510       38.188       41.383       22.722     1458.285     1712.553      516.302        1.131        0.184      137.446       27.435        0.040      333.782        3.324      862.035
12/19/2014  03:27:00        5.884      -41.016       -6.309       46.783       20.640       16.923     2188.644      425.992      286.385        0.233        0.145       41.436       19.349        0.218      333.881        3.486      862.035
12/19/2014  03:28:00       -5.471       12.735        8.809       16.606       19.643       15.346      275.756      385.848      235.504        0.058        0.045       13.860       13.982        1.018      333.781        3.321      861.970
12/19/2014  03:29:00      -23.963      -19.039      -10.563       38.875       18.738       10.622     1511.261      351.128      112.824        0.151        0.099       30.606       15.993        0.273      333.780        3.320      861.914
12/19/2014  03:30:00      -41.140      -15.194       -3.246       28.441       22.088       19.300      808.918      487.883      372.498        0.180        0.083       43.857       10.513        0.057      333.623        3.060      861.862
12/19/2014  03:31:00      -99.501      -28.931       -6.181       35.707       29.595       20.460     1274.964      875.871      418.616        0.667        0.128      103.622       17.545        0.029      333.705        3.196      861.809
12/19/2014  03:32:00     -139.092        4.874      -14.593       45.044       27.421       26.135     2028.926      751.888      683.034        1.152        0.173      139.177       27.888        0.040      333.632        3.074      861.793
12/19/2014  03:33:00      -51.654      -12.569        9.972       51.547       32.736       27.715     2657.122     1071.648      768.119        0.371        0.225       53.161       27.368        0.265      333.573        2.976      861.790
12/19/2014  03:34:00      -51.059       35.955       -8.601       30.315       27.983       16.503      918.996      783.063      272.337        0.297        0.099       62.448       15.162        0.059      333.697        3.181      861.772
12/19/2014  03:35:00      -31.089       44.699      -10.650       22.426       19.793       10.340      502.934      391.753      106.918        0.204        0.050       54.447        6.800        0.016      333.914        3.541      861.723
12/19/2014  03:36:00      -51.270       -5.990       -5.438       41.653       22.480       13.080     1735.004      505.365      171.077        0.255        0.121       51.619       16.044        0.097      333.782        3.321      861.701
12/19/2014  03:37:00     -115.320       -8.600       -2.584       48.778       37.101       24.773     2379.301     1376.475      613.677        0.887        0.218      115.640       23.733        0.042      333.375        2.649      861.749
12/19/2014  03:38:00     -154.103       -8.184      -12.150       65.888       30.871       32.440     4341.235      953.010     1052.340        1.515        0.317      154.320       37.323        0.058      333.472        2.808      861.811
12/19/2014  03:39:00     -215.688       44.565      -23.593       51.538       41.665       24.730     2656.216     1735.974      611.555        2.703        0.250      220.244       16.285        0.005      333.418        2.717      861.849
12/19/2014  03:40:00     -204.892       38.296      -25.754       33.078       37.972       19.791     1094.165     1441.835      391.686        2.352        0.146      208.440       11.856        0.003      333.462        2.789      861.885
12/19/2014  03:41:00     -170.206      -14.932      -27.015       47.021       37.256       23.136     2211.021     1388.000      535.277        1.703        0.207      170.860       23.992        0.020      333.485        2.828      861.893
12/19/2014  03:42:00     -106.981      -35.570       -3.961       42.634       26.065       22.153     1817.690      679.384      490.735        0.786        0.149      112.739       20.676        0.034      333.474        2.812      861.851
12/19/2014  03:43:00       -2.901        3.315       11.145       26.048       29.080       11.332      678.484      845.671      128.418        0.090        0.083        4.405        7.422        2.839      333.503        2.860      861.735
12/19/2014  03:44:00       58.522       40.877       12.410       28.704       21.408       24.729      823.930      458.304      611.504        0.357        0.095       71.384       16.923        0.056      333.632        3.075      861.625
12/19/2014  03:45:00       89.410       46.111        0.572       25.096       14.577       18.655      629.818      212.494      348.010        0.566        0.060      100.600       10.773        0.011      333.595        3.012      861.573
12/19/2014  03:46:00      132.295       61.076       19.550       27.173       19.762       29.153      738.364      390.537      849.895        1.180        0.099      145.713       14.637        0.010      333.637        3.082      861.531
12/19/2014  03:47:00      143.127       64.528        5.594       40.655       33.852       33.915     1652.863     1145.985     1150.220        1.431        0.197      157.001       26.878        0.029      333.597        3.016      861.480
12/19/2014  03:48:00       98.146       51.108       -0.627       40.644       30.427       26.993     1651.927      925.826      728.596        0.778        0.165      110.656       19.086        0.030      333.501        2.857      861.465
12/19/2014  03:49:00       61.708       35.695        8.867       33.612       28.535       23.553     1129.794      814.247      554.727        0.383        0.125       71.288       16.330        0.052      333.425        2.729      861.483
12/19/2014  03:50:00       21.701       21.112       43.992       29.767       31.813       20.368      886.073     1012.038      414.844        0.258        0.116       30.276        4.669        0.024      333.459        2.787      861.558
12/19/2014  03:51:00       20.339      -21.025       14.851       27.238       44.088       32.636      741.904     1943.794     1065.087        0.241        0.188       29.253       32.055        1.201      333.513        2.878      861.641
12/19/2014  03:52:00     -114.611      -12.085       -9.782       40.511       33.523       22.343     1641.168     1123.760      499.214        0.832        0.163      115.246       21.212        0.034      333.830        3.402      861.672
12/19/2014  03:53:00     -187.955      -31.449      -14.191       63.795       63.254       32.688     4069.833     4001.119     1068.473        2.283        0.457      190.568       34.551        0.033      333.655        3.110      861.721
12/19/2014  03:54:00     -201.992      -32.633      -17.417       65.510       58.727       40.718     4291.617     3448.919     1657.932        2.578        0.470      204.611       36.525        0.032      333.512        2.872      861.781
12/19/2014  03:55:00     -135.710      -52.394        4.558       51.835       40.000       31.798     2686.905     1600.002     1011.098        1.324        0.265      145.473       31.642        0.047      333.603        3.026      861.855
12/19/2014  03:56:00     -157.001       10.565      -11.856       52.822       41.732       22.047     2790.155     1741.558      486.066        1.496        0.251      157.356       20.306        0.017      333.758        3.282      861.925
12/19/2014  03:57:00      -83.663       33.958       -3.393       38.404       24.190       23.802     1474.847      585.132      566.517        0.539        0.131       90.293       21.871        0.059      334.004        3.690      861.928
12/19/2014  03:58:00      -31.828       89.745      -14.736       29.135       27.650       14.840      848.871      764.528      220.221        0.556        0.092       95.222       10.820        0.013      333.914        3.542      861.819
12/19/2014  03:59:00       -2.726      180.599      -33.071       22.628       32.832       15.413      512.005     1077.954      237.547        1.777        0.091      180.620       12.272        0.005      334.096        3.842      861.725
12/19/2014  04:00:00      -57.008       61.811      -12.641       25.443       84.303       20.486      647.352     7106.938      419.691        0.770        0.409       84.086       32.161        0.146      334.140        3.916      861.746
12/19/2014  04:01:00      -68.415      -43.301      -12.805       21.767       23.880       15.631      473.816      570.232      244.336        0.400        0.064       80.967       12.439        0.024      333.816        3.380      861.801
12/19/2014  04:02:00      -29.953      -23.649        1.533       34.757       25.066        9.950     1208.054      628.309       98.995        0.170        0.097       38.164       10.777        0.080      333.800        3.353      861.787
12/19/2014  04:03:00      -79.598      -26.264       -4.475       21.298       24.851        9.165      453.594      617.584       84.004        0.410        0.058       83.819        3.621        0.002      333.953        3.608      861.720
12/19/2014  04:04:00      -72.423      -15.298       -9.629        7.244        8.157        7.554       52.472       66.534       57.069        0.287        0.009       74.021        3.557        0.002      334.104        3.858      861.652
12/19/2014  04:05:00      -92.649      -27.378      -15.252       21.281       11.618        9.543      452.875      134.984       91.075        0.512        0.034       96.609        7.440        0.006      333.972        3.639      861.656
12/19/2014  04:06:00     -140.880      -11.572      -16.010       30.781       15.416       12.738      947.460      237.647      162.260        1.079        0.067      141.354       13.300        0.009      333.935        3.577      861.679
12/19/2014  04:07:00      -79.824      -31.125       -3.506       37.971       17.921       19.596     1441.831      321.156      383.988        0.475        0.107       85.678       19.637        0.053      333.888        3.498      861.679
12/19/2014  04:08:00      -72.759      -29.895       -7.026       22.259       13.890        9.337      495.467      192.944       87.187        0.351        0.039       78.661       10.195        0.017      333.932        3.572      861.637
12/19/2014  04:09:00     -117.025      -37.558      -12.852       22.396       17.952       11.957      501.566      322.275      142.970        0.812        0.048      122.905        6.596        0.003      333.973        3.640      861.561
12/19/2014  04:10:00     -143.304      -28.044      -17.825       32.295       17.508       19.566     1042.994      306.520      382.816        1.169        0.087      146.022       18.630        0.016      334.027        3.730      861.539
12/19/2014  04:11:00     -159.385        0.095      -19.965       31.716       29.418       24.856     1005.908      865.406      617.800        1.415        0.124      159.385       20.721        0.017      334.131        3.901      861.563
12/19/2014  04:12:00     -160.229       42.970      -17.268       46.131       34.778       25.619     2128.053     1209.510      656.321        1.591        0.200      165.891       19.256        0.013      334.373        4.303      861.568
12/19/2014  04:13:00     -185.910       73.870      -23.282       62.383       33.859       28.083     3891.577     1146.401      788.629        2.319        0.291      200.048       13.539        0.005      334.259        4.111      861.528
12/19/2014  04:14:00     -222.874       51.193      -16.922       55.364       44.151       27.976     3065.204     1949.328      782.672        2.919        0.290      228.678       19.189        0.007      334.156        3.938      861.476
12/19/2014  04:15:00     -194.197        2.261      -27.796       43.295       48.578       28.464     1874.448     2359.863      810.172        2.177        0.252      194.210       26.360        0.018      333.919        3.548      861.449
12/19/2014  04:16:00     -163.395      -58.077       -5.341       40.725       49.861       36.516     1658.487     2486.146     1333.388        1.779        0.274      173.409       16.224        0.009      333.891        3.503      861.439
12/19/2014  04:17:00     -190.005      -71.324      -11.792       42.805       34.456       24.239     1832.229     1187.188      587.511        2.247        0.180      202.951       20.834        0.011      333.735        3.243      861.428
12/19/2014  04:18:00     -172.026      -48.667      -11.529       37.045       36.967       27.878     1372.321     1366.561      777.203        1.780        0.176      178.777       22.332        0.016      333.871        3.470      861.430
12/19/2014  04:19:00     -166.446      -47.291      -13.640       40.695       42.626       21.552     1656.096     1817.014      464.477        1.703        0.197      173.034       14.627        0.007      334.062        3.787      861.439
12/19/2014  04:20:00     -184.743       16.933      -17.081       30.117       35.168       24.563      907.049     1236.768      603.325        1.873        0.137      185.517       21.357        0.013      334.051        3.767      861.458
12/19/2014  04:21:00     -193.213       19.944      -24.671       54.475       37.051       27.539     2967.536     1372.749      758.405        2.172        0.255      194.239       24.269        0.016      333.954        3.606      861.454
12/19/2014  04:22:00     -170.065       30.081      -23.315       46.161       42.576       30.499     2130.884     1812.701      930.189        1.762        0.244      172.704       26.611        0.024      333.994        3.672      861.421
12/19/2014  04:23:00     -148.682      -11.179      -18.699       46.810       48.819       34.204     2191.180     2383.275     1169.934        1.416        0.287      149.102       30.543        0.042      333.966        3.627      861.383
12/19/2014  04:24:00     -130.979       21.800      -19.809       52.090       35.616       20.912     2713.318     1268.474      437.321        1.122        0.221      132.781       26.779        0.041      334.153        3.938      861.344
12/19/2014  04:25:00     -110.846       61.582      -15.801       33.379       57.352       27.250     1114.177     3289.202      742.574        1.074        0.257      126.804       25.152        0.039      334.494        4.504      861.337
12/19/2014  04:26:00     -104.253       -6.944       -9.137       21.801       29.852       18.620      475.284      891.129      346.693        0.636        0.086      104.484       13.743        0.017      334.294        4.172      861.352
12/19/2014  04:27:00      -80.945       -3.594        2.957       38.471       40.924       23.535     1479.999     1674.747      553.899        0.514        0.185       81.025       18.474        0.052      334.326        4.225      861.355
12/19/2014  04:28:00      -64.160      -29.313        5.875       29.191       30.394       25.224      852.103      923.788      636.260        0.371        0.121       70.539       20.485        0.084      334.231        4.067      861.364
12/19/2014  04:29:00      -35.669       18.621       -7.719       25.679       28.698       14.439      659.394      823.598      208.486        0.168        0.085       40.237        9.622        0.057      334.469        4.462      861.360
12/19/2014  04:30:00      -30.234       10.875       -1.878       24.431       28.000       14.902      596.866      783.994      222.078        0.132        0.080       32.130       16.440        0.262      334.714        4.869      861.349
12/19/2014  04:31:00      -79.103       64.216      -19.891       32.825       35.850       21.711     1077.455     1285.253      471.385        0.680        0.142      101.887       19.716        0.037      334.771        4.962      861.350
12/19/2014  04:32:00     -108.748       22.173      -11.813       36.193       35.633       25.694     1309.926     1269.686      660.160        0.785        0.162      110.985       21.876        0.039      334.799        5.010      861.347
12/19/2014  04:33:00     -140.739      -67.750       -5.030       42.520       33.672       17.291     1807.925     1133.798      298.963        1.383        0.162      156.197        8.689        0.003      334.269        4.130      861.343
12/19/2014  04:34:00     -132.245      -49.116        2.869       61.190       59.734       26.410     3744.203     3568.099      697.466        1.396        0.400      141.071       24.358        0.030      334.063        3.787      861.325
12/19/2014  04:35:00     -127.071      -54.555        7.240       62.454       47.377       34.381     3900.532     2244.582     1182.052        1.325        0.366      138.287       32.662        0.056      334.059        3.781      861.307
12/19/2014  04:36:00     -184.826      -49.084      -12.090       46.195       40.480       26.119     2133.974     1638.598      682.227        2.058        0.223      191.233       25.997        0.018      334.105        3.857      861.320
12/19/2014  04:37:00     -190.846       12.041      -16.775       46.707       50.727       24.369     2181.549     2573.185      593.833        2.110        0.267      191.225       24.675        0.017      334.182        3.984      861.310
12/19/2014  04:38:00     -159.460       66.751       -8.998       64.242       32.459       32.736     4126.981     1053.567     1071.663        1.811        0.313      172.867       26.000        0.023      334.525        4.553      861.252
12/19/2014  04:39:00     -120.001       72.931      -12.093       42.782       40.487       33.676     1830.305     1639.220     1134.085        1.223        0.230      140.425       29.416        0.044      334.845        5.087      861.192
12/19/2014  04:40:00     -129.822       85.902      -24.302       39.572       50.451       33.475     1565.956     2545.315     1120.573        1.503        0.262      155.669       30.299        0.038      335.068        5.457      861.155
12/19/2014  04:41:00     -113.270       83.823      -11.258       48.635       48.265       37.683     2365.395     2329.509     1420.004        1.305        0.306      140.912       30.314        0.046      335.031        5.395      861.159
12/19/2014  04:42:00     -111.683       57.506      -25.975       46.021       46.408       32.704     2117.918     2153.670     1069.581        1.090        0.267      125.619       22.983        0.033      335.049        5.425      861.174
12/19/2014  04:43:00      -76.873       73.586       -5.255       43.628       62.948       41.405     1903.390     3962.416     1714.352        0.946        0.379      106.416       36.628        0.118      334.928        5.223      861.184
12/19/2014  04:44:00      -80.723      -10.997      -13.971       19.894       19.297       17.717      395.755      372.393      313.907        0.396        0.054       81.468        6.429        0.006      334.378        4.310      861.174
12/19/2014  04:45:00      -64.693       28.636       -8.490       33.509       31.636       16.172     1122.831     1000.854      261.546        0.373        0.119       70.747       15.036        0.045      334.737        4.906      861.149
12/19/2014  04:46:00      -68.644       22.423      -14.842       24.486       25.937       17.601      599.557      672.709      309.804        0.351        0.079       72.213       12.363        0.029      334.827        5.057      861.127
12/19/2014  04:47:00      -62.740      -12.562       -4.677       20.263       32.082       14.550      410.574     1029.250      211.705        0.288        0.083       63.985        9.959        0.024      334.734        4.903      861.135
12/19/2014  04:48:00      -84.017      -37.466      -16.340       17.893       22.928       11.345      320.166      525.707      128.713        0.485        0.049       91.992        5.122        0.003      334.222        4.054      861.146
12/19/2014  04:49:00      -86.357      -52.117        5.618       38.201       25.241       23.922     1459.312      637.115      572.253        0.644        0.133      100.865       24.502        0.059      334.092        3.836      861.136
12/19/2014  04:50:00     -100.135      -51.387       -1.622       32.862       21.781       17.643     1079.880      474.400      311.271        0.727        0.093      112.550       14.173        0.016      334.053        3.772      861.135
12/19/2014  04:51:00      -49.261      -86.028       11.661       63.950       60.326       35.488     4089.629     3639.218     1259.395        0.947        0.449       99.134       34.431        0.121      334.297        4.175      861.157
12/19/2014  04:52:00     -100.933      -92.463        3.940       99.447       84.249       38.254     9889.749     7097.877     1463.339        1.860        0.923      136.883       47.054        0.118      334.179        3.980      861.186
12/19/2014  04:53:00     -197.939     -107.673       -0.835      105.642       65.693       41.097    11160.331     4315.518     1688.962        3.397        0.858      225.329       49.275        0.048      333.983        3.654      861.225
12/19/2014  04:54:00     -191.259      -58.846      -12.531       40.291       48.966       30.582     1623.362     2397.643      935.230        2.258        0.248      200.107       24.967        0.016      334.093        3.837      861.251
12/19/2014  04:55:00     -204.301      -38.640      -27.986       43.377       37.330       26.413     1881.529     1393.550      697.645        2.399        0.199      207.923       21.814        0.011      334.064        3.789      861.261
12/19/2014  04:56:00     -185.623      -25.254      -26.399       45.812       57.087       24.388     2098.740     3258.903      594.758        2.087        0.298      187.333       16.241        0.008      334.244        4.086      861.264
12/19/2014  04:57:00     -227.147        3.364      -26.352       40.429       52.520       22.797     1634.523     2758.329      519.703        2.861        0.246      227.172       17.913        0.006      334.202        4.015      861.277
12/19/2014  04:58:00     -230.323       20.213      -35.952       30.685       35.056       23.153      941.552     1228.932      536.044        2.873        0.135      231.208       16.711        0.005      334.316        4.204      861.297
12/19/2014  04:59:00     -184.644        2.404      -24.778       41.067       42.275       25.784     1686.477     1787.153      664.806        1.942        0.207      184.660       22.146        0.014      334.355        4.271      861.321
12/19/2014  05:00:00     -195.211      -45.500      -20.870       38.903       47.906       25.991     1513.408     2295.023      675.540        2.255        0.224      200.443       17.074        0.007      334.288        4.159      861.350
12/19/2014  05:01:00     -181.442      -37.469      -20.183       54.582       39.981       29.162     2979.146     1598.489      850.430        2.008        0.271      185.270       28.032        0.023      334.260        4.114      861.368
12/19/2014  05:02:00     -235.848       44.754      -22.819       37.443       39.859       20.021     1401.994     1588.705      400.837        3.077        0.170      240.057       15.862        0.004      334.616        4.701      861.355
12/19/2014  05:03:00     -204.315       22.388      -24.408       35.638       42.369       23.685     1270.051     1795.112      560.975        2.323        0.181      205.538       20.620        0.010      334.539        4.578      861.338
12/19/2014  05:04:00     -186.470      -37.705      -20.277       69.829       39.688       24.698     4876.027     1575.112      610.011        2.183        0.353      190.244       29.148        0.023      334.402        4.348      861.341
12/19/2014  05:05:00     -176.209      -52.165       -7.249       58.396       35.834       29.650     3410.127     1284.076      879.098        1.970        0.279      183.768       30.603        0.028      334.425        4.389      861.357
12/19/2014  05:06:00     -192.571      -71.255       -6.051       39.983       45.235       27.305     1598.654     2046.162      745.543        2.329        0.220      205.332       23.183        0.013      334.473        4.467      861.358
12/19/2014  05:07:00     -155.143      -60.352      -18.708       30.943       37.761       25.453      957.484     1425.878      647.877        1.555        0.152      166.468       18.413        0.012      334.487        4.492      861.350
12/19/2014  05:08:00     -133.079        5.295      -15.465       32.102       31.132       18.258     1030.531      969.230      333.369        1.015        0.117      133.184       18.410        0.019      334.570        4.630      861.324
12/19/2014  05:09:00     -114.775       21.994       -9.636       30.215       28.469       21.200      912.944      810.479      449.431        0.796        0.109      116.863       17.975        0.024      334.909        5.192      861.299
12/19/2014  05:10:00     -170.098       42.854       -7.193       74.868       38.212       34.628     5605.290     1460.187     1199.066        1.954        0.413      175.413       37.334        0.045      335.249        5.757      861.277
12/19/2014  05:11:00     -153.226       23.913      -11.348       55.881       30.187       20.076     3122.636      911.284      403.050        1.431        0.222      155.081       30.395        0.038      334.995        5.336      861.271
12/19/2014  05:12:00      -94.119       36.528       -2.299       34.520       20.437       22.223     1191.606      417.659      493.872        0.615        0.105      100.959       19.028        0.036      335.436        6.067      861.226
12/19/2014  05:13:00     -152.119       48.573      -10.863       27.806       22.024       16.620      773.160      485.067      276.219        1.358        0.077      159.686        8.122        0.003      335.283        5.814      861.200
12/19/2014  05:14:00     -161.318       37.676      -14.487       48.085       42.072       21.422     2312.135     1770.063      458.904        1.610        0.227      165.659       16.709        0.010      334.962        5.279      861.203
12/19/2014  05:15:00     -101.687       68.829       12.336       49.610       34.748       40.824     2461.119     1207.404     1666.563        1.028        0.267      122.791       32.837        0.072      335.643        6.414      861.231
12/19/2014  05:16:00     -159.592      -11.065      -11.497       79.106       58.839       32.232     6257.758     3461.998     1038.895        1.824        0.538      159.975       37.830        0.056      334.885        5.152      861.270
12/19/2014  05:17:00     -144.727       52.792       -9.556       60.082       37.772       31.003     3609.837     1426.711      961.175        1.491        0.300      154.055       16.752        0.012      334.989        5.325      861.292
12/19/2014  05:18:00     -164.937       46.774      -13.299       46.365       37.023       24.570     2149.728     1370.685      603.671        1.685        0.206      171.441       17.658        0.011      334.796        5.005      861.297
12/19/2014  05:19:00     -132.522       44.043      -10.048       39.695       35.418       16.582     1575.674     1254.424      274.968        1.135        0.155      139.650       10.784        0.006      335.410        6.024      861.294
12/19/2014  05:20:00      -96.438      -25.719       -8.475       29.015       30.897       17.167      841.888      954.646      294.715        0.606        0.105       99.808       14.313        0.021      335.146        5.586      861.310
12/19/2014  05:21:00     -127.518      -45.673      -11.654       17.366       18.442       15.500      301.571      340.124      240.245        0.968        0.044      135.451       13.889        0.011      334.661        4.781      861.327
12/19/2014  05:22:00      -69.828      -20.497       -2.264       46.565       21.444       19.056     2168.295      459.864      363.147        0.415        0.150       72.774       22.511        0.096      334.523        4.552      861.301
12/19/2014  05:23:00      -13.952       -3.105       -2.467       11.705       17.606       10.283      137.017      309.967      105.744        0.038        0.028       14.294        4.874        0.116      335.247        5.754      861.262
12/19/2014  05:24:00      -49.997       30.354       -6.349       23.871       38.769       17.072      569.805     1503.043      291.450        0.291        0.118       58.490       21.215        0.132      334.875        5.137      861.251
12/19/2014  05:25:00        6.414       49.140        4.334       33.227       24.762       17.914     1104.028      613.138      320.903        0.226        0.102       49.557       16.960        0.117      334.810        5.027      861.261
12/19/2014  05:26:00       95.884       58.407       38.301       49.722       31.642       35.704     2472.251     1001.210     1274.758        0.941        0.237      112.272       20.804        0.034      334.135        3.907      861.273
12/19/2014  05:27:00      105.445       75.139       25.289       30.231       24.285       24.345      913.905      589.763      592.671        0.975        0.105      129.478       17.718        0.019      334.052        3.770      861.295
12/19/2014  05:28:00       83.571       65.996        5.152       25.401       20.336       18.452      645.228      413.535      340.473        0.638        0.070      106.487        8.219        0.006      334.213        4.037      861.312
12/19/2014  05:29:00       62.783       46.725        5.849       27.797       17.240       21.701      772.673      297.220      470.940        0.385        0.077       78.262       13.281        0.029      334.217        4.044      861.339
12/19/2014  05:30:00       38.868       -2.899       21.071       24.647       27.451       20.040      607.461      753.568      401.584        0.186        0.088       38.976       15.286        0.154      334.118        3.880      861.339
12/19/2014  05:31:00       41.061      -14.912        8.888       27.882       27.495       21.878      777.396      755.990      478.627        0.200        0.101       43.684       18.253        0.175      334.112        3.869      861.327
12/19/2014  05:32:00       39.870      -57.105       -8.797       29.629       19.749       11.132      877.885      390.009      123.920        0.316        0.070       69.646       11.904        0.029      334.218        4.045      861.317
12/19/2014  05:33:00       33.225      -13.565        7.249       17.531       24.784       15.271      307.353      614.265      233.197        0.125        0.058       35.887       16.246        0.205      334.160        3.951      861.288
12/19/2014  05:34:00       28.283        6.886       17.806       27.261       15.497       14.575      743.187      240.148      212.425        0.118        0.060       29.109       11.065        0.144      334.116        3.877      861.260
12/19/2014  05:35:00        2.981      -53.146       -5.214       17.928       22.777        9.889      321.430      518.790       97.801        0.190        0.047       53.230        7.304        0.019      334.245        4.091      861.273
12/19/2014  05:36:00       14.584      -74.999      -13.672       28.962       21.656       16.823      838.774      468.965      283.011        0.381        0.080       76.404       16.459        0.046      334.307        4.196      861.274
12/19/2014  05:37:00      -10.167      -47.336      -13.247       29.374       31.690       16.661      862.847     1004.226      277.598        0.233        0.107       48.415       19.661        0.165      334.195        4.007      861.262
12/19/2014  05:38:00      -38.123      -12.765       -3.537       12.770       16.829        9.495      163.083      283.220       90.150        0.108        0.027       40.203        8.449        0.044      334.189        3.998      861.253
12/19/2014  05:39:00       -6.551        6.080       14.848       20.994        7.302        7.333      440.760       53.320       53.780        0.042        0.027        8.938        3.912        0.192      334.214        4.039      861.239
12/19/2014  05:40:00       20.914      -28.883       -2.662       30.517       36.036       23.407      931.294     1298.558      547.905        0.203        0.139       35.659       28.039        0.618      334.186        3.993      861.225
12/19/2014  05:41:00       80.633     -119.440      -17.645       37.281       35.994       19.354     1389.896     1295.587      374.574        1.207        0.153      144.110       11.188        0.006      334.283        4.153      861.225
12/19/2014  05:42:00       77.609     -104.677      -10.324       69.549       53.804       45.042     4837.092     2894.830     2028.753        1.342        0.488      130.309       36.619        0.079      334.298        4.177      861.229
12/19/2014  05:43:00       35.382      -17.880       41.845       52.977       87.714       52.725     2806.552     7693.795     2779.959        0.830        0.664       39.643       61.331        2.393      334.344        4.256      861.224
12/19/2014  05:44:00       36.043       -5.747       25.491       42.009       36.463       22.201     1764.736     1329.516      492.890        0.278        0.179       36.499       23.737        0.423      334.242        4.085      861.200
12/19/2014  05:45:00      -32.122       15.556        5.599       32.069       14.755       19.864     1028.432      217.714      394.593        0.147        0.082       35.691       19.923        0.312      334.258        4.113      861.189
12/19/2014  05:46:00     -136.875       -0.772      -20.785       13.228       19.903       14.206      174.982      396.128      201.815        0.997        0.039      136.877        7.859        0.003      334.343        4.253      861.201
12/19/2014  05:47:00     -133.610       -6.846      -13.307       30.734       21.281       22.633      944.569      452.887      512.234        0.999        0.095      133.785       15.727        0.014      334.019        3.715      861.210
12/19/2014  05:48:00     -113.967      -53.343       -6.363       29.396       14.679       14.286      864.131      215.459      204.082        0.858        0.064      125.832        7.588        0.004      334.159        3.948      861.205
12/19/2014  05:49:00     -106.798      -34.515      -13.988       23.499       27.680       15.609      552.180      766.178      243.639        0.718        0.078      112.237        9.672        0.007      334.206        4.027      861.185
12/19/2014  05:50:00      -46.898       -0.238       -6.560       20.372       12.306       10.537      415.004      151.435      111.028        0.146        0.034       46.898        8.821        0.035      334.267        4.128      861.123
12/19/2014  05:51:00       -1.732       -5.455        1.828        7.624        6.499        4.994       58.118       42.238       24.942        0.008        0.006        5.723        4.399        0.591      334.364        4.290      861.027
12/19/2014  05:52:00      -30.735      -15.746       -6.422       45.795       15.331       10.149     2097.196      235.044      103.007        0.183        0.122       34.534       19.377        0.315      334.596        4.672      860.953
12/19/2014  05:53:00     -143.758      -83.754       -6.929       48.247       38.344       22.878     2327.748     1470.236      523.383        1.602        0.216      166.376       21.495        0.017      334.119        3.880      860.945
12/19/2014  05:54:00     -116.614      -55.042        1.148       48.994       40.884       29.294     2400.395     1671.465      858.132        1.078        0.246      128.951       28.124        0.048      334.060        3.784      860.974
12/19/2014  05:55:00      -37.673       -8.956        1.720       30.867       13.898       10.778      952.783      193.153      116.163        0.138        0.063       38.723       12.930        0.111      334.085        3.825      860.978
12/19/2014  05:56:00     -134.671       -0.292      -18.170       22.289       14.901       12.033      496.822      222.046      144.784        0.966        0.043      134.671        9.162        0.005      333.958        3.615      860.984
12/19/2014  05:57:00     -111.426      -16.081      -11.105       15.837       27.637       12.855      250.796      763.800      165.253        0.699        0.059      112.581       11.162        0.010      334.057        3.777      860.969
12/19/2014  05:58:00     -111.351        6.639      -21.763       17.435       15.202       13.797      303.968      231.099      190.370        0.682        0.036      111.549        9.428        0.007      334.293        4.171      860.930
12/19/2014  05:59:00     -112.338       -2.748      -22.332       13.418       18.134       14.058      180.052      328.839      197.637        0.692        0.035      112.372        6.450        0.003      334.320        4.216      860.898
12/19/2014  06:00:00     -105.204      -45.331      -16.902       18.767       21.267       14.467      352.214      452.289      209.281        0.721        0.051      114.555        3.370        0.001      334.193        4.005      860.889
12/19/2014  06:01:00     -126.617      -59.022      -16.418       38.563       32.417       17.254     1487.122     1050.853      297.704        1.131        0.142      139.698       12.928        0.009      333.980        3.650      860.893
12/19/2014  06:02:00     -120.946      -52.028      -11.218       20.957       25.709       15.451      439.213      660.954      238.723        0.940        0.067      131.662       10.399        0.006      333.861        3.454      860.906
12/19/2014  06:03:00     -152.770      -77.148       -3.463       26.739       26.745       22.026      714.979      715.285      485.151        1.561        0.096      171.144       14.616        0.007      333.945        3.594      860.927
12/19/2014  06:04:00      -92.791      -55.391        5.979       48.636       32.491       26.114     2365.450     1055.648      681.946        0.791        0.205      108.067       29.268        0.073      333.989        3.665      860.938
12/19/2014  06:05:00     -102.034      -26.432       -5.833       23.887       27.537       18.415      570.587      758.276      339.114        0.641        0.083      105.402       14.332        0.018      334.062        3.786      860.893
12/19/2014  06:06:00     -129.991       -6.892      -18.161       25.635       21.876       14.966      657.177      478.567      223.989        0.932        0.068      130.174       12.966        0.010      334.136        3.910      860.842
12/19/2014  06:07:00     -107.492      -48.288      -15.821       46.309       26.496       14.132     2144.514      702.026      199.705        0.859        0.152      117.840       16.355        0.019      334.003        3.690      860.843
12/19/2014  06:08:00     -121.135      -83.617      -19.518       65.817       27.570       25.425     4331.898      760.087      646.419        1.389        0.287      147.192       24.119        0.027      333.891        3.502      860.910
12/19/2014  06:09:00     -174.384      -65.083       -6.416       31.310       27.848       19.804      980.311      775.528      392.208        1.842        0.107      186.133       16.363        0.008      333.892        3.505      860.997
12/19/2014  06:10:00     -108.211      -67.214        6.440       48.555       32.619       23.323     2357.607     1063.968      543.942        1.012        0.198      127.386       20.890        0.027      334.015        3.707      861.056
12/19/2014  06:11:00     -112.098      -81.487       -0.322       44.826       32.744       21.315     2009.391     1072.189      454.325        1.137        0.177      138.586       14.595        0.011      334.149        3.930      861.085
12/19/2014  06:12:00     -109.381      -82.441        3.289       48.398       46.337       26.402     2342.366     2147.135      697.041        1.198        0.259      136.970       29.099        0.045      334.288        4.162      861.095
12/19/2014  06:13:00      -72.232      -37.611       -0.705       49.961       33.521       19.236     2496.055     1123.658      370.021        0.531        0.199       81.438       19.977        0.060      334.294        4.171      861.118
12/19/2014  06:14:00      -97.711      -71.902       -6.633       16.244       21.286       13.662      263.861      453.098      186.655        0.783        0.045      121.315        6.923        0.003      334.372        4.300      861.158
12/19/2014  06:15:00      -41.473      -59.222        2.921       25.126       33.248       17.603      631.338     1105.426      309.865        0.364        0.102       72.300        9.346        0.017      334.521        4.550      861.175
12/19/2014  06:16:00       35.105       17.146       12.151       51.587       22.935       15.202     2661.265      526.023      231.089        0.255        0.171       39.069       12.772        0.107      334.392        4.335      861.160
12/19/2014  06:17:00       94.281       38.875       10.258       50.289       34.711       26.952     2528.940     1204.848      726.408        0.748        0.223      101.981       25.398        0.062      334.287        4.160      861.135
12/19/2014  06:18:00       58.621       19.830       40.612       39.000       81.382       38.897     1521.029     6622.986     1513.001        0.757        0.483       61.884       46.790        0.572      333.928        3.566      861.187
12/19/2014  06:19:00      107.835       75.813       24.112       66.109       42.799       34.826     4370.397     1831.765     1212.845        1.268        0.371      131.818       24.783        0.035      333.520        2.886      861.256
12/19/2014  06:20:00      109.366       78.135       32.215       53.298       29.818       31.816     2840.698      889.097     1012.268        1.192        0.237      134.410        6.979        0.003      333.493        2.841      861.258
12/19/2014  06:21:00      179.295       87.865       20.943       42.558       43.354       37.492     1811.145     1879.528     1405.673        2.270        0.255      199.667       27.503        0.019      333.491        2.838      861.233
12/19/2014  06:22:00      160.135       76.020       14.336       46.349       40.009       38.078     2148.217     1600.693     1449.925        1.841        0.260      177.263       26.303        0.022      333.563        2.959      861.197
12/19/2014  06:23:00      110.817       58.975        5.919       55.515       35.729       34.963     3081.924     1276.539     1222.443        1.069        0.279      125.533       27.752        0.049      333.468        2.801      861.171
12/19/2014  06:24:00      117.843       78.113        9.911       50.951       34.048       27.708     2596.023     1159.297      767.747        1.230        0.226      141.382       24.837        0.031      333.372        2.643      861.192
12/19/2014  06:25:00      114.086       94.206       11.778       56.091       36.982       32.053     3146.151     1367.686     1027.416        1.378        0.277      147.954       22.326        0.023      333.367        2.635      861.241
12/19/2014  06:26:00       51.993       77.097        0.724       44.308       48.441       42.108     1963.191     2346.579     1773.077        0.736        0.304       92.990       34.864        0.141      333.430        2.739      861.343
12/19/2014  06:27:00       27.353       84.900       -6.369       29.747       41.572       28.179      884.891     1728.228      794.045        0.570        0.170       89.197       24.562        0.076      333.509        2.871      861.456
12/19/2014  06:28:00       86.129       70.052       -2.162       30.296       42.243       28.797      917.818     1784.499      829.243        0.793        0.177      111.021       26.958        0.059      333.547        2.932      861.524
12/19/2014  06:29:00      122.270       93.914       30.219       47.385       30.901       35.239     2245.380      954.894     1241.798        1.456        0.222      154.174       18.510        0.014      333.594        3.009      861.476
12/19/2014  06:30:00      175.955      116.980       13.819       50.689       44.423       40.435     2569.419     1973.432     1634.983        2.551        0.309      211.292       32.566        0.024      333.574        2.974      861.353
12/19/2014  06:31:00      132.950       90.518       18.441       47.698       37.422       35.575     2275.134     1400.436     1265.558        1.557        0.247      160.839       25.356        0.025      333.538        2.916      861.324
12/19/2014  06:32:00       38.413       74.776        4.920       38.555       53.879       39.840     1486.461     2902.932     1587.242        0.653        0.299       84.066       37.342        0.197      333.603        3.026      861.372
12/19/2014  06:33:00       18.936      117.442      -10.055       30.950       48.244       24.761      957.922     2327.456      613.091        0.907        0.195      118.959       27.198        0.052      333.722        3.222      861.385
12/19/2014  06:34:00       42.326       97.062       -0.529       36.218       63.834       31.906     1311.758     4074.818     1018.010        0.881        0.320      105.889       38.858        0.135      333.811        3.369      861.363
12/19/2014  06:35:00       22.721      121.147      -17.846       33.325       44.209       24.542     1110.536     1954.416      602.296        0.959        0.183      123.259       22.932        0.035      333.953        3.607      861.354
12/19/2014  06:36:00        0.255      127.131      -14.448       21.690       20.457       17.804      470.465      418.489      316.975        0.879        0.060      127.131        6.930        0.003      333.885        3.493      861.325
12/19/2014  06:37:00        7.132       97.219      -19.281       27.248       32.542       15.175      742.463     1059.010      230.270        0.595        0.102       97.481       15.413        0.025      334.023        3.723      861.268
12/19/2014  06:38:00       -3.685       96.183      -11.810       26.134       23.798       15.478      682.961      566.333      239.574        0.545        0.074       96.254       12.882        0.018      334.198        4.014      861.226
12/19/2014  06:39:00       18.421       33.294       -7.433       22.121       32.938       17.132      489.348     1084.925      293.490        0.169        0.093       38.050       15.990        0.177      334.111        3.866      861.231
12/19/2014  06:40:00        9.882      -15.875       -4.685       14.794       19.435        8.975      218.865      377.733       80.545        0.052        0.034       18.699        5.823        0.097      334.143        3.920      861.258
12/19/2014  06:41:00       10.950       55.441      -10.103       15.234       32.848        7.350      232.066     1079.013       54.026        0.233        0.068       56.512        6.888        0.015      334.515        4.539      861.271
12/19/2014  06:42:00      -10.811       94.508      -17.220       23.087       24.478       14.136      532.993      599.159      199.834        0.534        0.067       95.124       14.539        0.023      334.671        4.797      861.241
12/19/2014  06:43:00      -23.261       82.093      -13.959       21.617       29.051       14.959      467.295      843.943      223.774        0.450        0.077       85.325       11.330        0.018      334.763        4.950      861.202
12/19/2014  06:44:00       14.098      141.899      -15.200       29.880       45.691       21.669      892.804     2087.653      469.536        1.201        0.172      142.598       24.742        0.030      334.501        4.515      861.125
12/19/2014  06:45:00       29.094       64.310       -8.685       33.039       48.672       27.834     1091.586     2368.938      774.748        0.465        0.212       70.584       20.584        0.085      334.396        4.341      861.069
12/19/2014  06:46:00      -26.885        9.111        1.736       30.291       35.472       17.950      917.538     1258.283      322.195        0.165        0.125       28.387       16.015        0.318      334.533        4.569      861.072
12/19/2014  06:47:00       -5.851       76.671      -11.524       31.637       22.902       19.283     1000.889      524.487      371.837        0.397        0.095       76.894       14.623        0.036      334.587        4.657      861.066
12/19/2014  06:48:00      -29.044       66.299      -11.481       34.391       30.221       20.150     1182.731      913.299      406.033        0.394        0.125       72.381       12.202        0.028      334.882        5.149      861.052
12/19/2014  06:49:00      -58.662        4.215      -10.270       24.917       39.041       11.632      620.880     1524.203      135.301        0.292        0.114       58.814        8.241        0.020      334.439        4.414      860.998
12/19/2014  06:50:00      -36.039      -37.333        9.300       35.903       19.089       17.479     1289.033      364.373      305.511        0.237        0.098       51.890       15.393        0.088      334.136        3.911      860.934
12/19/2014  06:51:00      -37.946      -29.560      -10.632       13.312       14.817        9.846      177.208      219.541       96.939        0.146        0.025       48.101        7.179        0.022      334.402        4.350      860.867
12/19/2014  06:52:00      -31.097      -22.087        1.848        7.407        9.226        8.873       54.861       85.113       78.726        0.084        0.011       38.143        7.332        0.037      334.449        4.430      860.855
12/19/2014  06:53:00      -42.434      -16.936       -5.682       10.104        9.201        4.984      102.083       84.661       24.843        0.117        0.011       45.689        4.087        0.008      334.487        4.491      860.900
12/19/2014  06:54:00      -32.549       -8.578       -5.141        6.998        6.070        4.560       48.979       36.850       20.796        0.063        0.005       33.660        3.852        0.013      334.391        4.336      860.912
12/19/2014  06:55:00      -80.709        8.297      -15.232       32.552       10.351       11.923     1059.637      107.151      142.148        0.406        0.065       81.135       16.429        0.041      334.393        4.335      860.853
12/19/2014  06:56:00      -86.065       -2.836      -19.184       21.969       12.462        9.464      482.617      155.312       89.566        0.426        0.036       86.112        7.036        0.007      334.316        4.209      860.781
12/19/2014  06:57:00      -91.814      -32.215      -10.158       22.627       24.934       13.853      511.966      621.691      191.919        0.545        0.066       97.302       12.372        0.016      334.279        4.147      860.780
12/19/2014  06:58:00     -162.850      -37.787      -22.215       33.028       29.708       20.174     1090.844      882.574      406.973        1.541        0.119      167.177       11.448        0.005      334.031        3.735      860.822
12/19/2014  06:59:00     -138.963       -6.455      -20.972       36.459       34.316       18.253     1329.231     1177.621      333.181        1.132        0.142      139.113       16.348        0.014      334.032        3.736      860.888
12/19/2014  07:00:00      -71.838      -34.207       -1.236       59.889       38.339       33.839     3586.654     1469.851     1145.059        0.627        0.310       79.566       25.269        0.101      334.034        3.740      860.960
12/19/2014  07:01:00      -19.864      -20.493       11.365       57.153       35.901       26.904     3266.487     1288.909      723.810        0.311        0.264       28.540       32.794        1.320      334.073        3.804      860.997
12/19/2014  07:02:00      -24.313      -62.910      -10.557       43.950       19.578       23.729     1931.586      383.317      563.072        0.377        0.144       67.445       13.264        0.039      334.250        4.097      861.031
12/19/2014  07:03:00     -168.705       -3.093      -35.050       15.580       41.708       16.057      242.733     1739.518      257.835        1.597        0.112      168.733       12.937        0.006      334.348        4.261      861.063
12/19/2014  07:04:00     -128.042       47.246      -11.531       35.451       22.174       22.249     1256.768      491.698      495.012        1.050        0.112      136.480       16.195        0.014      334.497        4.507      861.074
12/19/2014  07:05:00     -109.102       32.607       -7.196       41.520       28.611       22.459     1723.930      818.590      504.401        0.803        0.152      113.871       24.160        0.045      334.445        4.423      861.068
12/19/2014  07:06:00     -169.750       56.615      -19.712       35.870       32.803       19.822     1286.661     1076.011      392.899        1.758        0.138      178.942       17.329        0.009      334.366        4.290      861.108
12/19/2014  07:07:00     -131.999       12.608      -21.994       49.450       42.408       31.322     2445.266     1798.455      981.069        1.164        0.261      132.600       25.545        0.037      334.187        3.995      861.183
12/19/2014  07:08:00      -75.825       14.085      -12.341       41.231       41.924       19.878     1700.014     1757.649      395.118        0.498        0.193       77.122       15.282        0.039      334.185        3.991      861.253
12/19/2014  07:09:00     -155.587       42.917      -30.636       29.944       26.912       18.297      896.634      724.252      334.797        1.447        0.098      161.397       11.737        0.005      334.672        4.799      861.262
12/19/2014  07:10:00     -137.699       22.185      -20.170       49.713       34.648       17.754     2471.383     1200.476      315.201        1.192        0.199      139.475       11.692        0.007      334.709        4.861      861.242
12/19/2014  07:11:00     -114.011       -9.895      -16.894       25.973       39.923       16.273      674.612     1593.867      264.817        0.796        0.127      114.440       10.006        0.008      334.717        4.874      861.238
12/19/2014  07:12:00      -50.927      -31.924       -9.449       41.685       24.221       13.643     1737.678      586.661      186.134        0.311        0.126       60.106        7.251        0.015      334.399        4.347      861.253
12/19/2014  07:13:00       11.263      -48.060      -10.432       14.012       13.744       11.292      196.347      188.903      127.520        0.153        0.026       49.362        6.341        0.017      334.390        4.332      861.259
12/19/2014  07:14:00       -8.320       -7.947        6.500       16.462       15.263       14.631      270.986      232.970      214.079        0.045        0.036       11.506       13.259        1.328      334.469        4.464      861.233
12/19/2014  07:15:00       15.217       22.280       19.687       11.863        9.133        7.237      140.737       83.407       52.375        0.070        0.014       26.981        4.396        0.027      334.420        4.383      861.186
12/19/2014  07:16:00       15.931       30.058        2.247        8.594       13.313        9.178       73.863      177.245       84.231        0.075        0.017       34.018        8.356        0.060      334.493        4.503      861.135
12/19/2014  07:17:00       12.248       39.684       -7.382        6.686        3.958        3.249       44.698       15.664       10.553        0.093        0.004       41.532        1.513        0.001      334.579        4.643      861.093
12/19/2014  07:18:00        0.176       25.673       -2.277        3.451        4.150        3.660       11.908       17.223       13.395        0.035        0.002       25.674        1.558        0.004      335.078        5.474      861.047
12/19/2014  07:19:00       21.964       19.647        6.572        9.984        5.608        5.736       99.671       31.453       32.904        0.054        0.008       29.469        5.119        0.030      335.129        5.555      860.996
12/19/2014  07:20:00       47.543       43.634       -3.896       13.362       16.242       15.006      178.548      263.801      225.193        0.242        0.033       64.531       13.110        0.041      334.604        4.686      860.987
12/19/2014  07:21:00      -25.865       40.860      -19.428       34.325       15.564        8.896     1178.203      242.227       79.142        0.211        0.075       48.359        7.384        0.023      334.732        4.899      861.022
12/19/2014  07:22:00      -36.367       16.827      -15.593       19.092       17.223        7.902      364.522      296.640       62.436        0.129        0.036       40.071        5.752        0.021      335.291        5.826      861.045
12/19/2014  07:23:00      -10.646      -23.703        1.000       18.838       17.514       11.217      354.869      306.751      125.813        0.073        0.039       25.984        3.863        0.022      334.817        5.040      861.069
12/19/2014  07:24:00      -10.686      -13.231        7.852       11.905       10.329        9.024      141.732      106.696       81.436        0.034        0.016       17.007        6.629        0.152      334.499        4.512      861.067
12/19/2014  07:25:00       -5.976        1.520       -7.581       18.229       14.389        8.850      332.301      207.032       78.331        0.036        0.031        6.167        5.191        0.709      334.800        5.012      861.019
12/19/2014  07:26:00       -7.506       38.356      -12.133       13.002       11.093        9.198      169.052      123.049       84.602        0.103        0.019       39.083        7.202        0.034      335.318        5.872      860.982
12/19/2014  07:27:00       -0.775        2.775        2.678        9.220       12.939        6.132       85.008      167.426       37.598        0.015        0.015        2.881        4.307        2.234      335.071        5.462      861.019
12/19/2014  07:28:00       18.746       23.784       37.190       35.848       38.393       28.385     1285.048     1474.028      805.709        0.293        0.178       30.284       27.679        0.835      334.520        4.548      861.072
12/19/2014  07:29:00       62.114       40.404       -3.167       30.172       21.853       25.945      910.375      477.565      673.144        0.378        0.103       74.099       13.831        0.035      334.187        3.994      861.081
12/19/2014  07:30:00      -23.010       16.335       -2.475       29.427       11.852       15.251      865.957      140.476      232.585        0.102        0.062       28.219       18.559        0.433      334.435        4.405      861.034
12/19/2014  07:31:00      -95.528       32.083      -13.892       37.154       23.603       15.124     1380.393      557.124      228.738        0.626        0.108      100.772       14.788        0.022      335.117        5.538      860.985
12/19/2014  07:32:00     -146.652       30.777      -18.203       39.467       29.543       21.920     1557.636      872.805      480.504        1.285        0.146      149.847       21.441        0.020      334.571        4.631      860.974
12/19/2014  07:33:00     -113.228       -0.766       -3.826       64.949       49.514       39.544     4218.402     2451.594     1563.764        1.053        0.412      113.230       39.859        0.124      334.662        4.783      860.982
12/19/2014  07:34:00      -34.468       17.041        2.227       37.771       32.312       25.310     1426.669     1044.091      640.573        0.230        0.156       38.451       21.981        0.327      334.563        4.618      860.937
12/19/2014  07:35:00       29.058        7.187       12.969       32.663       27.095       26.726     1066.874      734.141      714.259        0.179        0.126       29.934       17.591        0.345      334.517        4.541      860.845
12/19/2014  07:36:00       71.560       48.699       20.220       31.987       32.928       32.322     1023.149     1084.267     1044.695        0.553        0.158       86.559       19.261        0.050      334.351        4.266      860.779
12/19/2014  07:37:00       -0.705       17.554       -9.461       27.510       17.664        9.097      756.798      312.014       82.755        0.077        0.058       17.568       12.290        0.489      334.515        4.538      860.785
12/19/2014  07:38:00     -124.765      -45.954      -15.138       25.422       21.072       12.844      646.288      444.015      164.965        0.958        0.063      132.959       10.879        0.007      334.602        4.683      860.834
12/19/2014  07:39:00     -152.804      -89.336      -20.267       28.705       34.398       20.606      823.968     1183.206      424.615        1.709        0.122      177.003       14.028        0.006      334.606        4.690      860.888
12/19/2014  07:40:00     -136.713      -96.083       -5.309       46.822       38.748       25.067     2192.270     1501.427      628.350        1.614        0.216      167.100       22.942        0.019      334.769        4.959      860.905
12/19/2014  07:41:00     -118.070      -46.180       -2.323       42.232       33.067       22.556     1783.542     1093.433      508.781        0.973        0.169      126.780       21.798        0.030      334.784        4.985      860.896
12/19/2014  07:42:00     -135.798      -34.863      -10.373       21.524       21.835       13.747      463.291      476.766      188.978        1.045        0.056      140.201        9.700        0.005      335.000        5.344      860.884
12/19/2014  07:43:00     -145.698      -21.475      -19.227       32.293       26.840       18.888     1042.859      720.381      356.746        1.209        0.106      147.272       16.364        0.012      335.158        5.606      860.896
12/19/2014  07:44:00     -182.040       -9.587      -28.978       21.648       17.608       17.914      468.649      310.046      320.907        1.758        0.055      182.292       13.379        0.005      335.103        5.515      860.910
12/19/2014  07:45:00     -181.281       58.126      -17.479       53.153       35.108       21.244     2825.201     1232.591      451.295        2.053        0.225      190.372       11.511        0.004      335.325        5.882      860.920
12/19/2014  07:46:00     -137.835       94.651      -24.817       38.588       43.933       30.787     1489.042     1930.094      947.856        1.647        0.218      167.204       22.528        0.018      335.319        5.874      860.916
12/19/2014  07:47:00     -121.223       39.889      -20.245       34.177       31.598       20.183     1168.053      998.450      407.371        0.963        0.129      127.617       14.859        0.014      335.333        5.897      860.898
12/19/2014  07:48:00     -159.876       33.822      -16.157       50.267       41.496       22.487     2526.741     1721.908      505.683        1.586        0.238      163.414       15.811        0.009      335.326        5.885      860.909
12/19/2014  07:49:00     -120.021       27.851      -16.691       36.944       42.067       24.821     1364.874     1769.667      616.066        0.960        0.188      123.210       19.493        0.025      335.202        5.680      860.951
12/19/2014  07:50:00     -131.287       24.457       -7.792       31.554       42.947       25.302      995.636     1844.446      640.187        1.069        0.174      133.545       15.747        0.014      335.244        5.749      860.991
12/19/2014  07:51:00     -116.227        6.907       -9.201       35.439       38.087       30.433     1255.947     1450.652      926.137        0.864        0.182      116.432       22.637        0.038      335.278        5.804      861.000
12/19/2014  07:52:00     -119.257       18.695      -18.121       30.380       24.445       19.637      922.968      597.555      385.592        0.840        0.095      120.714       17.915        0.022      335.276        5.803      860.984
12/19/2014  07:53:00     -108.433       29.233      -17.141       38.596       38.969       22.420     1489.654     1518.568      502.640        0.821        0.176      112.304       11.942        0.011      335.546        6.253      860.959
12/19/2014  07:54:00     -110.773      -14.491       -8.084       33.194       29.339       20.631     1101.874      860.805      425.639        0.747        0.119      111.717       15.316        0.019      335.318        5.872      860.958
12/19/2014  07:55:00     -134.530      -12.009      -12.190       45.988       33.758       29.048     2114.892     1139.577      843.808        1.124        0.205      135.065       31.354        0.054      335.402        6.012      860.977
12/19/2014  07:56:00     -113.808       -0.536       -3.183       41.943       33.190       27.024     1759.205     1101.586      730.285        0.828        0.180      113.809       27.565        0.059      335.513        6.196      861.003
12/19/2014  07:57:00      -70.381       10.782       -5.829       57.753       27.345       19.225     3335.378      747.748      369.585        0.478        0.223       71.202       26.484        0.138      335.771        6.625      861.014
12/19/2014  07:58:00      -33.990       -2.454       -5.117       25.191       18.488       15.933      634.608      341.808      253.848        0.121        0.062       34.079       13.312        0.153      336.004        7.015      861.031
12/19/2014  07:59:00       -5.938        0.606       -1.063       17.754       12.884        9.953      315.203      166.004       99.063        0.031        0.029        5.969        7.488        1.574      336.284        7.482      861.041
12/19/2014  08:00:00       42.812       33.043        5.321       16.163       13.692        7.778      261.243      187.483       60.496        0.173        0.025       54.081        7.301        0.018      336.204        7.349      861.037
12/19/2014  08:01:00       52.880       41.482       10.669       13.607       19.677        8.065      185.159      387.199       65.052        0.263        0.032       67.209        6.143        0.008      336.166        7.286      861.030
12/19/2014  08:02:00       64.001       29.864       17.299       23.979       18.864       17.194      575.014      355.846      295.623        0.326        0.061       70.626       15.266        0.047      335.713        6.530      861.030
12/19/2014  08:03:00      107.447       42.037       -1.593       31.814       28.316       23.881     1012.099      801.821      570.323        0.785        0.119      115.378       16.379        0.020      335.806        6.684      861.019
12/19/2014  08:04:00       78.172       40.750       10.788       29.775       26.132       27.095      886.544      682.888      734.128        0.510        0.115       88.156       12.049        0.019      335.728        6.558      861.033
12/19/2014  08:05:00       35.200       32.716       33.362       20.136       21.686       18.843      405.459      470.274      355.049        0.233        0.062       48.056       10.481        0.048      335.780        6.643      861.078
12/19/2014  08:06:00       15.933       -4.611       12.525       18.121       19.385       13.276      328.383      375.786      176.254        0.066        0.044       16.587       11.451        0.477      335.861        6.778      861.138
12/19/2014  08:07:00        9.507       -9.361        8.524       11.563        8.589        9.603      133.696       73.778       92.209        0.028        0.015       13.342        7.186        0.290      336.138        7.239      861.187
12/19/2014  08:08:00      -17.848      -25.797       -2.809       22.805        7.252        6.419      520.090       52.589       41.207        0.080        0.031       31.369        3.528        0.013      335.903        6.847      861.218
12/19/2014  08:09:00      -26.862      -35.642        3.129       28.189       21.848       16.601      794.593      477.354      275.588        0.177        0.077       44.630       17.204        0.149      335.845        6.751      861.215
12/19/2014  08:10:00     -108.833      -97.301       -2.337       67.898       52.961       32.816     4610.078     2804.894     1076.895        1.490        0.425      145.987       38.498        0.070      335.696        6.500      861.223
12/19/2014  08:11:00     -140.540     -131.694       -3.211       67.066       57.161       40.866     4497.864     3267.344     1670.020        2.327        0.472      192.600       45.773        0.056      335.331        5.891      861.252
12/19/2014  08:12:00     -160.949     -111.836      -11.844       40.061       42.290       30.458     1604.855     1788.444      927.688        2.144        0.216      195.989       23.485        0.014      335.375        5.965      861.290
12/19/2014  08:13:00     -110.231      -61.859       -1.293       55.019       31.560       21.126     3027.121      996.027      446.316        1.022        0.223      126.401       25.589        0.041      335.565        6.284      861.295
12/19/2014  08:14:00      -18.922      -64.485        1.755       17.760       24.309       14.078      315.403      590.916      198.176        0.281        0.055       67.204        7.177        0.011      335.733        6.563      861.285
12/19/2014  08:15:00      -36.757      -51.186       -6.754       21.957       16.037        8.054      482.128      257.179       64.870        0.241        0.040       63.016        4.362        0.005      335.666        6.452      861.301
12/19/2014  08:16:00     -113.215      -73.158      -11.809       26.456       23.556       17.384      699.912      554.882      302.193        0.993        0.078      134.795       10.120        0.006      335.580        6.310      861.316
12/19/2014  08:17:00      -86.102      -39.982       -8.538       19.785       17.527       12.705      391.453      307.209      161.416        0.497        0.043       94.932       10.906        0.013      335.557        6.269      861.312
12/19/2014  08:18:00      -70.629      -15.774       -4.609       10.899       13.465        8.064      118.798      181.312       65.026        0.281        0.018       72.369        3.855        0.003      335.597        6.337      861.274
12/19/2014  08:19:00      -26.547      -11.848       -0.523       36.825       25.848       13.204     1356.100      668.136      174.344        0.152        0.110       29.071       14.107        0.235      335.774        6.632      861.247
12/19/2014  08:20:00       12.140       26.841        5.465       14.652       25.879       16.081      214.693      669.720      258.600        0.102        0.057       29.458       13.754        0.218      335.815        6.701      861.247
12/19/2014  08:21:00        5.756       33.445       -2.930       13.564       34.562       18.398      183.979     1194.544      338.486        0.144        0.086       33.937       20.399        0.361      335.819        6.707      861.268
12/19/2014  08:22:00       -8.991       21.975       -8.382       11.024        9.804        7.919      121.529       96.123       62.713        0.046        0.014       23.743        4.024        0.029      335.869        6.790      861.271
12/19/2014  08:23:00        2.879       18.277       -0.333        7.963       13.298       11.163       63.413      176.825      124.614        0.035        0.018       18.502        9.595        0.269      336.039        7.072      861.281
12/19/2014  08:24:00       -2.782      -11.085       -1.176       14.388       12.508        7.149      207.004      156.444       51.102        0.027        0.021       11.428        4.852        0.180      336.013        7.031      861.288
12/19/2014  08:25:00      -73.092      -29.273       -5.736       18.754        8.576       10.538      351.727       73.541      111.043        0.338        0.027       78.736        5.163        0.004      335.769        6.626      861.289
12/19/2014  08:26:00      -92.450      -32.584       -9.780       17.209       16.811       11.111      296.140      282.610      123.463        0.520        0.035       98.024        5.107        0.003      335.773        6.631      861.295
12/19/2014  08:27:00      -87.592      -43.365       -2.130       26.018       25.151       18.792      676.919      632.579      353.137        0.561        0.083       97.739       15.725        0.026      335.766        6.618      861.313
12/19/2014  08:28:00     -111.505      -45.414       -3.416       30.419       26.601       15.357      925.345      707.609      235.823        0.819        0.093      120.398       13.145        0.012      335.859        6.774      861.316
12/19/2014  08:29:00     -125.241      -50.173      -10.013       33.500       22.624       15.351     1122.233      511.849      235.663        1.009        0.093      134.917       17.452        0.017      335.890        6.824      861.322
12/19/2014  08:30:00     -107.076      -22.051       -6.118       29.615       33.231       17.063      877.067     1104.277      291.147        0.713        0.114      109.323       14.958        0.019      335.929        6.889      861.338
12/19/2014  08:31:00      -98.914        0.721      -11.375       22.491       30.903       15.109      505.842      955.025      228.295        0.580        0.084       98.917       10.771        0.012      336.202        7.346      861.331
12/19/2014  08:32:00      -71.558       34.807       -5.003       32.726       18.824       18.355     1070.983      354.326      336.915        0.406        0.088       79.575       14.807        0.035      336.198        7.339      861.306
12/19/2014  08:33:00      -83.842       61.172       -3.832       35.332       35.567       24.614     1248.343     1265.006      605.836        0.695        0.156      103.786       21.374        0.042      336.408        7.690      861.280
12/19/2014  08:34:00     -124.256       73.002      -16.550       41.919       44.585       34.669     1757.186     1987.803     1201.907        1.299        0.247      144.114       34.046        0.056      336.475        7.802      861.298
12/19/2014  08:35:00     -105.638       -4.512      -10.025       37.504       42.324       21.713     1406.543     1791.345      471.442        0.747        0.183      105.735       19.981        0.036      336.393        7.664      861.333
12/19/2014  08:36:00      -85.095        2.145       -8.986       31.591       37.463       28.558      998.001     1403.444      815.583        0.527        0.161       85.122       23.434        0.076      336.428        7.725      861.345
12/19/2014  08:37:00      -90.931       18.014       -6.475       51.196       38.437       18.232     2621.012     1477.414      332.403        0.653        0.222       92.698       21.663        0.055      336.495        7.835      861.341
12/19/2014  08:38:00      -94.549      -44.616       -9.096       28.903       36.379       17.238      835.360     1323.432      297.164        0.673        0.123      104.547       19.461        0.035      336.394        7.666      861.365
12/19/2014  08:39:00      -80.676      -45.626       -4.281       29.511       26.069       17.350      870.870      679.578      301.017        0.523        0.093       92.684       15.615        0.028      336.319        7.542      861.409
12/19/2014  08:40:00      -41.624      -18.550       -2.430       25.299       30.232       15.706      640.019      913.949      246.684        0.194        0.090       45.571       14.195        0.097      336.451        7.761      861.426
12/19/2014  08:41:00      -98.963       30.466       -9.436       39.812       25.334       21.416     1585.026      641.801      458.649        0.675        0.134      103.546       20.967        0.041      336.655        8.105      861.446
12/19/2014  08:42:00     -105.931       54.547      -14.740       34.911       26.504       20.379     1218.803      702.483      415.314        0.837        0.117      119.150       17.441        0.021      336.724        8.218      861.453
12/19/2014  08:43:00      -69.243       71.984      -14.038       41.839       32.108       21.514     1750.544     1030.939      462.867        0.671        0.162       99.881       26.194        0.069      336.813        8.365      861.477
12/19/2014  08:44:00       -4.771       43.880        1.448       24.010       39.605       16.935      576.464     1568.528      286.800        0.219        0.122       44.138       13.196        0.089      336.889        8.494      861.525
12/19/2014  08:45:00      -33.684      -21.158        1.222       30.873       21.437       12.245      953.148      459.537      149.935        0.157        0.078       39.778       13.840        0.121      336.929        8.559      861.581
12/19/2014  08:46:00      -29.772      -19.236        2.843       20.512       18.999       12.447      420.760      360.959      154.924        0.110        0.047       35.446       11.608        0.107      337.054        8.770      861.601
12/19/2014  08:47:00        4.638       -0.679       13.268       16.640       13.231       15.899      276.904      175.052      252.778        0.045        0.035        4.687       15.145       10.441      336.944        8.585      861.596
12/19/2014  08:48:00       15.607      -30.976       -0.327       13.744       16.641        7.411      188.891      276.937       54.923        0.086        0.026       34.685        5.655        0.027      336.874        8.469      861.607
12/19/2014  08:49:00       17.671      -64.012      -14.154       17.126       28.104       15.753      293.303      789.838      248.171        0.297        0.067       66.406        8.130        0.015      336.886        8.488      861.677
12/19/2014  08:50:00        8.115       11.322       57.434       18.585       29.316       22.558      345.408      859.426      508.885        0.260        0.086       13.930       21.269        2.331      336.960        8.611      861.713
12/19/2014  08:51:00       75.881       95.943       98.502      110.497       71.749       50.869    12209.642     5147.934     2587.689        2.230        0.997      122.323       35.468        0.084      336.503        7.849      861.704
12/19/2014  08:52:00      105.030       63.521       96.817       63.893       92.563       54.532     4082.285     8567.953     2973.735        2.003        0.781      122.744       58.543        0.227      336.077        7.135      861.689
12/19/2014  08:53:00       86.061       91.123       83.750       61.894       35.439       35.576     3830.867     1255.919     1265.652        1.454        0.318      125.339       14.390        0.013      336.110        7.191      861.750
12/19/2014  08:54:00       18.637       16.406       37.046       36.338       52.729       28.488     1320.470     2780.344      811.588        0.345        0.246       24.829       34.686        1.951      336.245        7.418      861.822
12/19/2014  08:55:00       73.139      -42.050       -2.979       29.831       33.264       23.863      889.861     1106.469      569.435        0.485        0.128       84.365       18.066        0.046      336.268        7.454      861.875
12/19/2014  08:56:00       41.540       -4.660       35.827       40.127       68.990       39.213     1610.196     4759.621     1537.630        0.547        0.395       41.800       49.113        1.380      336.326        7.554      861.874
12/19/2014  08:57:00       91.867      108.234       85.849       73.457       65.042       63.377     5395.990     4230.512     4016.661        2.058        0.682      141.965       49.244        0.120      336.159        7.272      861.845
12/19/2014  08:58:00      143.249       51.950       37.790       68.893       45.540       47.934     4746.236     2073.857     2297.651        1.688        0.456      152.378       32.905        0.047      335.865        6.782      861.819
12/19/2014  08:59:00       96.343       51.063       30.431       40.809       28.500       35.031     1665.383      812.253     1227.192        0.826        0.185      109.038       23.033        0.045      335.880        6.807      861.840
12/19/2014  09:00:00       94.576       75.089       14.989       36.845       26.295       27.151     1357.524      691.413      737.179        0.880        0.139      120.760       15.519        0.017      335.825        6.717      861.870
12/19/2014  09:01:00       85.663       36.373       12.110       50.784       37.784       25.312     2579.022     1427.620      640.711        0.673        0.232       93.065       21.226        0.052      335.805        6.685      861.898
12/19/2014  09:02:00       51.412       34.419       15.615       31.395       25.707       25.362      985.630      660.842      643.255        0.318        0.114       61.870       19.327        0.098      335.855        6.766      861.906
12/19/2014  09:03:00      110.159       62.464       12.858       43.274       28.956       20.953     1872.676      838.466      439.042        0.968        0.158      126.636       16.731        0.017      335.834        6.731      861.904
12/19/2014  09:04:00      110.476       67.310       24.377       48.423       28.534       34.865     2344.797      814.200     1215.594        1.085        0.219      129.366       23.412        0.033      335.942        6.912      861.872
12/19/2014  09:05:00       95.767       46.318       27.391       41.147       34.406       34.472     1693.107     1183.796     1188.290        0.807        0.203      106.380       26.504        0.062      335.989        6.992      861.893
12/19/2014  09:06:00      118.472       79.557       10.776       27.637       32.508       24.420      763.790     1056.797      596.346        1.145        0.121      142.706       16.709        0.014      335.910        6.858      861.933
12/19/2014  09:07:00       65.777       47.713        8.879       37.707       20.707       18.605     1421.840      428.761      346.138        0.444        0.110       81.260       10.207        0.016      335.964        6.947      861.955
12/19/2014  09:08:00       58.568       55.860       33.125       27.161       18.426       23.383      737.741      339.517      546.746        0.464        0.081       80.935        7.041        0.008      336.058        7.104      861.977
12/19/2014  09:09:00       21.633       19.054       16.858       20.591       21.254       23.419      424.000      451.726      548.460        0.127        0.071       28.828       11.699        0.165      336.139        7.241      861.981
12/19/2014  09:10:00        5.887        1.895       17.312       19.509       27.339       22.607      380.619      747.447      511.083        0.099        0.082        6.185       18.620        9.064      336.226        7.385      862.001
12/19/2014  09:11:00       28.487        5.519       34.730       22.249       22.580       15.613      495.005      509.846      243.751        0.165        0.062       29.017       13.337        0.211      336.194        7.331      861.984
12/19/2014  09:12:00       51.489       67.777       65.350       39.979       32.722       31.850     1598.286     1070.758     1014.438        0.760        0.184       85.117       28.249        0.110      336.175        7.300      861.940
12/19/2014  09:13:00       81.345       44.158       21.253       46.211       39.159       25.064     2135.430     1533.463      628.224        0.666        0.215       92.558       21.121        0.052      336.163        7.280      861.927
12/19/2014  09:14:00       88.851       65.985       28.267       34.688       34.522       29.250     1203.282     1191.785      855.557        0.815        0.163      110.673       16.682        0.023      336.157        7.269      861.933
12/19/2014  09:15:00       71.408       25.922       24.436       35.195       30.833       31.457     1238.719      950.652      989.556        0.477        0.159       75.967       17.952        0.056      336.239        7.406      861.952
12/19/2014  09:16:00       13.790        4.917       39.570       21.098       28.019       20.575      445.130      785.072      423.341        0.172        0.083       14.640       12.416        0.719      336.491        7.829      861.984
12/19/2014  09:17:00       27.689        0.538       32.523       32.750       32.654       28.032     1072.564     1066.309      785.815        0.237        0.146       27.694       27.883        1.014      336.538        7.909      862.001
12/19/2014  09:18:00       34.249       27.197       57.237       33.624       60.515       35.116     1130.605     3662.103     1233.123        0.561        0.301       43.734       37.605        0.739      336.508        7.856      861.964
12/19/2014  09:19:00       63.221       66.400       34.048       49.620       26.992       26.114     2462.124      728.541      681.917        0.672        0.194       91.683       15.514        0.029      336.463        7.783      861.887
12/19/2014  09:20:00       68.820       45.797        1.879       35.703       29.235       27.195     1274.699      854.700      739.574        0.485        0.143       82.665       17.633        0.046      336.555        7.936      861.854
12/19/2014  09:21:00        5.290       71.875       -6.365       24.487       46.480       23.892      599.625     2160.350      570.826        0.428        0.167       72.070       28.824        0.160      336.640        8.079      861.891
12/19/2014  09:22:00       16.258       51.399        3.650       57.302       34.290       28.485     3283.507     1175.837      811.369        0.409        0.264       53.909        9.973        0.034      336.743        8.250      861.943
12/19/2014  09:23:00      -38.647       71.342      -10.499       34.373       38.575       25.630     1181.491     1488.002      656.884        0.501        0.166       81.138       21.284        0.069      336.872        8.466      862.008
12/19/2014  09:24:00        2.773       49.200        1.867       20.157       36.029       21.661      406.299     1298.068      469.197        0.230        0.109       49.278       14.451        0.086      336.844        8.419      862.048
12/19/2014  09:25:00       20.233       32.162       22.615       23.188       23.658       29.193      537.688      559.699      852.204        0.195        0.097       37.997       21.108        0.309      336.820        8.378      862.049
12/19/2014  09:26:00       34.703       12.339       42.064       37.520       30.752       20.746     1407.726      945.670      430.387        0.295        0.139       36.832       20.313        0.304      336.981        8.647      862.053
12/19/2014  09:27:00       92.662       19.914       32.354       42.369       29.217       29.370     1795.124      853.607      862.592        0.677        0.176       94.778       21.314        0.051      336.779        8.311      862.027
12/19/2014  09:28:00       76.237       23.903       19.189       37.106       34.478       26.362     1376.880     1188.729      694.978        0.501        0.163       79.897       11.669        0.021      336.874        8.469      862.010
12/19/2014  09:29:00       57.748       40.212        4.257       44.350       37.005       33.136     1966.908     1369.397     1098.020        0.470        0.222       70.369       22.575        0.103      336.949        8.592      862.013
12/19/2014  09:30:00       77.844       56.639       40.013       31.491       32.861       31.376      991.654     1079.854      984.436        0.696        0.153       96.269       19.485        0.041      336.994        8.670      862.068
12/19/2014  09:31:00       52.187       38.233        7.233       18.980       31.367       18.440      360.239      983.909      340.021        0.296        0.084       64.694       14.218        0.048      336.925        8.554      862.121
12/19/2014  09:32:00       -0.657      -11.325        9.780       33.932       46.098       22.131     1151.402     2125.026      489.780        0.199        0.188       11.344       22.879        4.067      337.183        8.985      862.156
12/19/2014  09:33:00       18.567       11.493       37.542       29.631       40.408       31.727      878.026     1632.799     1006.586        0.270        0.176       21.836       28.946        1.757      337.375        9.306      862.173
12/19/2014  09:34:00       36.362       54.580       49.188       47.162       43.611       35.845     2224.209     1901.922     1284.829        0.606        0.271       65.584       25.973        0.157      337.389        9.329      862.135
12/19/2014  09:35:00      113.153       73.345       49.733       32.995       25.766       33.738     1088.666      663.901     1138.280        1.177        0.145      134.845       24.706        0.034      337.094        8.836      862.078
12/19/2014  09:36:00      117.236       78.648        9.924       44.598       30.326       42.172     1989.021      919.691     1778.511        1.236        0.234      141.173       24.776        0.031      337.132        8.899      862.012
12/19/2014  09:37:00      112.837       51.778        2.358       49.447       29.510       23.795     2445.054      870.843      566.205        0.965        0.194      124.150       13.851        0.012      337.170        8.963      862.005
12/19/2014  09:38:00       55.147       24.294        7.173       19.454       24.572       24.917      378.472      603.760      620.835        0.264        0.080       60.261        4.956        0.007      337.248        9.095      862.053
12/19/2014  09:39:00      -12.331       -5.677        5.911       18.130       29.228       18.708      328.691      854.298      350.007        0.088        0.077       13.575        7.849        0.334      337.335        9.240      862.125
12/19/2014  09:40:00      -16.174        8.960       -3.892       16.305       22.447       15.001      265.864      503.857      225.042        0.068        0.050       18.490        9.369        0.257      337.375        9.308      862.133
12/19/2014  09:41:00        7.701       26.873       30.191       33.361       29.153       25.384     1112.986      849.921      644.355        0.215        0.130       27.954       26.099        0.872      337.452        9.435      862.085
12/19/2014  09:42:00       13.190       38.167       52.948       30.567       32.893       26.566      934.322     1081.938      705.773        0.358        0.136       40.382       26.720        0.438      337.507        9.526      862.049
12/19/2014  09:43:00       53.453       32.494       30.784       57.262       37.395       33.336     3278.950     1398.410     1111.270        0.532        0.289       62.555       35.403        0.320      337.378        9.312      862.057
12/19/2014  09:44:00       51.490       34.413       36.949       33.530       33.251       26.788     1124.260     1105.641      717.601        0.407        0.147       61.931       21.655        0.122      337.366        9.291      862.096
12/19/2014  09:45:00      146.701       84.224       37.537       67.751       43.472       45.347     4590.204     1889.815     2056.326        1.928        0.427      169.159       40.285        0.057      337.254        9.102      862.154
12/19/2014  09:46:00      160.265       93.775       23.386       76.607       52.273       62.259     5868.630     2732.455     3876.162        2.375        0.624      185.684       49.962        0.072      337.189        8.994      862.171
12/19/2014  09:47:00      166.017      106.579       16.426       49.323       33.461       33.899     2432.713     1119.642     1149.110        2.195        0.235      197.283       22.007        0.012      337.172        8.965      862.176
12/19/2014  09:48:00      137.462       69.037       23.015       46.223       53.199       35.363     2136.584     2830.087     1250.540        1.520        0.311      153.824       29.143        0.036      337.229        9.062      862.187
12/19/2014  09:49:00      105.665       27.458       16.540       52.010       38.322       37.558     2705.068     1468.610     1410.576        0.889        0.279      109.175       21.377        0.038      337.328        9.227      862.204
12/19/2014  09:50:00      106.205       57.770       17.953       46.997       52.229       39.640     2208.722     2727.836     1571.353        1.072        0.325      120.901       30.999        0.066      337.284        9.155      862.231
12/19/2014  09:51:00       85.881       75.333       41.053       67.689       37.469       54.170     4581.738     1403.905     2934.411        1.183        0.446      114.239       51.731        0.205      337.346        9.258      862.212
12/19/2014  09:52:00      102.315       54.355       38.263       56.893       53.219       45.182     3236.819     2832.209     2041.386        1.150        0.406      115.857       32.148        0.077      337.386        9.325      862.196
12/19/2014  09:53:00      118.199       71.064        7.720       60.165       32.013       32.036     3619.812     1024.835     1026.324        1.237        0.284      137.917       11.316        0.007      337.302        9.185      862.184
12/19/2014  09:54:00       84.624       86.868       30.030       59.445       30.936       36.010     3533.724      957.018     1296.711        1.070        0.289      121.273       21.611        0.032      337.360        9.281      862.210
12/19/2014  09:55:00       78.057       51.247       43.166       43.807       41.818       37.530     1919.035     1748.722     1408.473        0.783        0.254       93.377       20.026        0.046      337.372        9.300      862.232
12/19/2014  09:56:00       59.251       34.599       61.202       55.136       60.328       48.064     3039.993     3639.452     2310.150        0.872        0.449       68.614       36.887        0.289      337.325        9.225      862.258
12/19/2014  09:57:00       85.474      -19.262       41.488       54.990       65.573       42.699     3023.919     4299.844     1823.165        0.927        0.457       87.618       36.065        0.169      337.370        9.297      862.249
12/19/2014  09:58:00       51.931       52.195       69.893       52.695       42.156       39.380     2776.810     1777.087     1550.769        0.820        0.305       73.628       41.009        0.310      337.366        9.290      862.222
12/19/2014  09:59:00       74.331      109.259       89.091       60.509       61.119       46.751     3661.313     3735.541     2185.661        1.749        0.479      132.146       38.434        0.085      337.185        8.987      862.199
12/19/2014  10:00:00       85.187       76.070       74.794       59.350       48.260       45.886     3522.453     2329.063     2105.519        1.330        0.398      114.208       34.138        0.089      337.079        8.811      862.215
12/19/2014  10:01:00       68.272       70.779       64.172       43.084       43.569       39.091     1856.188     1898.253     1528.118        0.953        0.264       98.340       15.844        0.026      336.993        8.666      862.268
12/19/2014  10:02:00       36.624       -6.127       19.429       45.230       61.669       27.673     2045.720     3803.114      765.811        0.418        0.331       37.133       31.054        0.699      337.157        8.942      862.323
12/19/2014  10:03:00       97.467     -112.626      -25.934       31.784       35.786       18.712     1010.207     1280.632      350.156        1.275        0.132      148.944       10.759        0.005      337.064        8.786      862.368
12/19/2014  10:04:00        1.344      -42.938       35.198       30.112       50.689       33.114      906.708     2569.407     1096.553        0.383        0.229       42.959       20.288        0.223      337.216        9.040      862.394
12/19/2014  10:05:00       45.634      -84.377        3.517       56.571       79.631       42.766     3200.307     6341.077     1828.908        1.029        0.569       95.927       47.300        0.243      337.218        9.044      862.395
12/19/2014  10:06:00      -29.642      -41.477       18.957       47.299       46.227       38.926     2237.215     2136.911     1515.242        0.442        0.294       50.980       31.383        0.379      337.268        9.128      862.392
12/19/2014  10:07:00      -27.768      -18.917        3.125       23.550       21.016       14.632      554.621      441.672      214.089        0.117        0.061       33.600       10.520        0.098      337.279        9.146      862.393
12/19/2014  10:08:00      -22.060      -15.990       13.432       28.298       32.970       24.252      800.798     1087.050      588.171        0.170        0.124       27.246       19.201        0.497      337.246        9.091      862.386
12/19/2014  10:09:00       12.421      -22.256       32.775       26.292       41.836       26.062      691.254     1750.262      679.208        0.242        0.156       25.488       25.919        1.034      337.196        9.006      862.384
12/19/2014  10:10:00      -14.101        5.624       33.498       16.115       19.036       16.025      259.692      362.363      256.808        0.112        0.044       15.182        7.884        0.270      337.270        9.130      862.390
12/19/2014  10:11:00       26.612      -52.166       -4.970       24.310       44.048       23.300      590.968     1940.217      542.896        0.326        0.154       58.562       17.405        0.088      337.089        8.827      862.404
12/19/2014  10:12:00       34.686      -40.661       -0.978       23.997       21.680       17.087      575.870      470.040      291.958        0.210        0.067       53.446        9.887        0.034      337.154        8.935      862.407
12/19/2014  10:13:00      -12.716        1.033        9.809       15.229       16.018       12.159      231.932      256.580      147.853        0.045        0.032       12.758        5.306        0.173      337.182        8.985      862.403
12/19/2014  10:14:00      -39.188       34.643      -11.797       27.297       24.348       13.387      745.101      592.844      179.222        0.220        0.076       52.305       11.411        0.048      337.300        9.181      862.388
12/19/2014  10:15:00       -6.723       10.974        2.352       28.439       33.196       13.324      808.794     1102.001      177.537        0.113        0.104       12.870       10.465        0.661      337.494        9.508      862.367
12/19/2014  10:16:00       -3.436        6.795        9.263       12.646        8.818       11.156      159.911       77.756      124.463        0.025        0.018        7.615        5.476        0.517      337.353        9.271      862.347
12/19/2014  10:17:00       26.040       27.846       31.669       19.402       22.821       16.225      376.447      520.802      263.260        0.181        0.058       38.125       14.819        0.151      337.259        9.113      862.342
12/19/2014  10:18:00       30.065       11.198        5.621       16.810       18.854       16.359      282.592      355.467      267.620        0.098        0.045       32.083       12.993        0.164      337.166        8.954      862.323
12/19/2014  10:19:00       48.140       59.899       46.875       39.675       26.750       21.575     1574.106      715.547      465.467        0.543        0.138       76.847       19.288        0.063      337.222        9.050      862.298
12/19/2014  10:20:00      104.200       77.172       35.235       24.947       25.250       24.874      622.334      637.584      618.717        0.997        0.094      129.665       19.874        0.023      337.157        8.942      862.303
12/19/2014  10:21:00      119.737       86.247       32.177       41.366       28.664       36.395     1711.172      821.596     1324.575        1.333        0.193      147.565       28.028        0.036      337.158        8.943      862.301
12/19/2014  10:22:00       76.489       63.831       39.224       43.741       36.994       23.565     1913.251     1368.571      555.321        0.765        0.192       99.624        9.168        0.008      337.208        9.028      862.290
12/19/2014  10:23:00      -13.622       23.429       13.170       24.950       35.875       24.083      622.501     1287.013      580.014        0.170        0.124       27.101       17.072        0.397      337.456        9.441      862.322
12/19/2014  10:24:00       45.341       46.843       15.711       28.958       22.773       19.096      838.558      518.608      364.655        0.311        0.086       65.192       10.252        0.025      337.226        9.058      862.322
12/19/2014  10:25:00      -81.591       31.555        0.738       62.082       31.821       33.998     3854.121     1012.554     1155.881        0.684        0.301       87.480       23.573        0.073      337.272        9.135      862.307
12/19/2014  10:26:00       46.697       39.254       13.061       34.442       27.611       36.588     1186.225      762.379     1338.689        0.359        0.164       61.005       11.558        0.036      337.258        9.112      862.247
12/19/2014  10:27:00       -4.969      101.990      -11.084       47.047       33.971       29.990     2213.456     1153.998      899.395        0.741        0.213      102.111       23.340        0.052      337.270        9.131      862.243
12/19/2014  10:28:00      -66.276      160.762      -25.196       71.895       93.617       44.920     5168.901     8764.087     2017.799        2.341        0.798      173.888       49.667        0.082      337.318        9.208      862.268
12/19/2014  10:29:00      -23.738       91.825      -15.521       52.987      137.092       33.277     2807.650    18794.306     1107.378        1.597        1.135       94.844       32.257        0.116      337.386        9.325      862.282
12/19/2014  10:30:00      -79.766       -0.126        9.712      169.612       48.319       42.218    28768.383     2334.744     1782.352        1.966        1.644       79.766       62.403        0.612      337.360        9.280      862.277
12/19/2014  10:31:00     -205.822     -102.110       -5.425      120.419      108.390       60.950    14500.692    11748.318     3714.956        4.139        1.498      229.759       52.917        0.053      337.121        8.878      862.243
12/19/2014  10:32:00     -251.293      -69.490      -35.461       80.584       96.545       52.712     6493.778     9320.980     2778.567        4.391        0.930      260.724       45.545        0.031      337.085        8.815      862.269
12/19/2014  10:33:00     -211.830      -55.791      -10.415       69.678       66.965       38.935     4855.020     4484.251     1515.906        2.947        0.543      219.054       28.611        0.017      337.131        8.894      862.372
12/19/2014  10:34:00     -136.364      -93.853        3.659      112.646       59.560       38.925    12689.181     3547.397     1515.189        2.258        0.888      165.540       47.916        0.084      337.182        8.981      862.441
12/19/2014  10:35:00     -153.433      -40.556       -0.735       69.677       97.854       49.032     4854.851     9575.345     2404.166        2.101        0.842      158.703       42.732        0.072      337.190        8.996      862.420
12/19/2014  10:36:00     -236.417       99.035      -34.653       76.323       81.725       39.914     5825.206     6679.024     1593.109        4.050        0.705      256.321       29.094        0.013      337.042        8.746      862.242
12/19/2014  10:37:00      -79.314      118.220       -6.600       67.536      117.468       52.130     4561.159    13798.698     2717.525        2.069        1.054      142.361       42.447        0.089      337.081        8.812      862.142
12/19/2014  10:38:00     -236.623      -21.544      -18.994      100.598       85.238       49.952    10119.968     7265.568     2495.180        3.834        0.994      237.601       55.472        0.055      337.001        8.676      862.242
12/19/2014  10:39:00     -244.892      -74.483       -5.319      135.576       72.801       58.526    18380.974     5299.928     3425.313        4.632        1.355      255.969       66.060        0.067      337.025        8.719      862.422
12/19/2014  10:40:00     -276.047     -117.793        1.660      204.285      129.710       78.991    41732.416    16824.658     6239.614        7.743        3.240      300.128       91.563        0.093      336.998        8.671      862.449
12/19/2014  10:41:00     -210.746     -102.650      -15.952      119.319      104.095       62.497    14236.911    10835.696     3905.869        4.209        1.449      234.416       70.926        0.092      336.912        8.527      862.325
12/19/2014  10:42:00     -180.604      -67.639        2.222       82.279       59.820       39.994     6769.793     3578.376     1599.515        2.457        0.597      192.854       41.004        0.045      336.873        8.464      862.231
12/19/2014  10:43:00     -111.935     -127.903        5.720      112.353       81.519       65.623    12623.179     6645.361     4306.388        2.624        1.179      169.967       75.186        0.196      336.924        8.548      862.286
12/19/2014  10:44:00     -208.057     -180.509       -1.759      152.514      141.701       84.749    23260.540    20079.157     7182.409        6.319        2.526      275.447       90.030        0.107      336.946        8.586      862.392
12/19/2014  10:45:00     -100.463     -122.521        3.985      105.538       68.550       44.379    11138.362     4699.104     1969.529        2.146        0.890      158.443       28.898        0.033      336.991        8.661      862.446
12/19/2014  10:46:00     -257.108      -51.979       -1.978      122.870      111.631       65.037    15096.989    12461.498     4229.778        5.029        1.589      262.310       66.137        0.064      336.841        8.410      862.354
12/19/2014  10:47:00     -143.565      -33.672       -3.224      110.065       89.290       58.065    12114.348     7972.679     3371.543        2.260        1.173      147.461       59.392        0.162      336.908        8.524      862.326
12/19/2014  10:48:00     -159.830     -128.214       -2.587      143.644      102.796       66.058    20633.497    10567.096     4363.629        3.877        1.778      204.901       80.170        0.153      336.758        8.272      862.377
12/19/2014  10:49:00     -214.114     -139.609        4.891      122.156       85.145       50.746    14922.006     7249.680     2575.147        4.505        1.237      255.608       54.394        0.045      336.792        8.329      862.423
12/19/2014  10:50:00     -168.665     -149.384       -4.806      118.462      110.630       54.582    14033.145    12238.899     2979.182        4.001        1.463      225.307       56.258        0.062      336.794        8.332      862.447
12/19/2014  10:51:00     -152.629     -208.999        7.660      144.833      115.886       69.127    20976.454    13429.604     4778.524        5.310        1.959      258.798       60.210        0.054      336.677        8.137      862.445
12/19/2014  10:52:00     -192.238     -181.368      -10.305      113.529       99.363       55.966    12888.765     9873.104     3132.195        4.792        1.295      264.291       56.498        0.046      336.721        8.212      862.427
12/19/2014  10:53:00     -189.644     -114.703        3.325      100.908       68.776       53.678    10182.418     4730.188     2881.366        3.346        0.890      221.634       42.595        0.037      336.744        8.249      862.427
12/19/2014  10:54:00     -205.969     -103.822       -5.607      111.390       84.322       44.165    12407.750     7110.267     1950.587        3.735        1.073      230.656       46.332        0.040      336.728        8.223      862.411
12/19/2014  10:55:00     -102.538      -30.014       -6.712       38.278       48.888       32.265     1465.209     2390.018     1041.054        0.818        0.245      106.840       29.173        0.075      336.816        8.373      862.375
12/19/2014  10:56:00     -120.721      -63.829       -8.956       54.077       32.529       25.889     2924.273     1058.104      670.246        1.169        0.233      136.556       19.817        0.021      336.738        8.242      862.343
12/19/2014  10:57:00     -100.714      -77.522        2.229       95.517       53.173       42.685     9123.527     2827.401     1821.984        1.496        0.689      127.094       42.193        0.110      336.827        8.388      862.349
12/19/2014  10:58:00     -204.749     -109.358       -1.342       92.236       74.292       44.144     8507.503     5519.260     1948.732        3.493        0.799      232.124       46.583        0.040      336.829        8.388      862.428
12/19/2014  10:59:00     -156.526      -83.285       -2.534      104.492       87.300       53.768    10918.479     7621.240     2891.001        2.643        1.072      177.304       55.813        0.099      336.876        8.470      862.441
12/19/2014  11:00:00     -211.802      -94.904       -2.544      102.058       82.457       53.665    10415.825     6799.227     2879.977        3.698        1.005      232.092       56.288        0.059      336.893        8.496      862.417
12/19/2014  11:01:00     -251.974     -147.790      -25.037       88.437       80.084       47.890     7821.025     6413.467     2293.465        5.124        0.826      292.118       46.036        0.025      336.884        8.479      862.370
12/19/2014  11:02:00     -150.491     -101.082      -12.809       79.723      107.795       46.606     6355.788    11619.747     2172.147        2.658        1.007      181.287       40.607        0.050      336.903        8.515      862.379
12/19/2014  11:03:00     -262.496     -155.759       -5.001      124.015      119.287       61.626    15379.659    14229.499     3797.749        6.329        1.670      305.229       54.744        0.032      336.926        8.551      862.429
12/19/2014  11:04:00     -247.164     -165.670      -16.505      110.260       98.268       61.189    12157.166     9656.628     3744.068        5.718        1.278      297.551       62.784        0.045      336.937        8.571      862.487
12/19/2014  11:05:00     -215.881     -155.258       -8.026      116.253       72.578       47.082    13514.735     5267.589     2216.741        4.588        1.050      265.913       53.330        0.040      336.901        8.510      862.521
12/19/2014  11:06:00      -59.725      -76.221        5.903       96.165       70.173       44.747     9247.730     4924.305     2002.274        1.279        0.809       96.833       47.684        0.242      336.935        8.567      862.478
12/19/2014  11:07:00     -198.935     -152.860       -4.682      169.800       81.849       61.758    28832.158     6699.304     3814.076        5.115        1.967      250.881       75.850        0.091      336.900        8.510      862.459
12/19/2014  11:08:00     -197.669      -35.696      -18.388      103.052      103.930       57.806    10619.715    10801.370     3341.502        3.272        1.238      200.866       53.706        0.071      336.907        8.519      862.479
12/19/2014  11:09:00     -236.167     -141.785       -3.547      136.416       96.579       66.589    18609.312     9327.497     4434.032        5.412        1.619      275.459       71.685        0.068      336.874        8.464      862.487
12/19/2014  11:10:00     -227.139     -151.590        4.783      190.315      118.122       77.194    36219.816    13952.738     5958.920        6.535        2.807      273.078       85.894        0.099      336.793        8.329      862.501
12/19/2014  11:11:00     -229.731     -146.753       -1.963      172.046      146.479       81.306    29599.713    21456.204     6610.746        6.598        2.883      272.604       89.060        0.107      336.631        8.061      862.498
12/19/2014  11:12:00     -189.722      -55.691       -0.784      126.949      101.506       62.178    16116.118    10303.480     3866.136        3.468        1.514      197.727       61.731        0.097      336.626        8.054      862.504
12/19/2014  11:13:00     -272.192     -126.140       -9.272      156.108      114.794       66.016    24369.667    13177.719     4358.058        6.599        2.095      300.000       61.143        0.042      336.507        7.852      862.456
12/19/2014  11:14:00     -176.987      -89.893       13.550      119.230      107.438       62.771    14215.699    11542.867     3940.200        3.464        1.485      198.507       63.922        0.104      336.621        8.042      862.431
12/19/2014  11:15:00     -256.932     -145.062        1.509      120.659      126.634       60.119    14558.606    16036.176     3614.292        6.063        1.710      295.054       60.092        0.041      336.464        7.779      862.445
12/19/2014  11:16:00     -175.251      -87.086       -4.755      126.788       97.565       52.910    16075.253     9518.877     2799.491        3.335        1.420      195.696       62.650        0.102      336.443        7.743      862.488
12/19/2014  11:17:00     -160.831      -85.060        1.935      115.125      105.555       49.351    13253.663    11141.833     2435.537        2.996        1.342      181.939       49.055        0.073      336.409        7.688      862.511
12/19/2014  11:18:00     -172.298     -150.144       -7.411      124.993      111.569       64.574    15623.210    12447.696     4169.796        4.226        1.612      228.538       65.144        0.081      336.366        7.615      862.477
12/19/2014  11:19:00     -110.992      -64.362        8.544      116.056       96.755       61.033    13468.937     9361.485     3724.988        2.154        1.328      128.303       60.214        0.220      336.426        7.717      862.475
12/19/2014  11:20:00     -199.303     -112.548       -4.951      141.660      146.642       66.553    20067.584    21503.736     4429.325        4.920        2.300      228.886       68.263        0.089      336.352        7.593      862.483
12/19/2014  11:21:00     -123.541      -76.146        8.732      106.380      106.978       50.171    11316.628    11444.209     2517.108        2.320        1.264      145.123       56.961        0.154      336.328        7.554      862.459
12/19/2014  11:22:00     -286.519     -123.977      -14.894      151.419       86.781       57.806    22927.755     7531.008     3341.524        6.574        1.690      312.192       72.016        0.053      336.226        7.381      862.415
12/19/2014  11:23:00     -238.399      -50.176       -9.224       78.562       74.576       39.128     6171.994     5561.568     1531.021        3.635        0.663      243.622       38.142        0.025      336.202        7.343      862.375
12/19/2014  11:24:00     -285.774      -40.040      -23.632      122.144       85.571       51.726    14919.061     7322.437     2675.544        5.437        1.246      288.566       53.132        0.034      336.335        7.564      862.362
12/19/2014  11:25:00     -253.829      -94.183       -8.035      163.318      109.146       75.192    26672.676    11912.800     5653.878        5.879        2.212      270.738       71.158        0.069      336.276        7.464      862.410
12/19/2014  11:26:00     -200.951      -89.960       -6.654      130.910       90.561       57.148    17137.427     8201.371     3265.922        3.856        1.430      220.168       63.308        0.083      336.266        7.450      862.486
12/19/2014  11:27:00     -226.052     -100.643       -1.398      109.472      116.396       73.505    11984.092    13548.143     5403.053        4.608        1.547      247.444       70.579        0.081      336.223        7.377      862.466
12/19/2014  11:28:00     -290.245     -180.896       -5.278      125.268      120.936       60.191    15692.108    14625.597     3622.955        7.546        1.697      342.002       55.899        0.027      336.123        7.210      862.426
12/19/2014  11:29:00     -199.835     -122.711      -15.669       67.092       66.023       33.698     4501.358     4359.010     1135.556        3.261        0.500      234.504       29.186        0.015      336.166        7.282      862.453
12/19/2014  11:30:00     -161.834     -121.143       13.114       89.358       87.422       60.500     7984.860     7642.693     3660.275        3.016        0.964      202.153       58.118        0.083      336.187        7.316      862.475
12/19/2014  11:31:00     -150.007     -130.012        0.496       80.871       72.041       46.767     6540.106     5189.880     2187.151        2.666        0.696      198.507       44.869        0.051      336.217        7.368      862.462
12/19/2014  11:32:00      -85.446      -83.095        4.989       78.264       48.470       34.862     6125.189     2349.376     1215.392        1.196        0.484      119.189       39.404        0.109      336.236        7.402      862.426
12/19/2014  11:33:00     -122.659      -62.501       -0.519       50.333       50.660       24.055     2533.377     2566.416      578.655        1.231        0.284      137.665       22.189        0.026      336.279        7.474      862.390
12/19/2014  11:34:00     -234.693     -115.613       -4.299       82.604       74.860       37.945     6823.353     5603.946     1439.792        4.116        0.693      261.624       38.803        0.022      336.314        7.527      862.384
12/19/2014  11:35:00     -218.261      -86.423       -2.689       99.138       67.423       38.882     9828.308     4545.807     1511.841        3.550        0.794      234.748       44.365        0.036      336.296        7.498      862.424
12/19/2014  11:36:00     -109.886     -113.354        0.308      101.279       76.742       51.805    10257.499     5889.283     2683.728        2.187        0.942      157.874       52.064        0.109      336.331        7.558      862.467
12/19/2014  11:37:00     -156.207      -98.260        1.725       80.851       62.251       39.166     6536.930     3875.180     1534.008        2.300        0.597      184.542       39.823        0.047      336.292        7.494      862.471
12/19/2014  11:38:00     -246.407     -124.611        4.730      145.509       94.105       58.821    21172.851     8855.789     3459.894        5.487        1.674      276.124       74.820        0.073      336.291        7.490      862.446
12/19/2014  11:39:00      -57.038       -8.718        5.821       85.854       73.540       50.319     7370.975     5408.181     2531.981        0.933        0.766       57.701       44.919        0.606      336.405        7.684      862.410
12/19/2014  11:40:00     -234.318       -9.398      -10.704       88.085       76.581       49.723     7759.047     5864.664     2472.377        3.560        0.805      234.507       46.885        0.040      336.399        7.670      862.371
12/19/2014  11:41:00     -179.067      -43.435       -7.357       76.069       60.273       39.569     5786.566     3632.810     1565.739        2.249        0.549      184.260       39.490        0.046      336.335        7.564      862.372
12/19/2014  11:42:00     -121.519      -25.412        3.902       75.689       58.328       37.830     5728.810     3402.180     1431.121        1.299        0.528      124.148       37.797        0.093      336.417        7.703      862.411
12/19/2014  11:43:00     -190.157     -109.792       -2.779       78.900       87.044       40.962     6225.274     7576.617     1677.908        3.185        0.774      219.577       47.283        0.046      336.396        7.665      862.459
12/19/2014  11:44:00     -249.320     -144.858       -5.441       82.377       60.788       45.348     6786.045     3695.210     2056.438        4.785        0.627      288.347       43.690        0.023      336.370        7.621      862.503
12/19/2014  11:45:00     -181.093      -59.595       -8.785       89.001       69.824       41.287     7921.238     4875.448     1704.629        2.546        0.725      190.647       34.127        0.032      336.445        7.749      862.574
12/19/2014  11:46:00     -191.205      -79.298      -10.830       77.149       92.522       45.438     5951.981     8560.265     2064.651        2.977        0.829      206.997       41.231        0.040      336.408        7.686      862.616
12/19/2014  11:47:00     -156.654     -133.166        7.278      105.590       93.320       55.652    11149.326     8708.651     3097.184        3.264        1.148      205.606       59.395        0.083      336.364        7.613      862.615
12/19/2014  11:48:00     -184.610      -82.909       -9.394       67.870       70.225       30.718     4606.275     4931.516      943.584        2.576        0.524      202.373       25.977        0.016      336.358        7.604      862.573
12/19/2014  11:49:00     -128.505       -3.550       -6.922       79.515       58.645       35.501     6322.563     3439.244     1260.318        1.380        0.551      128.554       37.909        0.087      336.564        7.951      862.533
12/19/2014  11:50:00     -165.684      -98.787       -0.311      143.535       81.127       41.280    20602.361     6581.595     1704.065        3.304        1.444      192.899       44.560        0.053      336.457        7.769      862.522
12/19/2014  11:51:00     -167.080     -122.512        9.649      130.453       83.176       69.862    17017.963     6918.236     4880.669        3.591        1.441      207.184       69.496        0.113      336.398        7.670      862.542
12/19/2014  11:52:00     -227.598     -126.561       -0.006      147.012       89.070       60.399    21612.672     7933.493     3647.987        5.050        1.660      260.420       65.729        0.064      336.351        7.589      862.573
12/19/2014  11:53:00     -169.080      -92.042       -1.859       88.214       73.694       37.546     7781.777     5430.782     1409.734        2.584        0.731      192.509       28.235        0.022      336.373        7.628      862.596
12/19/2014  11:54:00     -189.776     -132.533       -6.585      106.978       62.784       44.943    11444.271     3941.820     2019.859        3.551        0.870      231.473       40.805        0.031      336.395        7.664      862.566
12/19/2014  11:55:00      -73.477      -50.598        4.290       76.030       65.865       36.592     5780.628     4338.197     1338.980        0.972        0.573       89.213       30.884        0.120      336.412        7.696      862.482
12/19/2014  11:56:00      -79.773       36.728       -6.026       96.141       90.223       44.470     9243.166     8140.211     1977.553        1.355        0.968       87.822       35.986        0.168      336.476        7.803      862.394
12/19/2014  11:57:00     -150.171      -34.866      -11.893       58.508       62.279       33.875     3423.209     3878.688     1147.500        1.618        0.422      154.165       28.121        0.033      336.605        8.016      862.392
12/19/2014  11:58:00     -217.171      -55.157       -5.148       96.876       66.591       36.568     9384.998     4434.323     1337.183        3.269        0.758      224.066       30.295        0.018      336.461        7.774      862.522
12/19/2014  11:59:00     -236.263     -155.565       -1.087      149.524       96.959       50.903    22357.465     9401.141     2591.087        5.718        1.717      282.880       62.245        0.048      336.403        7.677      862.653
12/19/2014  12:00:00     -246.961     -199.176       -9.247      105.136      133.524       66.785    11053.571    17828.733     4460.243        6.704        1.667      317.271       63.496        0.040      336.352        7.592      862.692
12/19/2014  12:01:00     -288.153     -167.785      -19.608      109.996       91.295       52.871    12099.155     8334.849     2795.349        6.739        1.161      333.442       50.036        0.023      336.351        7.591      862.641
12/19/2014  12:02:00     -161.106      -48.911       -4.182      120.244       91.727       39.950    14458.537     8413.754     1595.995        2.641        1.223      168.367       38.387        0.052      336.356        7.601      862.499
12/19/2014  12:03:00      -54.069      -49.582       -5.448       73.763       48.567       34.213     5440.972     2358.738     1170.553        0.719        0.449       73.361       38.020        0.269      336.434        7.733      862.441
12/19/2014  12:04:00     -130.754      -12.502       -1.490       67.611       61.639       35.142     4571.271     3799.412     1234.931        1.343        0.480      131.351       34.774        0.070      336.633        8.066      862.532
12/19/2014  12:05:00     -227.191     -138.693        2.818      126.976      101.545       57.293    16123.023    10311.470     3282.479        5.028        1.486      266.179       54.140        0.041      336.484        7.814      862.670
12/19/2014  12:06:00     -198.559     -154.693       -8.500      100.917       83.119       50.876    10184.304     6908.692     2588.336        4.155        0.984      251.705       36.221        0.021      336.492        7.826      862.747
12/19/2014  12:07:00     -159.002      -83.374        1.479       95.644       88.061       49.966     9147.849     7754.704     2496.565        2.581        0.970      179.535       38.896        0.047      336.433        7.728      862.706
12/19/2014  12:08:00      -97.386      -76.815       -1.210       69.413       55.210       31.321     4818.217     3048.145      981.026        1.211        0.442      124.035       37.576        0.092      336.402        7.679      862.612
12/19/2014  12:09:00     -217.617     -139.755      -18.884       68.059       69.310       36.019     4631.978     4803.837     1297.382        3.899        0.537      258.628       32.134        0.015      336.367        7.617      862.591
12/19/2014  12:10:00     -144.858      -59.807        5.644       99.688       63.051       43.094     9937.786     3975.436     1857.127        2.018        0.789      156.719       53.161        0.115      336.425        7.714      862.638
12/19/2014  12:11:00     -178.595      -66.802       -3.115       66.166       65.019       34.359     4377.883     4227.449     1180.562        2.308        0.489      190.679       39.849        0.044      336.474        7.796      862.704
12/19/2014  12:12:00     -169.599     -103.073       -7.006      154.583       97.130       53.290    23895.751     9434.209     2839.805        3.780        1.808      198.464       69.914        0.124      336.494        7.831      862.718
12/19/2014  12:13:00      -97.010       -6.734       18.500      164.029      104.408       72.648    26905.351    10900.952     5277.798        2.643        2.154       97.243       75.056        0.596      336.550        7.926      862.671
12/19/2014  12:14:00     -211.347     -111.690       -4.973      119.995      107.004       50.780    14398.855    11449.787     2578.576        4.279        1.421      239.044       57.434        0.058      336.432        7.725      862.665
12/19/2014  12:15:00     -259.537      -78.085      -20.422      123.242       76.344       61.100    15188.492     5828.394     3733.159        4.931        1.238      271.029       67.603        0.062      336.386        7.649      862.587
12/19/2014  12:16:00     -311.428      -43.798       -3.893      143.082      118.457       76.199    20472.390    14032.067     5806.216        6.961        2.016      314.493       72.922        0.054      336.436        7.732      862.592
12/19/2014  12:17:00     -329.806     -119.248       -3.791      155.044       90.340       61.009    24038.650     8161.230     3722.137        7.946        1.796      350.702       69.809        0.040      336.374        7.628      862.652
12/19/2014  12:18:00     -280.950      -89.492      -14.832      148.515      100.023       50.952    22056.696    10004.551     2596.078        6.090        1.733      294.858       63.663        0.047      336.371        7.623      862.665
12/19/2014  12:19:00     -161.974     -105.702        5.744      115.074       87.649       64.743    13242.010     7682.319     4191.627        3.127        1.256      193.413       68.802        0.127      336.396        7.666      862.651
12/19/2014  12:20:00     -129.851      -82.448       -1.853       98.141       88.865       45.937     9631.652     7896.994     2110.238        2.165        0.982      153.814       46.477        0.091      336.431        7.725      862.566
12/19/2014  12:21:00     -235.221     -168.187      -14.887       94.256      103.060       62.815     8884.112    10621.349     3945.743        5.364        1.173      289.164       54.868        0.036      336.388        7.651      862.558
12/19/2014  12:22:00     -264.251      -97.928       -0.755      197.173      109.168       65.347    38877.130    11917.707     4270.289        6.723        2.753      281.813       72.564        0.066      336.423        7.710      862.630
12/19/2014  12:23:00     -178.122      -73.161       -3.364      147.382       92.402       56.201    21721.519     8538.191     3158.568        3.525        1.671      192.562       47.975        0.062      336.483        7.811      862.634
12/19/2014  12:24:00     -288.652     -129.452       -2.471      136.920      167.803       67.189    18747.152    28157.838     4514.305        7.574        2.571      316.350       66.083        0.044      336.519        7.873      862.614
12/19/2014  12:25:00     -423.909     -102.079      -14.859      151.925      125.554       77.804    23081.070    15763.926     6053.467       11.761        2.245      436.027       81.115        0.035      336.435        7.731      862.597
12/19/2014  12:26:00     -211.229     -115.362       -9.526      136.659      135.748       58.312    18675.570    18427.594     3400.238        4.925        2.025      240.679       58.048        0.058      336.550        7.925      862.620
12/19/2014  12:27:00     -309.635     -140.366      -21.165      143.604      101.692       56.563    20622.155    10341.189     3199.415        7.509        1.708      339.965       51.159        0.023      336.456        7.765      862.607
12/19/2014  12:28:00     -343.869     -109.869      -26.371      154.997      134.823       81.215    24024.137    18177.196     6595.882        8.990        2.440      360.995       70.628        0.038      336.415        7.697      862.577
12/19/2014  12:29:00     -175.704      -29.608       12.998      143.619      101.225       76.687    20626.374    10246.410     5880.897        3.433        1.838      178.181       85.963        0.233      336.502        7.842      862.565
12/19/2014  12:30:00     -175.706      -94.287       11.129      159.298       92.158       57.868    25375.734     8493.146     3348.715        3.854        1.861      199.405       70.905        0.126      336.494        7.832      862.594
12/19/2014  12:31:00     -270.023     -147.705      -19.119      200.186      152.589       78.780    40074.482    23283.370     6206.271        8.232        3.478      307.781       74.476        0.059      336.438        7.737      862.548
12/19/2014  12:32:00     -138.937      -69.007       17.665      143.403       84.590       65.010    20564.418     7155.495     4226.322        2.816        1.597      155.131       78.544        0.256      336.517        7.869      862.560
12/19/2014  12:33:00     -389.342     -163.275       -9.879      190.199      137.292       69.696    36175.725    18849.047     4857.516       11.910        2.994      422.191       78.051        0.034      336.486        7.818      862.554
12/19/2014  12:34:00     -405.260     -289.643      -37.381      206.219      133.949       78.173    42526.355    17942.257     6111.072       15.804        3.329      498.125       93.607        0.035      336.453        7.761      862.545
12/19/2014  12:35:00     -276.452     -177.435       -5.854      135.652      126.829       69.297    18401.494    16085.536     4802.124        7.361        1.964      328.495       64.857        0.039      336.480        7.806      862.537
12/19/2014  12:36:00     -227.758     -201.794        5.145      181.545      113.304       81.836    32958.422    12837.732     6697.205        7.255        2.625      304.293       87.548        0.083      336.493        7.828      862.539
12/19/2014  12:37:00     -475.343     -256.018      -16.568      215.262      188.754      100.078    46337.743    35628.200    10015.535       19.186        4.599      539.904       98.347        0.033      336.453        7.761      862.529
12/19/2014  12:38:00     -511.907     -263.883      -29.833      229.576      189.094      111.187    52705.221    35756.436    12362.637       21.668        5.041      575.919      120.524        0.044      336.411        7.690      862.484
12/19/2014  12:39:00     -488.202     -255.995      -36.748      248.327      237.726      107.707    61666.394    56513.589    11600.765       21.748        6.489      551.248      121.768        0.049      336.401        7.674      862.500
12/19/2014  12:40:00     -331.996     -204.067       22.928      261.048      211.689      117.432    68145.990    44812.112    13790.273       13.954        6.337      389.699      135.026        0.120      336.367        7.618      862.474
12/19/2014  12:41:00     -231.423     -154.257       16.301      206.513      187.046       99.759    42647.585    34986.028     9951.895        8.258        4.379      278.122      107.494        0.149      336.364        7.613      862.461
12/19/2014  12:42:00     -326.029     -187.421      -11.818      209.623      189.554      106.109    43941.902    35930.623    11259.157       11.633        4.557      376.061      103.822        0.076      336.298        7.502      862.471
12/19/2014  12:43:00     -338.556      -70.911       22.509      302.761      194.740      110.120    91664.206    37923.630    12126.407       13.091        7.086      345.903      141.404        0.167      336.286        7.480      862.482
12/19/2014  12:44:00     -321.505      -97.603        0.143      200.700      205.924       88.773    40280.505    42404.646     7880.693       10.171        4.528      335.994       97.261        0.084      336.254        7.429      862.506
12/19/2014  12:45:00     -318.426     -220.638       -8.331      308.216      218.199      107.734    94997.003    47610.648    11606.633       15.215        7.711      387.397      130.014        0.113      336.227        7.383      862.489
12/19/2014  12:46:00     -387.356      -72.475      -13.199      269.765      201.108      114.920    72772.951    40444.311    13206.552       14.092        6.321      394.077      110.052        0.078      336.175        7.298      862.469
12/19/2014  12:47:00     -161.166      -74.089       28.920      227.828      131.375      102.138    51905.518    17259.347    10432.130        5.593        3.980      177.380      115.205        0.422      336.191        7.324      862.517
12/19/2014  12:48:00     -329.487     -205.396      -20.404      151.796      158.894       86.794    23041.975    25247.214     7533.285       10.348        2.791      388.264       84.676        0.048      336.136        7.232      862.525
12/19/2014  12:49:00     -571.379     -321.054      -17.903      300.401      227.250      112.128    90240.783    51642.611    12572.744       29.213        7.723      655.401      133.268        0.041      336.098        7.168      862.498
12/19/2014  12:50:00     -457.745     -105.456      -23.358      250.392      227.204      109.570    62696.022    51621.605    12005.482       17.373        6.316      469.736      106.835        0.052      336.102        7.175      862.494
12/19/2014  12:51:00     -472.993     -154.859      -22.782      273.951      238.511      110.958    75049.239    56887.521    12311.717       19.621        7.212      497.698      133.850        0.072      336.056        7.099      862.488
12/19/2014  12:52:00     -402.347     -180.338      -15.343      251.931      186.879      101.824    63469.352    34923.713    10368.133       15.168        5.438      440.914      116.619        0.070      336.019        7.038      862.480
12/19/2014  12:53:00     -420.938       45.732      -14.474      236.800      174.088      109.156    56074.259    30306.624    11915.114       13.887        4.915      423.415      110.343        0.068      336.110        7.189      862.488
12/19/2014  12:54:00     -523.017     -192.835      -22.611      243.704      162.363       96.530    59391.636    26361.865     9318.038       20.314        4.754      557.433      109.419        0.039      335.982        6.975      862.477
12/19/2014  12:55:00     -499.539      -94.835      -24.638      269.765      220.046      106.930    72772.901    48420.226    11434.093       19.586        6.631      508.461      122.901        0.058      335.977        6.968      862.505
12/19/2014  12:56:00     -320.165      -83.574        1.500      222.800      174.401       93.959    49639.885    30415.798     8828.379        9.917        4.444      330.894      107.490        0.106      336.014        7.028      862.527
12/19/2014  12:57:00     -408.636     -191.660      -16.985      288.271      185.587      139.024    83100.121    34442.514    19327.633       17.041        6.844      451.350      173.264        0.147      335.970        6.954      862.520
12/19/2014  12:58:00     -457.563     -121.450      -20.218      259.025      249.814      122.078    67094.111    62407.247    14903.074       18.443        7.220      473.407      131.438        0.077      335.939        6.902      862.502
12/19/2014  12:59:00     -442.360     -180.608      -18.556      224.941      229.798      101.863    50598.618    52807.297    10376.075       17.119        5.689      477.809      110.860        0.054      335.943        6.911      862.562
12/19/2014  13:00:00     -276.761     -118.358      -15.605      243.219      191.815      121.196    59155.672    36792.882    14688.354       10.072        5.532      301.007      123.095        0.167      335.951        6.923      862.559
12/19/2014  13:01:00     -376.740     -126.969      -11.937      200.357      141.616       88.528    40143.049    20055.195     7837.151       11.310        3.402      397.560       82.479        0.043      335.927        6.882      862.611
12/19/2014  13:02:00     -357.588      -91.535        0.340      235.201      182.292      101.060    55319.429    33230.470    10213.194       11.749        4.938      369.117      109.843        0.089      335.958        6.936      862.625
12/19/2014  13:03:00     -416.647      -58.167      -14.971      259.120      173.602      111.441    67143.284    30137.561    12419.016       14.343        5.485      420.688      136.179        0.105      335.949        6.920      862.682
12/19/2014  13:04:00     -320.780     -179.859      -26.919      178.608      192.953       87.311    31900.769    37230.877     7623.238       10.635        3.838      367.762       83.346        0.051      335.883        6.810      862.675
12/19/2014  13:05:00     -341.124      -90.669        2.964      300.368      207.790      104.207    90221.036    43176.584    10859.150       13.440        7.213      352.968      133.233        0.142      335.925        6.882      862.710
12/19/2014  13:06:00     -492.912     -234.158      -20.644      282.822      205.308      108.998    79988.023    42151.469    11880.592       21.609        6.701      545.704      137.556        0.064      335.812        6.692      862.709
12/19/2014  13:07:00     -298.551     -154.798      -25.290      238.604      168.935      105.372    56931.741    28539.124    11103.311       10.514        4.829      336.296      109.439        0.106      335.824        6.712      862.710
12/19/2014  13:08:00     -419.782     -142.246      -14.240      318.241      207.218      109.168   101277.603    42939.110    11917.610       17.636        7.807      443.227      130.646        0.087      335.820        6.704      862.700
12/19/2014  13:09:00     -546.535     -189.422      -14.245      246.011      152.920       94.475    60521.205    23384.492     8925.562       21.379        4.642      578.429      104.658        0.033      335.768        6.618      862.710
12/19/2014  13:10:00     -507.734     -146.622      -36.974      214.484      164.479       87.587    46003.360    27053.237     7671.405       18.068        4.036      528.481      104.460        0.039      335.775        6.628      862.684
12/19/2014  13:11:00     -482.317     -214.498      -27.497      210.580      157.519       97.125    44343.856    24812.249     9433.280       17.898        3.929      527.863      106.034        0.040      335.732        6.558      862.653
12/19/2014  13:12:00      -86.156       -1.634       38.787      149.473      102.593       92.549    22342.317    10525.378     8565.260        2.517        2.072       86.171       82.341        0.913      335.803        6.678      862.594
12/19/2014  13:13:00     -323.233      -65.058      -22.787      208.014      140.769       75.628    43269.682    19815.843     5719.647        8.900        3.440      329.716       83.136        0.064      335.844        6.745      862.581
12/19/2014  13:14:00     -144.531      -90.973       10.555      126.635      112.844       66.790    16036.498    12733.744     4460.859        3.125        1.662      170.778       58.656        0.118      335.827        6.717      862.617
12/19/2014  13:15:00     -348.483      -85.415       -6.985      186.408      149.967       76.010    34747.924    22489.982     5777.513        9.589        3.151      358.798       90.821        0.064      335.787        6.650      862.602
12/19/2014  13:16:00     -331.907     -200.695       -4.804      144.529      167.904       83.371    20888.650    28191.608     6950.782       10.324        2.802      387.867       87.152        0.050      335.732        6.559      862.566
12/19/2014  13:17:00     -325.861     -152.306       -1.831      159.284      111.343       63.444    25371.450    12397.358     4025.112        8.558        2.090      359.698       72.148        0.040      335.756        6.598      862.570
12/19/2014  13:18:00     -263.989     -147.704      -20.507      128.726      103.934       54.378    16570.262    10802.234     2956.918        6.112        1.516      302.501       63.304        0.044      335.781        6.640      862.584
12/19/2014  13:19:00     -336.362     -180.502      -14.877      176.339      120.690       72.474    31095.335    14566.022     5252.512        9.842        2.546      381.733       72.054        0.036      335.794        6.662      862.572
12/19/2014  13:20:00     -333.633     -203.688      -12.354      145.248       97.436       70.833    21096.866     9493.863     5017.336        9.427        1.780      390.896       70.235        0.032      335.893        6.826      862.538
12/19/2014  13:21:00     -229.445     -134.351       -9.274      131.985      114.431       58.940    17420.124    13094.517     3473.961        5.238        1.699      265.886       65.857        0.061      335.895        6.829      862.534
12/19/2014  13:22:00     -242.109     -112.626      -20.743      115.052       89.931       51.661    13236.934     8087.656     2668.830        4.786        1.200      267.023       51.583        0.037      335.890        6.821      862.525
12/19/2014  13:23:00     -326.150     -175.864      -33.525      161.448      119.462       71.720    26065.360    14271.246     5143.687        9.194        2.274      370.543       68.158        0.034      335.805        6.680      862.524
12/19/2014  13:24:00     -182.088      -18.274       -0.150      134.017       88.785       66.207    17960.509     7882.811     4383.381        3.185        1.511      183.003       70.254        0.147      335.838        6.735      862.535
12/19/2014  13:25:00     -120.200      -66.369       -1.197       80.331       60.836       38.499     6452.999     3701.060     1482.162        1.524        0.582      137.305       33.576        0.060      335.925        6.882      862.499
12/19/2014  13:26:00     -246.862     -134.280       -6.734       99.543       80.631       47.669     9908.782     6501.436     2272.344        4.885        0.934      281.020       41.100        0.021      335.917        6.866      862.456
12/19/2014  13:27:00     -246.642     -177.193       -6.402      122.319      110.809       62.351    14961.969    12278.645     3887.663        6.169        1.556      303.693       60.129        0.039      336.052        7.091      862.438
12/19/2014  13:28:00     -186.487     -172.602       -7.395      144.650       80.145       45.031    20923.709     6423.149     2027.759        4.699        1.469      254.105       47.362        0.035      336.170        7.290      862.350
12/19/2014  13:29:00       -4.485     -102.014      -10.641       26.975       44.541       29.337      727.675     1983.901      860.679        0.706        0.179      102.113        7.812        0.006      336.240        7.408      862.267
12/19/2014  13:30:00      -21.957      -58.505       -2.258       71.663       67.676       40.282     5135.583     4580.017     1622.620        0.762        0.567       62.490       39.306        0.396      336.289        7.490      862.227
12/19/2014  13:31:00       -2.595       31.525       20.364       31.869       27.369       25.243     1015.655      749.066      637.195        0.191        0.120       31.631       18.887        0.357      336.335        7.568      862.166
12/19/2014  13:32:00       -7.591       27.056       52.596       19.533       32.994       24.912      381.529     1088.606      620.625        0.282        0.105       28.101       21.805        0.602      336.311        7.527      862.158
12/19/2014  13:33:00       -7.440       60.472        1.364       44.790       24.466       32.289     2006.119      598.574     1042.593        0.368        0.182       60.928       29.088        0.228      336.234        7.398      862.212
12/19/2014  13:34:00     -131.441       47.538      -14.309       66.477       55.217       36.505     4419.193     3048.866     1332.582        1.427        0.440      139.774       29.775        0.045      336.504        7.849      862.266
12/19/2014  13:35:00     -241.258        4.593      -25.275       68.454       59.802       37.489     4685.974     3576.299     1405.461        3.426        0.483      241.301       35.597        0.022      336.159        7.270      862.311
12/19/2014  13:36:00     -191.653      -25.978      -25.025       69.706       59.693       37.764     4858.924     3563.263     1426.154        2.394        0.492      193.405       33.323        0.030      336.216        7.366      862.304
12/19/2014  13:37:00     -154.943      -98.447       -2.803       96.244       77.831       45.288     9262.819     6057.739     2051.018        2.554        0.869      183.573       37.991        0.043      335.965        6.948      862.305
12/19/2014  13:38:00     -237.328      -73.805       -2.192       83.431       68.923       39.994     6960.793     4750.414     1599.483        3.754        0.666      248.539       45.045        0.033      335.894        6.828      862.325
12/19/2014  13:39:00     -173.379      -67.189       -3.798       93.331       49.414       37.956     8710.631     2441.738     1440.669        2.359        0.630      185.942       35.425        0.036      335.935        6.897      862.349
12/19/2014  13:40:00     -214.928      -29.720      -14.938       66.899       68.420       41.404     4475.500     4681.307     1714.265        2.908        0.544      216.973       38.215        0.031      336.000        7.004      862.362
12/19/2014  13:41:00     -225.456      -23.998      -14.819       70.665       94.370       36.605     4993.557     8905.764     1339.960        3.343        0.762      226.730       34.020        0.023      336.014        7.027      862.354
12/19/2014  13:42:00     -189.010     -112.067      -14.828       61.026       78.191       42.265     3724.126     6113.834     1786.302        3.006        0.581      219.736       31.802        0.021      335.838        6.735      862.358
12/19/2014  13:43:00     -144.193      -73.024       -7.291       95.147       51.354       37.160     9053.003     2637.204     1380.882        1.962        0.654      161.630       37.342        0.053      335.898        6.836      862.354
12/19/2014  13:44:00     -106.743      -85.036       21.187      101.292       71.004       49.321    10260.131     5041.585     2432.601        1.840        0.887      136.474       57.362        0.177      335.978        6.970      862.360
12/19/2014  13:45:00      -79.633      -20.464       -0.989       56.749       55.336       36.241     3220.501     3062.046     1313.388        0.718        0.380       82.220       33.410        0.165      335.994        6.999      862.380
12/19/2014  13:46:00     -129.441       33.898       -8.081       42.311       36.387       24.933     1790.243     1324.002      621.656        1.085        0.187      133.806       19.583        0.021      336.166        7.286      862.384
12/19/2014  13:47:00     -177.956       -5.252       -7.460       81.951       52.823       39.450     6716.022     2790.224     1556.331        2.140        0.553      178.034       43.709        0.060      336.157        7.269      862.366
12/19/2014  13:48:00     -171.936      -88.421      -12.566      103.808       65.413       42.019    10776.098     4278.806     1765.612        2.718        0.841      193.340       46.803        0.059      336.047        7.082      862.356
12/19/2014  13:49:00     -136.873      -19.987      -13.295       86.565       48.362       30.127     7493.562     2338.866      907.630        1.502        0.537      138.324       38.055        0.076      336.126        7.217      862.383
12/19/2014  13:50:00     -163.389      -19.902       -7.863       73.381       58.062       28.489     5384.819     3371.217      811.637        1.836        0.478      164.597       33.442        0.041      336.051        7.091      862.375
12/19/2014  13:51:00     -207.656      -77.690       -9.914       71.072       69.615       33.883     5051.225     4846.208     1148.072        3.015        0.552      221.713       27.296        0.015      336.168        7.286      862.370
12/19/2014  13:52:00     -217.738      -61.058       -0.658       82.924       54.882       34.024     6876.307     3011.995     1157.606        3.109        0.552      226.137       32.174        0.020      336.037        7.066      862.348
12/19/2014  13:53:00     -232.152      -76.711       -8.088       71.522       58.557       33.113     5115.402     3428.975     1096.469        3.474        0.482      244.498       26.661        0.012      336.022        7.039      862.354
12/19/2014  13:54:00     -162.039      -36.038      -10.910       53.839       64.689       38.738     2898.691     4184.633     1500.632        1.813        0.429      165.998       35.026        0.045      336.291        7.493      862.365
12/19/2014  13:55:00      -69.532        2.216       -0.879       47.754       31.414       22.322     2280.466      986.864      498.263        0.430        0.188       69.567       22.193        0.102      336.248        7.422      862.380
12/19/2014  13:56:00      -66.140       -9.793        5.841       56.956       30.347       28.165     3243.994      920.941      793.285        0.473        0.248       66.861       31.958        0.228      336.256        7.436      862.345
12/19/2014  13:57:00      -68.783        5.037       -4.638       24.103       19.813       17.195      580.961      392.560      295.670        0.302        0.063       68.967       11.839        0.029      336.265        7.450      862.319
12/19/2014  13:58:00      -19.232       11.194        4.830       39.304       21.062       13.438     1544.766      443.619      180.590        0.134        0.108       22.253       10.510        0.223      336.274        7.468      862.297
12/19/2014  13:59:00      -13.783      -58.777       -2.685       34.701       36.296       26.744     1204.184     1317.423      715.244        0.344        0.162       60.371       24.697        0.167      336.311        7.528      862.340
12/19/2014  14:00:00      -93.538      -96.789        6.730       72.322       54.732       38.098     5230.415     2995.628     1451.428        1.392        0.484      134.601       39.334        0.085      336.242        7.412      862.398
12/19/2014  14:01:00     -131.484      -66.394        3.974       55.229       49.313       30.829     3050.246     2431.730      950.458        1.407        0.322      147.296       32.821        0.050      336.202        7.345      862.406
12/19/2014  14:02:00     -109.931      -72.728        1.014       56.791       35.341       29.054     3225.257     1248.956      844.148        1.135        0.266      131.811       34.107        0.067      336.279        7.475      862.415
12/19/2014  14:03:00     -123.989      -79.902        4.122       52.310       43.667       29.741     2736.317     1906.818      884.533        1.365        0.276      147.505       24.283        0.027      336.275        7.467      862.423
12/19/2014  14:04:00      -41.803      -42.274       16.567       51.134       29.482       22.632     2614.701      869.208      512.220        0.390        0.200       59.452       18.149        0.093      336.354        7.599      862.428
12/19/2014  14:05:00      -18.819      -90.844        7.073       39.626       45.543       29.559     1570.213     2074.134      873.756        0.659        0.226       92.772       26.677        0.083      336.301        7.511      862.404
12/19/2014  14:06:00      -79.433      -62.964       -9.560       49.222       38.564       20.318     2422.842     1487.181      412.806        0.734        0.216      101.360       19.469        0.037      336.227        7.389      862.365
12/19/2014  14:07:00      -97.435      -29.910       -1.022       30.382       33.655       22.953      923.077     1132.645      526.855        0.649        0.129      101.923       14.092        0.019      336.228        7.390      862.312
12/19/2014  14:08:00      -19.659       18.923      -18.174       24.866       40.522       13.113      618.315     1642.041      171.941        0.175        0.122       27.286       15.405        0.319      336.240        7.409      862.266
12/19/2014  14:09:00        7.230        0.579       -5.391        8.416       24.720        9.084       70.837      611.091       82.527        0.042        0.038        7.253       11.100        2.342      336.280        7.474      862.238
12/19/2014  14:10:00        5.042      -45.299      -19.806       17.293       14.479       13.557      299.048      209.643      183.793        0.158        0.035       45.579        8.490        0.035      336.394        7.665      862.252
12/19/2014  14:11:00       13.431        1.652        6.599       23.694       28.805       26.861      561.406      829.701      721.487        0.117        0.106       13.532       27.378        4.093      336.483        7.817      862.245
12/19/2014  14:12:00       29.671       40.090       46.866       26.696       23.510       14.524      712.682      552.710      210.937        0.308        0.074       49.875        9.176        0.034      336.493        7.832      862.204
12/19/2014  14:13:00       38.062      -21.569       39.290       47.989       74.248       53.670     2302.988     5512.784     2880.427        0.707        0.535       43.749       58.857        1.810      336.473        7.797      862.133
12/19/2014  14:14:00       98.392       91.400       51.280       72.146       69.165       66.265     5205.117     4783.757     4391.010        1.752        0.719      134.294       59.568        0.197      336.402        7.678      862.095
12/19/2014  14:15:00      118.665       65.861       27.626       73.619       55.977       50.751     5419.748     3133.447     2575.704        1.515        0.556      135.716       36.726        0.073      336.399        7.673      862.098
12/19/2014  14:16:00       78.542       58.073       80.866       51.098       59.932       40.328     2611.031     3591.818     1626.337        1.195        0.391       97.679       34.931        0.128      336.464        7.782      862.131
12/19/2014  14:17:00       33.760        4.340       49.380       52.083       78.952       50.027     2712.595     6233.453     2502.712        0.752        0.572       34.038       49.885        2.148      336.529        7.892      862.140
12/19/2014  14:18:00      114.878     -139.409       -4.791       61.811       79.917       49.243     3820.544     6386.734     2424.889        2.264        0.632      180.643       42.238        0.055      336.532        7.894      862.167
12/19/2014  14:19:00       93.258      -49.912       19.532       92.101      120.260       66.125     8482.515    14462.538     4372.519        1.944        1.366      105.774       73.813        0.487      336.555        7.934      862.222
12/19/2014  14:20:00       31.676       32.797       91.329       57.484       52.301       38.170     3304.416     2735.392     1456.975        0.896        0.375       45.597       26.434        0.336      336.587        7.988      862.251
12/19/2014  14:21:00       90.356      -98.836        0.344       89.506      110.639       85.317     8011.334    12240.935     7278.961        2.273        1.377      133.914       79.716        0.354      336.448        7.755      862.213
12/19/2014  14:22:00       78.531       11.227       91.153       93.464      151.733       99.132     8735.550    23022.811     9827.081        2.809        2.079       79.329      110.350        1.935      336.447        7.755      862.175
12/19/2014  14:23:00       58.029       97.569      129.043       87.243       95.764       70.884     7611.271     9170.801     5024.516        2.567        1.090      113.521       68.754        0.367      336.487        7.819      862.153
12/19/2014  14:24:00       98.826      158.544      171.761      107.899       88.889       59.686    11642.192     7901.336     3562.359        4.375        1.155      186.823       52.747        0.080      336.408        7.687      862.158
12/19/2014  14:25:00      109.496      142.588      146.020      109.319      118.315       83.999    11950.730    13998.547     7055.791        4.332        1.650      179.780       82.192        0.209      336.360        7.606      862.201
12/19/2014  14:26:00      113.373      119.546       94.076      115.509       74.314       64.573    13342.216     5522.524     4169.627        2.951        1.152      164.757       59.987        0.133      336.459        7.773      862.263
12/19/2014  14:27:00       56.290      136.779      154.724       93.654       87.778       81.753     8771.158     7704.942     6683.575        3.448        1.158      147.910       68.398        0.214      336.465        7.782      862.283
12/19/2014  14:28:00      106.352      141.488      150.946      101.840      107.130       79.122    10371.362    11476.813     6260.329        4.111        1.405      177.002       56.960        0.104      336.407        7.682      862.277
12/19/2014  14:29:00      142.597       78.740       76.366       95.962       78.276       65.887     9208.708     6127.075     4341.102        2.602        0.984      162.892       49.536        0.092      336.420        7.708      862.277
12/19/2014  14:30:00       95.616      109.933      111.866       83.536       85.217       65.114     6978.198     7261.875     4239.835        2.611        0.924      145.697       62.728        0.185      336.438        7.735      862.287
12/19/2014  14:31:00       51.691       52.881       81.201       65.367       74.998       54.989     4272.910     5624.762     3023.754        1.249        0.646       73.948       50.267        0.462      336.530        7.894      862.288
12/19/2014  14:32:00       62.234       38.286       71.596       69.494       76.623       54.585     4829.459     5871.136     2979.541        1.207        0.684       73.068       51.556        0.498      336.465        7.784      862.319
12/19/2014  14:33:00       -0.671      -48.185        6.507       46.589       54.957       26.776     2170.565     3020.302      716.946        0.414        0.295       48.190       21.053        0.191      336.614        8.034      862.354
12/19/2014  14:34:00       69.606       47.455       82.665       54.894       86.654       54.197     3013.402     7508.909     2937.279        1.369        0.673       84.243       53.603        0.405      336.545        7.919      862.367
12/19/2014  14:35:00      115.470       24.469       83.689       90.298       98.880       57.791     8153.692     9777.228     3339.747        2.110        1.064      118.034       56.403        0.228      336.486        7.817      862.330
12/19/2014  14:36:00      153.865     -131.905        8.752       90.010      113.206       64.626     8101.744    12815.528     4176.540        3.312        1.255      202.666       80.327        0.157      336.395        7.664      862.298
12/19/2014  14:37:00      107.477      -77.587       38.410       68.718       92.472       49.356     4722.102     8551.070     2436.050        1.737        0.785      132.556       52.294        0.156      336.462        7.778      862.321
12/19/2014  14:38:00       94.631       -7.479       43.564       66.393       96.667       52.425     4407.969     9344.481     2748.358        1.370        0.825       94.926       29.160        0.094      336.474        7.800      862.330
12/19/2014  14:39:00      212.050       46.497       42.206      133.147      110.716       75.831    17728.087    12258.119     5750.286        4.232        1.787      217.088       70.746        0.106      336.394        7.663      862.318
12/19/2014  14:40:00      133.650       53.604       75.034      117.195       93.247       67.090    13734.734     8695.068     4501.008        2.664        1.347      143.999       59.068        0.168      336.371        7.625      862.331
12/19/2014  14:41:00      124.602       71.502       86.342       98.366       68.350       64.914     9675.933     4671.659     4213.865        2.332        0.928      143.660       48.592        0.114      336.379        7.639      862.325
12/19/2014  14:42:00      177.806       81.050       66.394      120.687      105.203       85.628    14565.385    11067.674     7332.107        3.777        1.648      195.407       67.438        0.119      336.337        7.565      862.283
12/19/2014  14:43:00      104.859       89.735      113.250       93.551       87.195       69.535     8751.807     7602.975     4835.089        2.653        1.059      138.014       53.380        0.150      336.409        7.688      862.270
12/19/2014  14:44:00      107.570       46.581      111.718      112.673      109.428       83.453    12695.311    11974.487     6964.388        2.892        1.582      117.222       94.115        0.645      336.434        7.731      862.272
12/19/2014  14:45:00       83.710       26.472      107.138       76.716      129.112       72.177     5885.360    16669.917     5209.559        2.347        1.388       87.796       82.229        0.877      336.467        7.787      862.278
12/19/2014  14:46:00       68.929      -12.308       74.368       67.984      100.871       70.004     4621.844    10174.947     4900.611        1.506        0.985       70.019       71.171        1.033      336.467        7.788      862.290
12/19/2014  14:47:00       59.433       85.573       90.150       69.921       82.518       67.339     4888.936     6809.148     4534.486        1.760        0.812      104.188       59.336        0.324      336.422        7.712      862.326
12/19/2014  14:48:00      124.976       56.558       72.828      104.095       72.138       57.580    10835.671     5203.918     3315.486        2.173        0.968      137.178       46.560        0.115      336.406        7.685      862.345
12/19/2014  14:49:00      161.622       61.520       61.591       90.692       71.473       59.687     8225.073     5108.378     3562.481        2.529        0.845      172.935       51.423        0.088      336.346        7.582      862.367
12/19/2014  14:50:00      129.545       48.958       71.143      106.076       72.489       67.947    11252.093     5254.697     4616.739        2.268        1.056      138.487       69.144        0.249      336.363        7.612      862.380
12/19/2014  14:51:00      154.423       97.154       83.020       82.872       82.502       66.446     6867.708     6806.646     4415.108        2.913        0.904      182.443       47.885        0.069      336.322        7.543      862.375
12/19/2014  14:52:00       73.726       96.967       99.041       68.721       75.116       53.236     4722.539     5642.460     2834.077        1.892        0.660      121.812       46.735        0.147      336.383        7.646      862.394
12/19/2014  14:53:00      127.557     -171.375       -8.847      120.457      139.645       60.463    14509.902    19500.668     3655.778        4.168        1.883      213.635       96.417        0.204      336.409        7.690      862.434
12/19/2014  14:54:00      119.464     -210.874      -26.751       76.499       56.610       38.255     5852.096     3204.677     1463.447        3.499        0.526      242.362       33.519        0.019      336.382        7.641      862.450
12/19/2014  14:55:00      141.471     -160.690       -5.501       66.763       98.865       45.732     4457.279     9774.385     2091.425        3.109        0.816      214.092       54.772        0.065      336.378        7.635      862.447
12/19/2014  14:56:00       42.748        2.681       70.189       59.264       71.013       36.137     3512.279     5042.904     1305.918        0.831        0.493       42.832       38.038        0.789      336.505        7.853      862.428
12/19/2014  14:57:00       68.782       21.117       37.466       73.265       48.123       58.104     5367.751     2315.802     3376.071        0.882        0.553       71.951       54.413        0.572      336.426        7.716      862.434
12/19/2014  14:58:00       32.257      -83.127       21.577       29.887       88.171       41.832      893.205     7774.070     1749.934        0.941        0.521       89.167       48.289        0.293      336.489        7.825      862.482
12/19/2014  14:59:00       45.249      -59.857       30.961       51.384       77.872       38.772     2640.292     6064.026     1503.290        0.840        0.510       75.035       43.937        0.343      336.551        7.929      862.520
12/19/2014  15:00:00      -23.183       -1.403       16.956       28.030       21.745       14.552      785.707      472.847      211.750        0.115        0.074       23.225       14.951        0.414      336.587        7.990      862.551
12/19/2014  15:01:00       -1.405       41.669       10.028       36.860       26.408       22.229     1358.624      697.401      494.111        0.219        0.128       41.693       13.424        0.104      336.517        7.871      862.552
12/19/2014  15:02:00       51.941       13.558        3.349       50.576       22.401       18.828     2557.908      501.819      354.498        0.315        0.171       53.681        8.471        0.025      336.448        7.756      862.510
12/19/2014  15:03:00      135.449       81.688       56.000       67.101       53.500       56.773     4502.580     2862.197     3223.143        1.937        0.529      158.175       34.457        0.047      336.385        7.648      862.454
12/19/2014  15:04:00       92.725       95.419      103.004       94.523       69.663       59.663     8934.611     4852.902     3559.617        2.283        0.867      133.052       50.412        0.144      336.485        7.817      862.389
12/19/2014  15:05:00       16.309      102.253      141.546       46.355       63.575       35.404     2148.745     4041.806     1253.421        1.910        0.372      103.546       34.353        0.110      336.535        7.902      862.362
12/19/2014  15:06:00       80.696       61.350       59.706       72.837       54.393       59.961     5305.254     2958.627     3595.318        1.285        0.593      101.369       45.936        0.205      336.423        7.713      862.376
12/19/2014  15:07:00       -4.613      -73.883       -4.135       28.486       50.914       25.791      811.435     2592.272      665.199        0.478        0.203       74.027       28.789        0.151      336.611        8.030      862.427
12/19/2014  15:08:00      -17.562      -56.915        2.498       57.326       38.467       26.208     3286.321     1479.695      686.837        0.450        0.273       59.563       19.203        0.104      336.635        8.070      862.461
12/19/2014  15:09:00      -83.006      -45.561        1.534       60.866       33.960       19.657     3704.709     1153.313      386.390        0.711        0.262       94.689       20.615        0.047      336.607        8.023      862.480
12/19/2014  15:10:00      -71.037      -35.781       -2.396       51.855       36.974       25.146     2688.974     1367.072      632.326        0.551        0.234       79.540       22.180        0.078      336.613        8.034      862.473
12/19/2014  15:11:00      -48.153      -24.138        2.366       26.816       30.685       17.696      719.105      941.587      313.135        0.244        0.099       53.864       11.830        0.048      336.497        7.838      862.459
12/19/2014  15:12:00       53.016       47.193       10.608       63.112       40.112       25.065     3983.104     1608.947      628.267        0.568        0.311       70.978       27.325        0.148      336.564        7.950      862.426
12/19/2014  15:13:00      141.125      117.353      -10.971       34.413       38.364       30.091     1184.281     1471.797      905.464        1.868        0.178      183.543       20.381        0.012      336.465        7.783      862.378
12/19/2014  15:14:00      150.190       96.866       23.433       56.756       43.544       39.334     3221.213     1896.106     1547.192        1.958        0.333      178.718       15.536        0.008      336.403        7.679      862.358
12/19/2014  15:15:00      118.579       73.933       30.789       81.907       43.480       40.284     6708.693     1890.510     1622.796        1.535        0.511      139.740       32.504        0.054      336.443        7.745      862.376
12/19/2014  15:16:00       94.601       42.009       15.149       57.205       47.155       36.356     3272.363     2223.589     1321.777        0.888        0.341      103.509       12.496        0.015      336.458        7.775      862.412
12/19/2014  15:17:00       63.222       47.696        2.110       27.280       20.982       17.023      744.203      440.224      289.794        0.388        0.074       79.195        7.966        0.010      336.454        7.764      862.433
12/19/2014  15:18:00       39.887       30.110        7.607       13.704       18.114       13.760      187.808      328.126      189.350        0.163        0.035       49.976        1.939        0.002      336.510        7.861      862.426
12/19/2014  15:19:00       14.932      -10.964       17.542       25.379       42.858       18.641      644.098     1836.774      347.474        0.174        0.141       18.525       13.104        0.500      336.626        8.055      862.425
12/19/2014  15:20:00       37.752      -27.937       15.602       47.666       59.741       38.694     2272.055     3569.043     1497.189        0.489        0.367       46.965       40.594        0.747      336.678        8.142      862.411
12/19/2014  15:21:00       39.784       28.912       77.910       37.067       88.485       44.949     1373.957     7829.519     2020.376        0.985        0.561       49.180       55.093        1.255      336.602        8.015      862.351
12/19/2014  15:22:00       18.431       -8.375       33.490       35.318       42.680       30.073     1247.333     1821.609      904.387        0.275        0.199       20.245       23.762        1.378      336.691        8.163      862.328
12/19/2014  15:23:00        7.190        4.551       18.379       31.389       30.342       30.010      985.258      920.638      900.593        0.161        0.140        8.509       29.009       11.622      336.660        8.111      862.354
12/19/2014  15:24:00      -91.181      -42.992       -2.927       32.205       29.946       20.336     1037.142      896.763      413.566        0.626        0.117      100.808       15.699        0.024      336.733        8.234      862.383
12/19/2014  15:25:00      -82.074      -56.803        0.009       45.614       34.921       20.728     2080.593     1219.450      429.645        0.685        0.186       99.814       19.731        0.039      336.755        8.270      862.411
12/19/2014  15:26:00      -80.485      -93.192       -2.790       53.783       47.693       30.420     2892.642     2274.606      925.383        1.063        0.305      123.136       26.581        0.047      336.658        8.109      862.412
12/19/2014  15:27:00       -8.667      -32.522       -3.422       20.385       46.512       21.478      415.535     2163.367      461.317        0.209        0.152       33.657       17.904        0.283      336.656        8.107      862.366
12/19/2014  15:28:00       -2.375       50.505       72.710       27.179       33.394       33.192      738.677     1115.157     1101.693        0.540        0.148       50.561       25.668        0.258      336.782        8.316      862.294
12/19/2014  15:29:00       20.415       28.802       45.713       45.728       26.127       24.167     2091.058      682.628      584.042        0.335        0.168       35.303       25.249        0.512      336.734        8.236      862.260
12/19/2014  15:30:00      -23.805      -26.916      -13.596       21.136       31.392       17.517      446.721      985.429      306.832        0.161        0.087       35.933        9.860        0.075      336.713        8.202      862.273
12/19/2014  15:31:00      -79.999      -65.844       -1.604       45.149       28.747       23.520     2038.449      826.394      553.210        0.708        0.171      103.611        8.719        0.007      336.702        8.183      862.283
12/19/2014  15:32:00     -120.754      -96.446       -4.983       67.282       47.824       31.783     4526.934     2287.096     1010.168        1.586        0.391      154.542       28.964        0.035      336.577        7.972      862.284
12/19/2014  15:33:00     -108.552      -82.561       -7.142       38.042       29.896       22.775     1447.178      893.796      518.708        1.075        0.143      136.381       18.611        0.019      336.484        7.818      862.281
12/19/2014  15:34:00      -91.442      -38.565       -8.758       21.861       19.051       10.553      477.887      362.935      111.370        0.544        0.048       99.242       10.979        0.012      336.487        7.821      862.282
12/19/2014  15:35:00      -79.653      -16.529       -7.770       19.562       18.121       14.052      382.685      328.359      197.453        0.379        0.045       81.350        5.122        0.004      336.553        7.933      862.287
12/19/2014  15:36:00      -74.849      -10.470      -11.069       19.281       12.973       16.644      371.770      168.299      277.029        0.333        0.041       75.578       12.345        0.027      336.551        7.931      862.280
12/19/2014  15:37:00      -22.301        3.968        1.551       17.803        7.362        8.307      316.931       54.192       69.002        0.048        0.022       22.651        7.874        0.121      336.612        8.033      862.251
12/19/2014  15:38:00      -10.627       -1.678        8.939       18.622        6.245       12.186      346.766       39.006      148.509        0.036        0.027       10.759       13.985        1.690      336.715        8.204      862.225
12/19/2014  15:39:00      -42.986       -9.481       -9.740       16.031       10.034        6.625      257.000      100.687       43.894        0.122        0.020       44.019        5.916        0.018      336.575        7.973      862.220
12/19/2014  15:40:00      -27.213      -19.753       -1.208       22.818       12.646       15.889      520.648      159.911      252.464        0.103        0.047       33.626       14.053        0.175      336.618        8.040      862.218
12/19/2014  15:41:00      -61.166      -28.893        4.436       33.463       30.360       18.587     1119.804      921.743      345.491        0.349        0.119       67.647       15.489        0.052      336.593        8.000      862.237
12/19/2014  15:42:00      -31.121      -30.539        6.784       38.269       25.319       17.256     1464.535      641.052      297.756        0.217        0.120       43.602       15.993        0.135      336.648        8.092      862.251
12/19/2014  15:43:00      -56.397      -72.535       -2.325       30.678       38.774       17.769      941.169     1503.434      315.752        0.560        0.138       91.880       18.900        0.042      336.572        7.966      862.270
12/19/2014  15:44:00      -30.875      -37.165        3.254       30.521       34.118       17.596      931.541     1164.061      309.608        0.237        0.120       48.316       14.336        0.088      336.624        8.052      862.277
12/19/2014  15:45:00      -27.521      -21.467        8.119       34.710       26.422       15.260     1204.762      698.102      232.854        0.171        0.107       34.903       13.093        0.141      336.629        8.058      862.270
12/19/2014  15:46:00      -15.972      -13.644      -11.337       16.456       12.762       11.391      270.786      162.874      129.763        0.057        0.028       21.006        6.744        0.103      336.641        8.080      862.258
12/19/2014  15:47:00      -24.184       -2.887        6.998       14.009       23.879       10.893      196.238      570.223      118.664        0.076        0.044       24.355        9.125        0.140      336.697        8.173      862.254
12/19/2014  15:48:00      -16.594      -45.361       16.056       37.993       30.661       22.797     1443.486      940.107      519.690        0.275        0.145       48.301       22.190        0.211      336.729        8.227      862.256
12/19/2014  15:49:00       -7.971      -55.505      -13.000       19.135       23.034       24.085      366.133      530.547      580.064        0.239        0.074       56.074       17.041        0.092      336.703        8.183      862.256
12/19/2014  15:50:00      -58.445      -34.271       -2.125       36.746       25.387       22.286     1350.291      644.485      496.677        0.354        0.125       67.752       13.278        0.038      336.683        8.151      862.273
12/19/2014  15:51:00      -71.197      -23.209        1.876       31.601       26.388       20.214      998.624      696.315      408.601        0.386        0.105       74.885       16.305        0.047      336.699        8.178      862.309
12/19/2014  15:52:00      -22.924      -21.472        9.271       28.059       24.486       11.559      787.309      599.559      133.613        0.130        0.076       31.410        6.953        0.049      336.727        8.226      862.348
12/19/2014  15:53:00      -26.001        5.351        5.466       35.390       16.411       12.341     1252.463      269.317      152.291        0.120        0.084       26.546       12.214        0.212      336.700        8.180      862.367
12/19/2014  15:54:00     -115.835      -35.922       -9.389       23.147       26.049       14.358      535.786      678.557      206.159        0.811        0.071      121.277        8.167        0.005      336.695        8.170      862.379
12/19/2014  15:55:00      -32.788        3.005       11.248       25.980       23.550       15.188      674.970      554.590      230.676        0.134        0.073       32.925       19.442        0.349      336.693        8.167      862.371
12/19/2014  15:56:00      -10.248        3.089       16.123       14.148       18.796       16.075      200.160      353.286      258.394        0.059        0.041       10.704       15.255        2.031      336.794        8.335      862.358
12/19/2014  15:57:00      -25.961      -37.196        0.954       37.100       32.994       19.472     1376.398     1088.572      379.152        0.245        0.142       45.360       13.263        0.085      336.766        8.289      862.367
12/19/2014  15:58:00     -132.564     -107.201        0.867       54.544       45.720       30.214     2975.087     2090.286      912.882        1.752        0.299      170.485       31.297        0.034      336.705        8.185      862.378
12/19/2014  15:59:00     -100.577     -108.586        2.403       89.566       54.499       30.398     8022.095     2970.110      924.054        1.691        0.596      148.009       28.153        0.036      336.732        8.231      862.402
12/19/2014  16:00:00     -166.944      -84.933        3.898      106.381       71.079       49.285    11316.982     5052.255     2429.055        2.694        0.940      187.307       53.315        0.081      336.693        8.164      862.396
12/19/2014  16:01:00     -196.151     -130.495       -5.724       82.536       55.732       44.241     6812.195     3106.002     1957.266        3.370        0.594      235.593       33.791        0.021      336.673        8.130      862.390
12/19/2014  16:02:00     -150.030     -119.301        3.397       59.904       64.208       42.078     3588.510     4122.627     1770.543        2.312        0.474      191.682       36.465        0.036      336.668        8.122      862.379
12/19/2014  16:03:00     -119.225      -95.639       -6.010       49.957       41.554       27.721     2495.748     1726.695      768.458        1.419        0.250      152.844       21.655        0.020      336.647        8.090      862.352
12/19/2014  16:04:00     -125.938     -108.692        9.236       77.495       68.272       33.590     6005.463     4661.006     1128.294        1.977        0.590      166.356       40.661        0.060      336.631        8.061      862.320
12/19/2014  16:05:00     -125.835      -82.378        6.181       69.402       62.761       43.507     4816.619     3938.931     1892.894        1.665        0.532      150.401       35.287        0.055      336.615        8.036      862.316
12/19/2014  16:06:00      -81.218      -43.468       -1.283       65.659       45.444       23.927     4311.131     2065.198      572.513        0.772        0.347       92.119       29.063        0.100      336.560        7.944      862.287
12/19/2014  16:07:00     -148.532     -155.139        0.267       61.652       57.899       43.397     3800.909     3352.251     1883.289        2.758        0.452      214.778       30.340        0.020      336.598        8.006      862.282
12/19/2014  16:08:00     -184.314     -121.163       -5.223       86.478       67.272       43.631     7478.391     4525.526     1903.644        3.129        0.695      220.572       48.977        0.049      336.574        7.966      862.267
12/19/2014  16:09:00     -188.514     -131.434        4.697      106.780       80.880       41.701    11402.061     6541.495     1738.933        3.625        0.984      229.810       44.290        0.037      336.590        7.993      862.281
12/19/2014  16:10:00     -187.257     -149.062      -10.628      103.635       82.985       53.740    10740.290     6886.540     2888.024        3.895        1.026      239.343       56.703        0.056      336.585        7.985      862.278
12/19/2014  16:11:00     -176.615     -174.803        1.423       75.961       69.431       46.491     5770.012     4820.705     2161.424        3.725        0.638      248.493       33.031        0.018      336.559        7.939      862.277
12/19/2014  16:12:00     -151.050      -50.175       -6.242       85.062       82.900       43.912     7235.479     6872.408     1928.235        2.070        0.802      159.165       39.015        0.060      336.597        8.004      862.278
12/19/2014  16:13:00      -46.800      -13.455       14.872       58.339       47.321       29.372     3403.466     2239.249      862.728        0.455        0.325       48.695       22.491        0.213      336.706        8.188      862.275
12/19/2014  16:14:00      -91.416      -16.147      -13.589       48.832       30.096       27.170     2384.577      905.742      738.205        0.641        0.201       92.831       26.937        0.084      336.633        8.065      862.252
12/19/2014  16:15:00     -154.876        6.445      -13.786       65.957       36.877       33.519     4350.365     1359.877     1123.555        1.552        0.342      155.010       38.225        0.061      336.742        8.248      862.230
12/19/2014  16:16:00     -206.182      -54.231       -8.468       64.632       48.043       32.298     4177.348     2308.090     1043.172        2.652        0.376      213.195       33.455        0.025      336.521        7.878      862.237
12/19/2014  16:17:00     -167.208      -56.014       -7.710       84.787       49.616       33.231     7188.912     2461.756     1104.326        2.095        0.538      176.341       35.140        0.040      336.527        7.888      862.258
12/19/2014  16:18:00     -234.218      -73.994      -10.488       38.646       42.131       25.947     1493.504     1775.004      673.271        3.219        0.197      245.628       24.135        0.010      336.486        7.813      862.293
12/19/2014  16:19:00     -158.830      -63.796       -3.471       57.652       51.568       26.921     3323.712     2659.243      724.763        1.801        0.335      171.163       28.579        0.028      336.487        7.821      862.331
12/19/2014  16:20:00     -144.217      -34.777       -7.560       53.711       40.847       31.638     2884.904     1668.491     1000.952        1.381        0.278      148.351       23.728        0.026      336.480        7.809      862.298
12/19/2014  16:21:00     -149.083      -57.296       -6.594       70.268       53.275       32.250     4937.637     2838.258     1040.065        1.718        0.441      159.714       32.338        0.041      336.499        7.843      862.249
12/19/2014  16:22:00     -189.123      -49.059       -1.654       66.894       45.079       28.512     4474.754     2032.155      812.915        2.275        0.366      195.382       31.483        0.026      336.525        7.884      862.249
12/19/2014  16:23:00     -160.243      -11.688       -2.567       73.187       62.692       36.708     5356.310     3930.243     1347.486        1.823        0.532      160.669       42.625        0.070      336.617        8.038      862.248
12/19/2014  16:24:00     -126.165      -59.241       -5.976       56.944       65.852       29.913     3242.668     4336.480      894.812        1.397        0.424      139.381       31.892        0.052      336.607        8.022      862.240
12/19/2014  16:25:00     -225.570     -112.554       -4.302       65.611       40.042       29.788     4304.864     1603.345      887.350        3.518        0.340      252.092       29.302        0.014      336.521        7.875      862.233
12/19/2014  16:26:00     -176.757      -71.414      -16.740       55.199       59.789       22.853     3046.880     3574.764      522.245        2.188        0.357      190.639       12.464        0.004      336.512        7.864      862.197
12/19/2014  16:27:00      -82.053      -82.616       -3.752       43.641       56.223       20.143     1904.558     3161.055      405.743        0.952        0.274      116.439       16.931        0.021      336.532        7.896      862.167
12/19/2014  16:28:00     -147.354      -47.071       -5.348       38.818       41.482       25.136     1506.855     1720.734      631.794        1.391        0.193      154.689       24.194        0.024      336.558        7.941      862.148
12/19/2014  16:29:00     -126.988      -33.583        6.400       74.027       48.974       34.405     5479.965     2398.485     1183.675        1.318        0.453      131.353       29.778        0.051      336.540        7.909      862.166
12/19/2014  16:30:00      -80.008     -101.257       -1.685       73.884       61.555       36.172     5458.813     3789.079     1308.445        1.360        0.528      129.052       34.170        0.070      336.529        7.892      862.163
12/19/2014  16:31:00     -139.223      -31.818      -14.093       44.627       43.659       27.306     1991.576     1906.070      745.623        1.262        0.232      142.813       18.799        0.017      336.528        7.890      862.126
12/19/2014  16:32:00     -146.041      -81.427       -6.150       61.440       53.464       31.557     3774.826     2858.443      995.843        1.781        0.381      167.207       32.594        0.038      336.480        7.809      862.055
12/19/2014  16:33:00     -131.646      -81.398        2.157       57.841       47.212       40.064     3345.527     2228.974     1605.120        1.557        0.359      154.778       32.349        0.044      336.487        7.822      862.024
12/19/2014  16:34:00     -144.522     -111.335      -11.707       71.835       57.367       42.509     5160.263     3290.975     1807.005        2.184        0.513      182.434       30.107        0.027      336.489        7.825      862.033
12/19/2014  16:35:00     -219.218     -115.313      -13.255       92.849       80.225       49.367     8620.924     6436.047     2437.087        3.951        0.875      247.697       38.414        0.024      336.451        7.756      862.064
12/19/2014  16:36:00     -183.722     -125.572        2.905      102.805       78.376       48.892    10568.766     6142.845     2390.446        3.431        0.955      222.536       54.148        0.059      336.422        7.708      862.080
12/19/2014  16:37:00     -121.376     -118.085        3.673       98.554       73.882       40.087     9712.907     5458.603     1606.972        2.273        0.839      169.340       43.610        0.066      336.434        7.729      862.080
12/19/2014  16:38:00     -190.400      -64.204       -3.247      103.562       65.145       41.016    10725.012     4243.882     1682.348        2.851        0.833      200.934       43.476        0.047      336.408        7.685      862.080
12/19/2014  16:39:00     -163.908     -138.470       -4.258      100.639       70.329       49.468    10128.198     4946.193     2447.046        3.179        0.876      214.569       58.162        0.073      336.435        7.730      862.099
12/19/2014  16:40:00     -184.128     -128.567       -5.478       62.147       60.624       40.854     3862.253     3675.257     1669.076        2.983        0.460      224.572       38.822        0.030      336.406        7.682      862.130
12/19/2014  16:41:00     -198.139      -67.738        0.019       78.362       60.313       34.343     6140.583     3637.707     1179.460        2.740        0.548      209.397       29.114        0.019      336.349        7.587      862.150
12/19/2014  16:42:00     -165.844      -80.650       -5.631       74.854       67.442       36.949     5603.050     4548.434     1365.218        2.278        0.576      184.415       31.296        0.029      336.385        7.648      862.155
12/19/2014  16:43:00     -155.786      -81.311        5.685      107.202       67.220       45.414    11492.272     4518.526     2062.394        2.449        0.904      175.730       52.559        0.089      336.368        7.620      862.168
12/19/2014  16:44:00     -188.918      -69.150       -0.158       65.895       56.274       35.029     4342.130     3166.779     1227.023        2.460        0.437      201.175       33.301        0.027      336.322        7.542      862.189
12/19/2014  16:45:00     -204.579     -104.726       -2.962       94.005       65.798       41.370     8836.902     4329.404     1711.476        3.385        0.744      229.826       48.794        0.045      336.316        7.531      862.208
12/19/2014  16:46:00     -208.768     -103.996      -17.467       83.578       75.079       37.496     6985.329     5636.837     1405.927        3.436        0.701      233.236       38.020        0.027      336.316        7.532      862.231
12/19/2014  16:47:00     -126.022      -82.296       10.072      137.785      124.612       49.792    18984.794    15528.086     2479.215        2.987        1.850      150.513       73.486        0.238      336.299        7.505      862.221
12/19/2014  16:48:00      -56.733      -21.532       11.525       65.722       51.526       37.372     4319.428     2654.883     1396.645        0.609        0.419       60.682       36.739        0.367      336.304        7.515      862.222
12/19/2014  16:49:00      -99.158      -93.424       -2.259       54.736       50.999       32.359     2996.084     2600.864     1047.102        1.260        0.332      136.237       29.392        0.047      336.298        7.507      862.222
12/19/2014  16:50:00      -88.742      -69.595        3.185       39.702       33.345       28.764     1576.233     1111.907      827.382        0.812        0.176      112.777       27.072        0.058      336.297        7.505      862.221
12/19/2014  16:51:00     -151.108      -84.294       -8.565       88.718       60.335       42.460     7870.813     3640.356     1802.853        2.166        0.666      173.030       41.010        0.056      336.317        7.533      862.279
12/19/2014  16:52:00     -156.828     -116.449       -4.421       86.569       54.811       36.799     7494.243     3004.203     1354.164        2.501        0.593      195.333       36.041        0.034      336.276        7.465      862.349
12/19/2014  16:53:00     -172.136      -77.982       -7.789       77.968       73.016       40.807     6079.069     5331.345     1665.235        2.442        0.654      188.976       36.549        0.037      336.239        7.404      862.369
12/19/2014  16:54:00     -142.008      -25.723      -18.829      101.808       46.824       34.127    10364.881     2192.456     1164.658        1.745        0.686      144.319       43.730        0.092      336.273        7.462      862.354
12/19/2014  16:55:00     -160.529      -37.521       -0.191       69.041       46.391       32.742     4766.696     2152.086     1072.068        1.758        0.400      164.855       35.368        0.046      336.268        7.456      862.365
12/19/2014  16:56:00     -156.446      -42.677        1.035       64.894       63.459       35.098     4211.201     4027.054     1231.904        1.788        0.474      162.162       36.058        0.049      336.314        7.531      862.426
12/19/2014  16:57:00     -170.803      -64.631      -14.818       65.064       55.245       34.622     4233.283     3051.984     1198.705        2.103        0.424      182.623       28.836        0.025      336.269        7.456      862.486
12/19/2014  16:58:00     -170.697      -40.338       -5.993       44.818       42.216       28.488     2008.691     1782.230      811.538        1.770        0.230      175.399       20.324        0.013      336.239        7.405      862.523
12/19/2014  16:59:00     -193.747      -76.963      -13.064       49.514       58.729       35.149     2451.587     3449.119     1235.421        2.538        0.357      208.474       30.974        0.022      336.255        7.432      862.538
12/19/2014  17:00:00     -116.833      -22.047       -7.660       60.616       58.357       30.715     3674.260     3405.542      943.428        1.111        0.401      118.895       35.320        0.088      336.381        7.643      862.533
12/19/2014  17:01:00     -136.911      -24.784        0.438       58.207       49.215       29.321     3388.017     2422.077      859.719        1.301        0.333      139.136       29.850        0.046      336.251        7.427      862.535
12/19/2014  17:02:00     -158.318      -44.799       -7.598       47.875       64.620       32.387     2291.973     4175.695     1048.891        1.732        0.376      164.535       24.473        0.022      336.282        7.478      862.538
12/19/2014  17:03:00      -97.391      -34.511        5.708       75.233       58.760       33.227     5660.036     3452.682     1104.021        1.046        0.511      103.324       40.036        0.150      336.338        7.573      862.564
12/19/2014  17:04:00     -120.563      -51.423       -0.465       53.938       46.491       27.559     2909.255     2161.457      759.493        1.150        0.292      131.072       29.215        0.050      336.410        7.694      862.583
12/19/2014  17:05:00     -176.532      -43.852        3.064       65.516       46.838       31.471     4292.393     2193.797      990.394        2.028        0.374      181.897       31.307        0.030      336.253        7.429      862.610
12/19/2014  17:06:00     -175.641      -81.982       -0.294       78.442       45.365       30.818     6153.124     2057.978      949.727        2.336        0.458      193.832       35.797        0.034      336.273        7.462      862.629
12/19/2014  17:07:00     -195.487      -36.233       -7.903       56.841       40.786       27.290     3230.876     1663.496      744.731        2.261        0.282      198.817       25.324        0.016      336.300        7.508      862.645
12/19/2014  17:08:00     -108.315      -89.518        4.130       49.353       42.894       25.415     2435.711     1839.879      645.913        1.234        0.246      140.519       22.993        0.027      336.313        7.531      862.666
12/19/2014  17:09:00      -71.491      -76.121        1.766       55.297       44.963       27.932     3057.806     2021.681      780.184        0.838        0.293      104.429       26.830        0.066      336.335        7.567      862.664
12/19/2014  17:10:00      -67.388      -62.566        5.645       47.797       37.199       23.765     2284.523     1383.794      564.796        0.636        0.212       91.955       23.881        0.067      336.351        7.596      862.649
12/19/2014  17:11:00      -80.860      -45.453      -11.164       26.416       24.137       17.505      697.802      582.582      306.416        0.516        0.079       92.759       12.738        0.019      336.383        7.648      862.659
12/19/2014  17:12:00      -51.047      -51.961        0.032       24.340       35.709       14.979      592.426     1275.107      224.366        0.370        0.105       72.840       12.946        0.032      336.376        7.636      862.668
12/19/2014  17:13:00      -98.419      -46.960      -10.433       34.354       35.234       18.719     1180.187     1241.411      350.397        0.739        0.139      109.048       20.302        0.035      336.378        7.640      862.673
12/19/2014  17:14:00      -79.305      -33.854       -3.912       27.778       26.553       16.887      771.603      705.050      285.155        0.461        0.088       86.228       16.092        0.035      336.412        7.697      862.685
12/19/2014  17:15:00      -91.601      -65.798        1.682       37.392       34.749       19.934     1398.160     1207.484      397.374        0.786        0.150      112.783       13.928        0.015      336.417        7.705      862.703
12/19/2014  17:16:00     -106.263      -51.040       -2.935       32.436       32.790       17.931     1052.075     1075.190      321.526        0.818        0.122      117.885       18.623        0.025      336.370        7.625      862.727
12/19/2014  17:17:00      -74.840      -24.748       -1.393       24.217       22.010       15.907      586.485      484.419      253.038        0.377        0.066       78.826       11.461        0.021      336.384        7.649      862.737
12/19/2014  17:18:00     -116.957      -36.523       -4.187       20.004       34.325       18.824      400.172     1178.211      354.356        0.848        0.097      122.527       13.420        0.012      336.390        7.657      862.734
12/19/2014  17:19:00      -72.653      -45.033       -0.935       53.046       47.794       22.145     2813.841     2284.296      490.388        0.645        0.279       85.478       24.679        0.083      336.406        7.686      862.743
12/19/2014  17:20:00     -105.329      -44.984      -12.153       62.142       35.763       20.796     3861.629     1278.991      432.488        0.942        0.279      114.532       26.803        0.055      336.383        7.649      862.761
12/19/2014  17:21:00      -80.350      -60.417       -1.314       34.085       26.342       22.568     1161.778      693.907      509.315        0.624        0.118      100.531       18.127        0.033      336.401        7.678      862.763
12/19/2014  17:22:00      -79.677      -62.972       -6.179       29.952       34.522       18.845      897.105     1191.773      355.134        0.640        0.122      101.557       15.217        0.022      336.427        7.722      862.764
12/19/2014  17:23:00      -95.818      -32.273       -2.943       51.184       28.274       18.076     2619.783      799.418      326.757        0.699        0.187      101.107       22.591        0.050      336.416        7.702      862.755
12/19/2014  17:24:00      -95.191      -38.407       -6.492       72.864       37.690       22.858     5309.108     1420.569      522.489        0.891        0.363      102.647       26.388        0.066      336.460        7.774      862.755
12/19/2014  17:25:00     -141.420      -59.949       -7.717       44.901       42.178       24.757     2016.097     1778.964      612.928        1.403        0.220      153.601       25.652        0.028      336.400        7.675      862.752
12/19/2014  17:26:00      -94.044      -57.143       -6.138       41.196       31.905       19.743     1697.141     1017.910      389.770        0.763        0.155      110.044       21.290        0.037      336.406        7.686      862.736
12/19/2014  17:27:00     -119.707      -28.419       -3.021       35.433       46.274       22.440     1255.519     2141.254      503.566        0.952        0.195      123.034       17.410        0.020      336.457        7.772      862.733
12/19/2014  17:28:00     -110.397      -34.563        3.237       57.775       40.014       30.358     3337.907     1601.087      921.620        0.963        0.293      115.681       31.215        0.073      336.429        7.725      862.734
12/19/2014  17:29:00     -165.288      -77.318       -5.010       41.266       39.723       25.964     1702.902     1577.912      674.127        1.864        0.198      182.478       23.825        0.017      336.466        7.786      862.746
12/19/2014  17:30:00     -154.565      -44.934       -0.872       45.454       34.220       26.091     2066.062     1171.024      680.766        1.491        0.196      160.964       26.045        0.026      336.428        7.723      862.764
12/19/2014  17:31:00     -103.162      -67.262       -2.202       51.536       38.943       25.449     2655.988     1516.549      647.664        0.999        0.241      123.153       23.753        0.037      336.438        7.740      862.780
12/19/2014  17:32:00     -107.836      -47.245        2.126       60.860       34.250       25.833     3703.920     1173.032      667.348        0.970        0.277      117.732       32.786        0.078      336.420        7.709      862.802
12/19/2014  17:33:00      -74.347      -33.984       -1.741       54.654       30.481       29.675     2987.058      929.104      880.623        0.574        0.240       81.746       32.629        0.159      336.445        7.752      862.800
12/19/2014  17:34:00     -104.189      -33.478       -1.426       45.924       50.171       25.395     2109.029     2517.082      644.903        0.862        0.264      109.436       23.036        0.044      336.422        7.714      862.783
12/19/2014  17:35:00      -79.919      -72.333        1.448       54.883       44.658       29.061     3012.185     1994.368      844.560        0.874        0.293      107.792       34.948        0.105      336.472        7.797      862.753
12/19/2014  17:36:00      -75.972      -83.857        2.118       40.842       41.133       17.624     1668.053     1691.890      310.608        0.824        0.184      113.154       15.749        0.019      336.524        7.885      862.727
12/19/2014  17:37:00     -114.949      -91.849       -2.343       48.991       28.484       23.018     2400.106      811.315      529.842        1.270        0.187      147.138       19.922        0.018      336.494        7.835      862.727
12/19/2014  17:38:00     -100.121     -100.496       -3.170       46.339       32.512       26.193     2147.301     1057.007      686.052        1.201        0.195      141.858       16.109        0.013      336.514        7.869      862.744
12/19/2014  17:39:00     -109.624      -70.059       -5.604       46.669       45.685       24.540     2177.957     2087.154      602.193        1.091        0.243      130.099       28.284        0.047      336.465        7.785      862.753
12/19/2014  17:40:00     -141.068     -107.699       -5.499       57.809       41.508       24.956     3341.877     1722.915      622.781        1.861        0.284      177.480       32.582        0.034      336.500        7.844      862.736
12/19/2014  17:41:00      -48.874      -36.832        4.655       33.202       38.542       21.949     1102.385     1485.499      481.766        0.342        0.153       61.199       21.423        0.123      336.472        7.798      862.698
12/19/2014  17:42:00      -83.034      -82.099       -4.448       37.365       34.294       20.703     1396.134     1176.046      428.615        0.833        0.150      116.769       16.418        0.020      336.542        7.914      862.676
12/19/2014  17:43:00     -103.115      -87.572       -0.953       51.317       40.727       26.436     2633.484     1658.720      698.888        1.165        0.250      135.283       27.580        0.042      336.560        7.944      862.668
12/19/2014  17:44:00      -95.800      -87.757       -3.646       45.888       40.275       24.124     2105.713     1622.057      581.969        1.060        0.215      129.919       28.546        0.048      336.541        7.913      862.671
12/19/2014  17:45:00      -92.307      -59.895        3.440       43.481       38.298       26.909     1890.623     1466.706      724.101        0.810        0.204      110.036       22.090        0.040      336.523        7.882      862.660
12/19/2014  17:46:00      -73.179      -89.433       -1.426       44.908       36.289       26.401     2016.753     1316.876      697.024        0.869        0.202      115.557       23.438        0.041      336.527        7.890      862.637
12/19/2014  17:47:00      -51.088      -84.005        2.183       42.953       34.830       24.482     1844.922     1213.122      599.382        0.666        0.183       98.320       20.354        0.043      336.595        8.003      862.612
12/19/2014  17:48:00        2.001      -31.569       10.625       39.876       31.740       21.847     1590.132     1007.442      477.297        0.209        0.154       31.633       21.285        0.453      336.606        8.021      862.571
12/19/2014  17:49:00      -51.595      -82.440       -6.013       44.655       43.665       18.475     1994.086     1906.591      341.330        0.687        0.212       97.254       17.162        0.031      336.655        8.104      862.542
12/19/2014  17:50:00      -65.551      -97.259        2.197       62.181       44.035       31.296     3866.429     1939.052      979.421        1.027        0.339      117.287       35.458        0.091      336.656        8.103      862.520
12/19/2014  17:51:00      -84.753      -87.764        0.175       41.734       49.130       21.376     1741.714     2413.737      456.921        0.975        0.231      122.006       16.942        0.019      336.647        8.089      862.514
12/19/2014  17:52:00      -64.774     -113.278        0.922       48.018       58.157       25.237     2305.737     3382.261      636.898        1.168        0.316      130.490       22.244        0.029      336.704        8.185      862.521
12/19/2014  17:53:00      -84.697     -103.164       -0.327       83.187       43.536       34.590     6920.008     1895.412     1196.450        1.391        0.501      133.478       36.009        0.073      336.689        8.160      862.528
12/19/2014  17:54:00     -108.447      -87.817       -0.031       34.645       29.585       23.071     1200.282      875.293      532.277        1.104        0.130      139.545       18.705        0.018      336.695        8.171      862.551
12/19/2014  17:55:00     -100.144      -65.146       -4.609       44.104       32.104       22.971     1945.160     1030.658      527.680        0.890        0.175      119.469       21.210        0.032      336.681        8.146      862.571
12/19/2014  17:56:00      -99.319      -72.423       -0.056       38.526       45.758       20.829     1484.221     2093.765      433.842        0.956        0.201      122.920       16.100        0.017      336.693        8.168      862.596
12/19/2014  17:57:00     -107.634      -43.077       -1.341       37.579       25.574       18.055     1412.149      654.027      325.970        0.792        0.120      115.934       14.867        0.016      336.652        8.098      862.616
12/19/2014  17:58:00      -58.318      -62.476       -6.597       37.001       35.785       19.611     1369.050     1280.563      384.603        0.519        0.152       85.464       22.123        0.067      336.697        8.175      862.643
12/19/2014  17:59:00      -38.720      -38.652        9.776       41.405       29.258       21.101     1714.355      856.036      445.269        0.305        0.151       54.711       19.222        0.123      336.692        8.164      862.665
12/19/2014  18:00:00      -69.039      -51.825        4.292       51.415       42.441       22.675     2643.480     1801.206      514.164        0.621        0.248       86.327       26.465        0.094      336.693        8.167      862.675
12/19/2014  18:01:00      -23.219      -36.799        6.015       34.766       22.456       17.791     1208.687      504.283      316.510        0.198        0.101       43.512       16.665        0.147      336.697        8.173      862.678
12/19/2014  18:02:00       -4.764      -10.760        9.678       26.573       16.493       14.697      706.134      272.010      215.991        0.071        0.060       11.767        8.154        0.480      336.701        8.180      862.658
12/19/2014  18:03:00      -41.402      -43.707       -3.223       38.981       24.342       18.967     1519.493      592.532      359.754        0.305        0.124       60.203       12.487        0.043      336.676        8.139      862.653
12/19/2014  18:04:00      -49.024      -80.640        1.265       47.487       31.635       24.910     2255.053     1000.752      620.491        0.639        0.194       94.372       25.910        0.075      336.674        8.135      862.684
12/19/2014  18:05:00      -87.776      -82.571       -0.067       42.939       30.940       25.564     1843.801      957.277      653.529        0.899        0.173      120.510       19.411        0.026      336.588        7.992      862.719
12/19/2014  18:06:00      -99.912      -91.738        0.745       35.829       34.426       25.161     1283.720     1185.174      633.096        1.075        0.155      135.640       16.915        0.016      336.659        8.111      862.746
12/19/2014  18:07:00     -121.775     -119.436       -3.228       50.955       46.090       25.603     2596.413     2124.294      655.514        1.724        0.269      170.570       18.701        0.012      336.667        8.123      862.767
12/19/2014  18:08:00      -73.035      -87.622       -3.717       30.046       30.755       20.545      902.738      945.862      422.109        0.765        0.114      114.069        9.073        0.006      336.596        8.005      862.800
12/19/2014  18:09:00      -61.000      -69.383       -0.876       43.287       28.422       21.996     1873.798      807.804      483.829        0.585        0.158       92.385       22.132        0.057      336.578        7.976      862.805
12/19/2014  18:10:00      -38.446      -78.360        3.062       25.309       24.495       18.294      640.554      600.004      334.672        0.460        0.079       87.284       14.493        0.028      336.569        7.960      862.788
12/19/2014  18:11:00      -71.854      -43.470       -4.395       42.627       34.730       21.923     1817.050     1206.203      480.620        0.529        0.175       83.979       26.523        0.100      336.542        7.914      862.773
12/19/2014  18:12:00      -91.599      -74.046       -3.860       41.460       26.593       25.646     1718.902      707.163      657.731        0.849        0.154      117.784       23.855        0.041      336.523        7.882      862.768
12/19/2014  18:13:00      -66.489      -68.497        1.306       43.328       25.850       17.205     1877.345      668.210      296.013        0.598        0.142       95.460       20.159        0.045      336.543        7.915      862.765
12/19/2014  18:14:00      -54.898      -52.842       12.014       36.123       28.521       25.258     1304.866      813.473      637.982        0.435        0.138       76.198       22.824        0.090      336.529        7.893      862.762
12/19/2014  18:15:00      -73.205      -70.328       -0.468       40.779       32.572       22.495     1662.902     1060.954      506.004        0.677        0.161      101.514       17.470        0.030      336.542        7.914      862.763
12/19/2014  18:16:00     -120.682     -126.858       -4.480       54.832       37.713       26.287     3006.544     1422.301      690.992        1.790        0.256      175.091       28.401        0.026      336.456        7.768      862.765
12/19/2014  18:17:00      -78.203      -91.881       -2.684       56.764       43.159       24.216     3222.140     1862.662      586.424        1.012        0.284      120.655       23.898        0.039      336.470        7.793      862.742
12/19/2014  18:18:00      -42.113      -72.563        1.811       31.067       35.412       24.961      965.142     1254.029      623.036        0.494        0.142       83.898       13.970        0.028      336.459        7.775      862.697
12/19/2014  18:19:00      -31.680      -47.609       15.793       29.992       37.762       21.792      899.535     1425.957      474.904        0.316        0.140       57.186       21.753        0.145      336.488        7.824      862.631
12/19/2014  18:20:00      -47.770      -54.450       -5.103       37.998       22.049       15.935     1443.841      486.152      253.916        0.373        0.109       72.434        5.137        0.005      336.532        7.897      862.597
12/19/2014  18:21:00      -68.029      -40.108        6.668       50.631       42.741       25.413     2563.472     1826.778      645.810        0.566        0.252       78.972       26.716        0.114      336.528        7.890      862.567
12/19/2014  18:22:00     -100.042      -64.966        5.861       38.323       36.460       22.295     1468.628     1329.353      497.045        0.878        0.165      119.286       17.292        0.021      336.498        7.843      862.544
12/19/2014  18:23:00     -121.024     -113.654       -0.918       60.117       53.572       41.808     3614.081     2869.927     1747.917        1.790        0.412      166.024       42.711        0.066      336.503        7.848      862.545
12/19/2014  18:24:00      -55.301     -112.034       -8.495       46.297       49.234       24.637     2143.424     2423.957      606.986        1.043        0.259      124.940       22.450        0.032      336.524        7.885      862.564
12/19/2014  18:25:00      -82.881      -69.349      -14.101       34.927       31.193       17.235     1219.891      973.026      297.053        0.718        0.124      108.067       15.997        0.022      336.505        7.853      862.557
12/19/2014  18:26:00      -50.216      -17.347        3.708       41.675       28.222       15.615     1736.787      796.484      243.831        0.281        0.139       53.127       16.617        0.098      336.463        7.781      862.539
12/19/2014  18:27:00      -91.735      -46.394       -6.782       28.751       19.276       15.193      826.639      371.555      230.817        0.602        0.071      102.800        9.308        0.008      336.465        7.784      862.554
12/19/2014  18:28:00      -69.932      -66.591        3.338       43.190       33.965       24.658     1865.359     1153.635      608.028        0.648        0.181       96.565       22.588        0.055      336.419        7.706      862.574
12/19/2014  18:29:00      -94.231      -57.922        0.984       25.988       27.748       13.642      675.350      769.932      186.101        0.693        0.082      110.609       12.166        0.012      336.421        7.711      862.580
12/19/2014  18:30:00      -55.098      -29.737        1.396       24.798       21.624       14.788      614.947      467.602      218.689        0.261        0.065       62.611       14.692        0.055      336.406        7.688      862.566
12/19/2014  18:31:00      -94.238      -60.847       -0.061       26.097       30.516       17.806      681.036      931.204      317.055        0.726        0.096      112.175       15.582        0.019      336.424        7.716      862.573
12/19/2014  18:32:00      -77.294      -59.311       -0.963       32.284       28.562       16.173     1042.252      815.808      261.568        0.581        0.106       97.428       13.507        0.019      336.465        7.785      862.603
12/19/2014  18:33:00      -46.441      -78.061       -2.999       38.940       39.024       24.365     1516.285     1522.884      593.639        0.595        0.182       90.831       21.228        0.055      336.530        7.894      862.625
12/19/2014  18:34:00      -12.192      -31.712        5.611       20.815       30.843       21.000      433.266      951.297      441.014        0.151        0.091       33.975       11.147        0.108      336.520        7.877      862.622
12/19/2014  18:35:00       -2.907       -2.541       -5.673       20.878       23.945       17.072      435.903      573.341      291.452        0.067        0.065        3.861       11.961        9.597      336.495        7.836      862.588
12/19/2014  18:36:00      -72.676      -30.436       10.582       61.807       42.001       19.719     3820.134     1764.081      388.846        0.615        0.299       78.791       13.230        0.028      336.501        7.843      862.592
12/19/2014  18:37:00      -92.653      -82.331        1.977       50.548       39.404       24.497     2555.055     1552.664      600.127        1.004        0.235      123.948       21.584        0.030      336.479        7.810      862.626
12/19/2014  18:38:00      -45.807      -88.581       -2.152       48.956       46.537       16.841     2396.728     2165.670      283.606        0.740        0.242       99.724       18.822        0.036      336.440        7.743      862.618
12/19/2014  18:39:00       16.540       21.656        9.856       20.345       25.683       17.812      413.927      659.640      317.266        0.111        0.070       27.250       15.298        0.315      336.481        7.813      862.567
12/19/2014  18:40:00      -11.258        7.175       19.533       19.971       18.221       12.014      398.854      332.022      144.348        0.072        0.044       13.350        6.444        0.233      336.447        7.756      862.583
12/19/2014  18:41:00      -52.050      -51.256        3.110       46.195       30.980       18.690     2133.955      959.776      349.332        0.439        0.172       73.051        9.476        0.017      336.491        7.829      862.657
12/19/2014  18:42:00      -83.763      -63.049        2.958       76.448       59.132       24.778     5844.296     3496.611      613.930        1.048        0.498      104.839       25.736        0.060      336.454        7.765      862.707
12/19/2014  18:43:00      -87.327     -111.869        9.601       99.942       58.832       48.964     9988.377     3461.235     2397.487        1.804        0.792      141.918       59.799        0.178      336.307        7.519      862.713
12/19/2014  18:44:00     -171.658      -86.105        0.148       58.807       43.280       34.057     3458.232     1873.151     1159.852        2.168        0.325      192.043       27.799        0.021      336.136        7.234      862.667
12/19/2014  18:45:00      -82.945      -79.966       -4.295       60.947       18.182       19.018     3714.574      330.579      361.676        0.885        0.220      115.215       23.199        0.041      336.240        7.408      862.599
12/19/2014  18:46:00      -71.066      -18.140       -9.617       37.879       31.817       16.239     1434.841     1012.292      263.701        0.409        0.136       73.344       13.585        0.034      336.246        7.418      862.526
12/19/2014  18:47:00       39.909       42.816       31.584       66.606       31.053       26.361     4436.307      964.261      694.921        0.526        0.305       58.531       24.720        0.178      336.267        7.454      862.467
12/19/2014  18:48:00      118.701       62.615        3.965       55.830       31.141       29.317     3116.953      969.769      859.479        1.149        0.247      134.203       17.964        0.018      336.173        7.295      862.423
12/19/2014  18:49:00       50.213       72.104       62.912       49.317       35.037       31.948     2432.139     1227.620     1020.675        0.818        0.234       87.865       27.986        0.101      336.217        7.369      862.407
12/19/2014  18:50:00       17.461       55.489       77.252       35.109       56.055       35.674     1232.615     3142.132     1272.663        0.750        0.282       58.171       39.132        0.453      336.262        7.445      862.412
12/19/2014  18:51:00       64.047      -60.730        3.244       54.766       63.140       37.780     2999.323     3986.624     1427.329        0.811        0.421       88.262       26.980        0.093      336.376        7.637      862.399
12/19/2014  18:52:00       28.727       25.160       58.486       33.023       48.040       27.139     1090.504     2307.882      736.542        0.451        0.207       38.187       22.925        0.360      336.334        7.566      862.380
12/19/2014  18:53:00       78.597       61.919       36.936       34.822       30.417       34.320     1212.584      925.200     1177.864        0.734        0.166      100.057       19.430        0.038      336.346        7.585      862.350
12/19/2014  18:54:00      101.287       77.145       63.221       61.589       36.028       36.866     3793.206     1298.010     1359.115        1.333        0.323      127.320       38.098        0.090      336.335        7.569      862.314
12/19/2014  18:55:00       75.398       52.865       46.235       29.023       42.743       43.384      842.362     1827.004     1882.178        0.758        0.228       92.085       33.998        0.136      336.257        7.439      862.307
12/19/2014  18:56:00       83.552       18.872       19.018       40.753       33.348       27.545     1660.777     1112.110      758.735        0.561        0.177       85.657       14.809        0.030      336.216        7.370      862.322
12/19/2014  18:57:00       88.835       76.739       -9.243       56.899       31.034       29.041     3237.512      963.108      843.397        0.945        0.252      117.390        6.991        0.004      336.215        7.366      862.335
12/19/2014  18:58:00       67.494       35.222       34.562       33.438       27.163       29.244     1118.099      737.841      855.213        0.485        0.136       76.131       19.321        0.064      336.201        7.344      862.336
12/19/2014  18:59:00       79.336       61.888       30.826       41.298       29.838       18.309     1705.553      890.302      335.221        0.700        0.147      100.619       14.829        0.022      336.174        7.299      862.315
12/19/2014  19:00:00       62.094       25.519       26.082       29.295       21.459       13.712      858.214      460.497      188.024        0.335        0.075       67.133       10.863        0.026      336.160        7.274      862.306
12/19/2014  19:01:00       33.788       27.365      -11.342       22.634       14.334       12.087      512.285      205.467      146.102        0.144        0.043       43.480        4.154        0.009      336.157        7.269      862.285
12/19/2014  19:02:00       67.349       66.188       19.796       35.738       24.996       24.586     1277.190      624.824      604.470        0.591        0.125       94.428        9.696        0.011      336.153        7.263      862.259
12/19/2014  19:03:00       91.754       64.037       16.680       32.051       42.318       27.588     1027.273     1790.822      761.074        0.819        0.179      111.891       14.430        0.017      336.151        7.259      862.218
12/19/2014  19:04:00       99.899       85.442       52.070       52.853       29.672       33.645     2793.462      880.416     1132.009        1.240        0.240      131.454       27.119        0.043      336.167        7.286      862.203
12/19/2014  19:05:00        8.602       23.034       50.917       24.512       50.321       37.218      600.829     2532.202     1385.143        0.386        0.226       24.588       36.082        2.154      336.304        7.516      862.216
12/19/2014  19:06:00       51.870      -72.531       14.378       37.036       63.222       28.954     1371.642     3997.052      838.347        0.718        0.310       89.169       20.911        0.055      336.329        7.559      862.228
12/19/2014  19:07:00      111.027      -91.110        2.241       51.646       59.374       33.815     2667.334     3525.285     1143.429        1.398        0.367      143.624       34.805        0.059      336.250        7.425      862.213
12/19/2014  19:08:00       83.678      -73.760      -10.017       50.665       33.941       20.909     2566.902     1151.980      437.181        0.835        0.208      111.546       16.216        0.021      336.317        7.539      862.203
12/19/2014  19:09:00       53.988      -17.755       22.251       47.536       48.118       41.052     2259.690     2315.339     1685.229        0.499        0.313       56.833       35.414        0.388      336.330        7.559      862.214
12/19/2014  19:10:00       29.535       39.245       59.378       51.213       49.387       38.898     2622.815     2439.107     1513.033        0.626        0.329       49.117       39.149        0.635      336.311        7.527      862.221
12/19/2014  19:11:00       34.067       29.114       60.827       51.846       49.994       28.829     2688.023     2499.352      831.133        0.586        0.301       44.813       31.650        0.499      336.283        7.479      862.217
12/19/2014  19:12:00       25.408       -4.998       18.667       40.873       23.640       27.026     1670.625      558.848      730.419        0.199        0.148       25.894       18.815        0.528      336.285        7.484      862.218
12/19/2014  19:13:00       20.346       41.872       59.267       39.989       35.304       28.170     1599.145     1246.341      793.564        0.466        0.182       46.553       20.139        0.187      336.283        7.480      862.230
12/19/2014  19:14:00       35.318       -7.974       23.609       77.145       54.637       39.933     5951.381     2985.201     1594.620        0.620        0.527       36.207       51.710        2.040      336.267        7.453      862.252
12/19/2014  19:15:00       36.168       38.622       66.723       37.404       52.667       26.396     1399.058     2773.821      696.761        0.606        0.243       52.913       28.584        0.292      336.251        7.427      862.262
12/19/2014  19:16:00       22.740      118.141      109.700       45.140       50.677       35.554     2037.582     2568.129     1264.098        1.619        0.293      120.310       35.403        0.087      336.291        7.495      862.280
12/19/2014  19:17:00       18.815       64.335       87.363       33.785       56.978       33.230     1141.436     3246.542     1104.215        0.881        0.275       67.030       28.512        0.181      336.282        7.478      862.294
12/19/2014  19:18:00       36.190       74.988      101.184       55.492       57.526       36.449     3079.385     3309.276     1328.503        1.244        0.386       83.264       31.456        0.143      336.235        7.399      862.302
12/19/2014  19:19:00       60.212      -21.679       41.458       81.097       73.104       53.250     6576.704     5344.146     2835.584        1.028        0.738       63.996       47.320        0.547      336.294        7.499      862.307
12/19/2014  19:20:00       15.284       36.982       67.356       66.215       71.061       41.814     4384.409     5049.626     1748.435        0.866        0.559       40.016       49.502        1.530      336.251        7.425      862.311
12/19/2014  19:21:00       -5.105     -109.761       -7.129       55.140       60.852       40.148     3040.435     3702.929     1611.872        1.024        0.418      109.880       28.162        0.066      336.360        7.610      862.314
12/19/2014  19:22:00       51.508      -94.049       -2.653       37.352       55.556       36.409     1395.161     3086.460     1325.625        0.866        0.290      107.230       28.020        0.068      336.392        7.662      862.348
12/19/2014  19:23:00      -70.670      -32.738        6.427       60.885       39.393       27.135     3706.955     1551.835      736.297        0.605        0.300       77.885       23.410        0.090      336.324        7.549      862.390
12/19/2014  19:24:00     -107.176      -84.988       -5.439       42.508       32.287       23.564     1806.972     1042.467      555.242        1.107        0.170      136.783       20.197        0.022      336.222        7.378      862.428
12/19/2014  19:25:00     -140.342      -38.245      -16.019       31.310       25.981       19.968      980.311      675.003      398.733        1.173        0.103      145.460       12.721        0.008      336.245        7.417      862.437
12/19/2014  19:26:00     -131.878      -55.815       -0.441       40.343       52.087       26.677     1627.527     2713.103      711.659        1.278        0.253      143.204       22.590        0.025      336.258        7.439      862.459
12/19/2014  19:27:00      -56.748      -84.653       16.633       46.544       52.457       27.475     2166.327     2751.692      754.860        0.817        0.284      101.914       14.815        0.021      336.286        7.486      862.485
12/19/2014  19:28:00      -47.370      -76.620       -0.866       30.692       44.463       17.079      942.014     1976.992      291.695        0.566        0.161       90.081       10.212        0.013      336.278        7.472      862.487
12/19/2014  19:29:00       -5.009       25.619       24.330       22.927       15.729       16.911      525.649      247.416      285.997        0.117        0.053       26.104        9.462        0.131      336.290        7.493      862.473
12/19/2014  19:30:00        1.542       59.072       74.006       27.885       36.683       27.266      777.552     1345.636      743.439        0.592        0.143       59.092       29.900        0.256      336.316        7.534      862.454
12/19/2014  19:31:00       49.418      -56.430       14.464       32.140       44.883       30.600     1032.962     2014.459      936.360        0.491        0.199       75.010       24.778        0.109      336.296        7.503      862.468
12/19/2014  19:32:00       53.278      -11.299       16.957       29.605       35.642       23.681      876.464     1270.351      560.790        0.298        0.135       54.463       22.177        0.166      336.246        7.419      862.484
12/19/2014  19:33:00       21.536      -38.301       -3.820       27.291       34.169       21.141      744.811     1167.537      446.924        0.215        0.118       43.940       19.599        0.199      336.294        7.500      862.488
12/19/2014  19:34:00      -27.014      -43.115       -9.934       28.335       23.426       17.799      802.867      548.787      316.815        0.218        0.083       50.879        7.418        0.021      336.363        7.614      862.504
12/19/2014  19:35:00      -11.656      -13.251        1.325       23.758       23.919       13.829      564.422      572.109      191.253        0.082        0.066       17.648       15.375        0.759      336.324        7.551      862.518
12/19/2014  19:36:00      -24.149       -4.366        1.292       37.357       22.385       21.193     1395.537      501.109      449.153        0.147        0.117       24.541       20.381        0.690      336.300        7.509      862.522
12/19/2014  19:37:00      -13.140       18.908        8.690       38.356       16.764       17.191     1471.177      281.031      295.542        0.133        0.102       23.025       20.077        0.760      336.268        7.455      862.484
12/19/2014  19:38:00       36.163       23.984       28.176       23.132       20.826       18.817      535.099      433.742      354.090        0.200        0.066       43.393        6.442        0.022      336.245        7.418      862.435
12/19/2014  19:39:00        9.051       -0.017        3.873       31.828       24.472       18.578     1013.037      598.891      345.133        0.103        0.098        9.051       22.152        5.990      336.244        7.414      862.425
12/19/2014  19:40:00       18.078      -45.099       -1.735       27.534       33.999       23.487      758.101     1155.918      551.644        0.241        0.123       48.588       23.835        0.241      336.350        7.591      862.446
12/19/2014  19:41:00       20.270       52.265       49.499       24.930       38.137       33.950      621.517     1454.459     1152.583        0.441        0.161       56.058       32.496        0.336      336.250        7.427      862.445
12/19/2014  19:42:00       26.704       93.589       83.444       35.070       36.954       24.263     1229.931     1365.581      588.686        0.981        0.159       97.324       15.678        0.026      336.224        7.382      862.396
12/19/2014  19:43:00       57.741       68.859       57.783       57.378       39.489       28.511     3292.257     1559.392      812.863        0.854        0.283       89.865       18.669        0.043      336.216        7.370      862.401
12/19/2014  19:44:00       64.341       26.164       31.883       40.434       31.668       29.726     1634.936     1002.882      883.651        0.468        0.176       69.457       16.171        0.054      336.155        7.266      862.440
12/19/2014  19:45:00       51.549       49.303        4.470       29.653       33.583       15.555      879.281     1127.835      241.958        0.368        0.112       71.331       11.813        0.027      336.110        7.191      862.491
12/19/2014  19:46:00       76.792       53.420        2.665       32.096       15.274       16.308     1030.143      233.296      265.960        0.514        0.076       93.545        9.072        0.009      336.078        7.136      862.527
12/19/2014  19:47:00       75.117       60.865       26.815       31.560       25.491       22.988      996.039      649.772      528.470        0.612        0.109       96.681       11.641        0.014      336.069        7.121      862.551
12/19/2014  19:48:00       88.974       64.439        2.555       31.797       32.170       16.070     1011.069     1034.878      258.243        0.719        0.115      109.858       10.259        0.009      336.048        7.091      862.590
12/19/2014  19:49:00       51.097       41.420        9.126       44.238       25.049       30.027     1957.011      627.429      901.648        0.395        0.174       65.776       19.888        0.091      336.020        7.039      862.603
12/19/2014  19:50:00       52.000       59.284       -1.507       23.743       20.107       24.153      563.708      404.289      583.357        0.389        0.078       78.858       12.805        0.026      336.009        7.021      862.584
12/19/2014  19:51:00       32.749       61.206       -8.797       17.863       26.617       17.096      319.093      708.478      292.263        0.311        0.066       69.417       12.937        0.035      336.015        7.031      862.550
12/19/2014  19:52:00       30.123       50.433       -1.532       23.526       35.683       18.456      553.455     1273.312      340.641        0.281        0.108       58.744       16.972        0.083      336.014        7.030      862.506
12/19/2014  19:53:00       78.609       50.161        7.915       34.429       24.722       27.654     1185.351      611.194      764.721        0.566        0.128       93.250       20.259        0.047      336.032        7.061      862.460
12/19/2014  19:54:00       60.466       46.749        4.451       30.310       20.005       20.264      918.703      400.212      410.620        0.380        0.086       76.431       15.068        0.039      336.033        7.065      862.423
12/19/2014  19:55:00       68.012       44.538        4.192       19.602       22.033       13.340      384.229      485.454      177.955        0.384        0.052       81.298       11.296        0.019      336.016        7.034      862.391
12/19/2014  19:56:00       66.881       38.615        6.428       28.707       23.803       18.533      824.097      566.562      343.480        0.387        0.087       77.228        9.546        0.015      335.968        6.954      862.373
12/19/2014  19:57:00       63.817       47.621        6.329       19.821       17.827       15.704      392.857      317.793      246.630        0.367        0.048       79.626        6.230        0.006      335.931        6.892      862.355
12/19/2014  19:58:00       83.316       68.947       13.839       37.926       25.392       25.961     1438.383      644.752      673.965        0.732        0.138      108.145       14.824        0.019      335.936        6.901      862.312
12/19/2014  19:59:00       93.355       84.361       11.151       40.428       29.858       29.232     1634.452      891.509      854.520        0.967        0.169      125.825       18.891        0.023      335.934        6.896      862.264
12/19/2014  20:00:00      109.260       72.845       17.670       44.061       29.078       28.864     1941.389      845.533      833.105        1.059        0.181      131.317       18.624        0.020      335.922        6.877      862.225
12/19/2014  20:01:00       90.277       66.930       20.018       38.484       26.203       24.235     1480.993      686.576      587.344        0.789        0.138      112.381       14.698        0.017      335.936        6.900      862.220
12/19/2014  20:02:00       88.887       67.608       10.933       27.493       26.008       19.999      755.889      676.432      399.962        0.721        0.092      111.677       14.727        0.017      335.952        6.929      862.240
12/19/2014  20:03:00       36.122       39.241        9.339       22.405       21.887       14.431      501.999      479.046      208.258        0.206        0.059       53.336       10.901        0.042      335.940        6.907      862.268
12/19/2014  20:04:00       90.252       62.931        5.702       20.343       16.750       17.532      413.824      280.555      307.374        0.657        0.050      110.026       10.724        0.009      335.976        6.968      862.252
12/19/2014  20:05:00       46.829       40.200       17.001       36.214       26.526       20.631     1311.467      703.634      425.623        0.327        0.122       61.717       16.855        0.075      335.966        6.952      862.215
12/19/2014  20:06:00       58.087       59.631       11.111       46.790       26.783       24.458     2189.332      717.313      598.206        0.528        0.175       83.247       23.802        0.082      335.986        6.983      862.210
12/19/2014  20:07:00       24.354       38.788        5.019       31.208       25.012       16.685      973.918      625.613      278.378        0.200        0.094       45.800       10.984        0.058      335.951        6.924      862.234
12/19/2014  20:08:00       20.070       87.055      -11.093       19.305       20.986       14.263      372.688      440.395      203.435        0.456        0.051       89.338       10.483        0.014      336.007        7.018      862.266
12/19/2014  20:09:00        5.964       83.973      -14.990       16.310       17.750        7.107      266.014      315.076       50.513        0.397        0.032       84.184        4.499        0.003      336.022        7.044      862.296
12/19/2014  20:10:00       14.268       98.574      -15.731       12.965       13.586       11.196      168.083      184.587      125.342        0.532        0.024       99.602        7.443        0.006      336.037        7.069      862.322
12/19/2014  20:11:00       32.121      116.722      -14.929       23.357       24.627       14.918      545.540      606.505      222.541        0.813        0.069      121.062       14.540        0.014      335.974        6.965      862.318
12/19/2014  20:12:00       63.208       82.790      -10.473       52.246       42.299       31.106     2729.614     1789.240      967.602        0.822        0.274      104.161       26.983        0.067      335.967        6.951      862.301
12/19/2014  20:13:00      171.093       93.080       10.107       36.873       24.562       26.122     1359.643      603.276      682.358        2.034        0.132      194.774       14.187        0.005      336.011        7.026      862.287
12/19/2014  20:14:00       88.331       72.443       45.000       48.451       36.954       41.176     2347.521     1365.592     1695.456        1.024        0.270      114.238       26.554        0.054      335.959        6.939      862.270
12/19/2014  20:15:00       31.942       69.970       69.466       46.211       36.183       37.950     2135.498     1309.221     1440.231        0.781        0.244       76.916       36.699        0.228      335.996        7.002      862.254
12/19/2014  20:16:00       67.613       41.126       47.024       54.496       44.344       39.390     2969.866     1966.396     1551.558        0.748        0.324       79.138       34.481        0.190      335.987        6.986      862.229
12/19/2014  20:17:00       82.784       22.461       23.481       46.089       40.635       32.734     2124.234     1651.223     1071.505        0.638        0.242       85.777       23.101        0.073      336.018        7.036      862.208
12/19/2014  20:18:00       81.350       26.357       18.173       42.369       35.179       31.979     1795.152     1237.565     1022.647        0.585        0.203       85.513       21.055        0.061      336.020        7.038      862.198
12/19/2014  20:19:00       98.849       56.102       20.355       43.674       26.308       25.776     1907.395      692.100      664.399        0.830        0.163      113.660       17.579        0.024      335.995        7.000      862.207
12/19/2014  20:20:00       74.805       34.508       17.468       51.181       23.648       25.386     2619.524      559.207      644.468        0.546        0.191       82.381       26.217        0.101      335.998        7.002      862.230
12/19/2014  20:21:00       21.427       23.616        2.600       29.818       21.377       15.108      889.101      456.997      228.241        0.130        0.079       31.888        5.050        0.025      336.009        7.020      862.249
12/19/2014  20:22:00        7.664       38.031        8.805       22.619       18.460       16.456      511.631      340.771      270.794        0.135        0.056       38.795       11.738        0.092      336.028        7.054      862.239
12/19/2014  20:23:00       26.075       56.904       -1.427       18.153       19.678       13.965      329.541      387.213      195.019        0.242        0.046       62.593       10.391        0.028      336.061        7.110      862.217
12/19/2014  20:24:00       28.180       57.506       -4.033       22.714       24.765       16.357      515.943      613.325      267.565        0.276        0.070       64.040       15.394        0.058      336.032        7.061      862.189
12/19/2014  20:25:00       27.141       66.219       -4.258       30.264       47.346       21.511      915.886     2241.609      462.731        0.438        0.181       71.566       24.857        0.121      336.025        7.049      862.164
12/19/2014  20:26:00       36.983       65.627       -6.019       23.404       29.710       13.512      547.771      882.697      182.571        0.366        0.081       75.330        7.739        0.011      336.044        7.081      862.160
12/19/2014  20:27:00       17.103       84.378      -18.197       19.943       29.766       14.402      397.741      885.995      207.432        0.462        0.075       86.094       13.893        0.026      336.051        7.093      862.167
12/19/2014  20:28:00       42.907       84.755       -5.014       23.693       30.939       22.713      561.358      957.215      515.876        0.554        0.102       94.997       15.428        0.026      336.033        7.062      862.193
12/19/2014  20:29:00       86.509       72.409       11.332       54.344       38.686       23.398     2953.283     1496.613      547.489        0.893        0.250      112.814       17.569        0.024      336.001        7.008      862.188
12/19/2014  20:30:00      158.407       76.845        6.622       39.336       36.091       30.211     1547.308     1302.547      912.714        1.740        0.188      176.063       20.302        0.013      335.952        6.926      862.195
12/19/2014  20:31:00       38.036       44.974       13.948       44.394       29.450       29.175     1970.789      867.282      851.188        0.368        0.184       58.902       23.430        0.158      335.927        6.887      862.195
12/19/2014  20:32:00       35.235       44.064       -4.940       23.308       39.556       19.133      543.240     1564.677      366.064        0.284        0.124       56.419       17.969        0.101      335.949        6.922      862.201
12/19/2014  20:33:00       42.283       21.113        0.933       21.026       19.135       15.284      442.096      366.155      233.597        0.164        0.052       47.261       10.412        0.049      336.004        7.015      862.218
12/19/2014  20:34:00       53.745       35.738        4.120       26.146       14.129       17.525      683.623      199.637      307.134        0.269        0.060       64.542        8.368        0.017      336.010        7.022      862.210
12/19/2014  20:35:00       20.612       40.174       -7.257       14.745       19.594       10.495      217.414      383.906      110.153        0.140        0.036       45.154        9.746        0.047      335.992        6.993      862.216
12/19/2014  20:36:00       21.795       30.572       -1.552       23.301       23.514       14.862      542.935      552.893      220.878        0.136        0.066       37.546       13.105        0.122      335.981        6.977      862.222
12/19/2014  20:37:00       37.467       45.138        0.425       22.954       30.858       18.349      526.899      952.191      336.698        0.263        0.091       58.662       19.612        0.112      335.965        6.950      862.239
12/19/2014  20:38:00       36.089       49.019      -10.150       19.492       19.238       15.231      379.949      370.104      231.996        0.240        0.049       60.871       13.341        0.048      335.963        6.944      862.268
12/19/2014  20:39:00       14.411       64.244       -8.635       15.954       17.125       10.360      254.545      293.258      107.321        0.253        0.033       65.840        6.519        0.010      335.961        6.942      862.300
12/19/2014  20:40:00       10.916      103.514      -18.843       10.451       15.068        8.575      109.220      227.051       73.537        0.580        0.020      104.088        5.632        0.003      335.977        6.969      862.317
12/19/2014  20:41:00       28.213      112.110      -21.622       22.804       23.738       14.217      520.031      563.503      202.119        0.756        0.064      115.606       10.088        0.008      335.989        6.990      862.330
12/19/2014  20:42:00       22.455       79.867       -7.564       22.282       46.680       23.823      496.470     2178.998      567.555        0.509        0.162       82.963       27.299        0.108      335.985        6.984      862.338
12/19/2014  20:43:00       61.185       44.787        0.184       35.588       22.029       17.453     1266.489      485.272      304.603        0.390        0.103       75.825        8.957        0.014      335.995        6.999      862.361
12/19/2014  20:44:00       40.724       50.496      -10.452       28.197       30.519       20.324      795.049      931.410      413.046        0.323        0.107       64.871       13.148        0.041      336.049        7.091      862.372
12/19/2014  20:45:00      105.575       53.883       17.427       36.575       22.906       22.433     1337.766      524.677      503.238        0.836        0.118      118.530       15.161        0.016      336.041        7.076      862.361
12/19/2014  20:46:00      121.177       50.665        4.126       46.557       32.015       28.558     2167.520     1024.948      815.544        1.064        0.200      131.342       21.479        0.027      336.040        7.075      862.341
12/19/2014  20:47:00      106.643       54.250       14.017       36.003       29.251       24.220     1296.234      855.632      586.596        0.862        0.137      119.648       17.773        0.022      335.973        6.961      862.326
12/19/2014  20:48:00      102.303       57.725       51.295       60.629       48.454       41.954     3675.824     2347.742     1760.127        1.210        0.389      117.465       30.357        0.067      336.089        7.155      862.326
12/19/2014  20:49:00       59.860       68.766       47.898       42.853       40.989       45.797     1836.365     1680.118     2097.392        0.811        0.281       91.170       20.064        0.048      336.088        7.156      862.332
12/19/2014  20:50:00       58.700       26.948       39.806       38.731       32.485       27.656     1500.103     1055.278      764.853        0.454        0.166       64.590       18.533        0.082      336.110        7.191      862.341
12/19/2014  20:51:00       53.612       35.953       55.540       55.412       45.571       32.225     3070.540     2076.701     1038.433        0.672        0.309       64.552       36.399        0.318      336.091        7.160      862.342
12/19/2014  20:52:00       87.442       58.496       30.617       31.101       22.183       31.831      967.248      492.089     1013.210        0.724        0.124      105.204       17.991        0.029      336.056        7.100      862.347
12/19/2014  20:53:00       83.495       63.510       17.803       33.184       34.203       34.736     1101.154     1169.841     1206.588        0.740        0.174      104.904       25.538        0.059      336.010        7.024      862.338
12/19/2014  20:54:00       54.611      101.778       65.733       49.372       37.294       37.236     2437.548     1390.839     1386.526        1.144        0.261      115.504       33.025        0.082      336.037        7.070      862.317
12/19/2014  20:55:00       81.402       34.146       44.256       53.614       39.713       38.295     2874.414     1577.138     1466.474        0.783        0.296       88.274       31.542        0.128      336.068        7.120      862.296
12/19/2014  20:56:00      103.465       76.467       68.818       56.077       53.001       50.100     3144.595     2809.087     2510.050        1.487        0.423      128.656       39.099        0.092      336.072        7.127      862.283
12/19/2014  20:57:00       72.167       46.310       50.710       48.785       34.618       30.892     2379.987     1198.416      954.298        0.723        0.227       85.748       19.923        0.054      336.044        7.080      862.266
12/19/2014  20:58:00       43.277       53.068       58.127       34.475       32.632       30.351     1188.554     1064.821      921.177        0.562        0.159       68.477       22.103        0.104      336.042        7.077      862.266
12/19/2014  20:59:00       99.575       61.488       27.426       33.322       31.590       23.430     1110.383      997.900      548.946        0.855        0.133      117.030       19.337        0.027      336.043        7.080      862.283
12/19/2014  21:00:00       82.102       39.556       20.386       34.674       28.222       25.680     1202.258      796.469      659.454        0.569        0.133       91.134       21.073        0.053      336.029        7.055      862.311
12/19/2014  21:01:00      128.562       52.478       20.053       25.671       26.552       22.638      658.978      704.992      512.456        1.078        0.094      138.860       16.317        0.014      336.026        7.051      862.338
12/19/2014  21:02:00       82.725       19.368        3.767       52.661       45.345       29.113     2773.199     2056.173      847.563        0.645        0.284       84.962       23.729        0.078      336.006        7.016      862.359
12/19/2014  21:03:00      113.752       67.984       18.864       23.940       22.683       24.845      573.135      514.508      617.299        0.981        0.085      132.519       12.975        0.010      335.996        7.001      862.372
12/19/2014  21:04:00      117.113       68.966       16.586       37.058       34.445       34.530     1373.318     1186.436     1192.336        1.125        0.188      135.911       25.636        0.036      336.015        7.032      862.379
12/19/2014  21:05:00      107.718       65.388       13.898       44.546       31.710       33.914     1984.388     1005.512     1150.137        1.011        0.207      126.011       27.208        0.047      335.989        6.990      862.376
12/19/2014  21:06:00      108.848       75.349       17.055       41.259       25.723       28.506     1702.342      661.674      812.604        1.050        0.159      132.383       22.677        0.029      335.981        6.976      862.380
12/19/2014  21:07:00       79.982       57.205       23.816       43.750       39.040       31.507     1914.042     1524.125      992.697        0.733        0.222       98.334       24.917        0.064      335.983        6.980      862.393
12/19/2014  21:08:00       87.849       76.404        5.421       41.411       25.566       24.975     1714.905      653.608      623.737        0.829        0.150      116.426       13.229        0.013      335.962        6.943      862.416
12/19/2014  21:09:00      117.422       64.978        4.256       49.222       34.274       33.925     2422.845     1174.716     1150.908        1.139        0.237      134.201       26.017        0.038      335.970        6.957      862.439
12/19/2014  21:10:00      106.123       86.686       17.312       50.753       41.885       37.554     2575.874     1754.366     1410.283        1.241        0.287      137.028       20.908        0.023      335.965        6.948      862.467
12/19/2014  21:11:00       69.920       50.806        7.590       29.292       27.413       21.720      858.032      751.466      471.750        0.480        0.104       86.430       13.331        0.024      335.972        6.960      862.518
12/19/2014  21:12:00      110.556       73.883       21.391       40.328       28.782       23.110     1626.360      828.431      534.053        1.056        0.149      132.971       11.641        0.008      335.988        6.987      862.563
12/19/2014  21:13:00       82.694       66.188       21.169       27.771       27.403       22.475      771.220      750.920      505.142        0.685        0.101      105.920       14.994        0.020      335.980        6.976      862.591
12/19/2014  21:14:00       79.033       48.466        7.819       26.656       22.725       16.796      710.561      516.410      282.096        0.508        0.075       92.711       15.458        0.028      335.990        6.991      862.597
12/19/2014  21:15:00       62.744       37.401       13.334       29.530       20.904       14.583      871.996      436.964      212.649        0.352        0.076       73.046       15.590        0.046      335.979        6.972      862.598
12/19/2014  21:16:00       55.426       44.628        1.326       36.178       30.127       20.865     1308.879      907.657      435.337        0.386        0.133       71.159       18.909        0.071      335.969        6.955      862.600
12/19/2014  21:17:00       49.630       39.158        7.388       35.092       18.510       18.614     1231.430      342.620      346.474        0.299        0.096       63.218       12.246        0.038      335.951        6.924      862.595
12/19/2014  21:18:00       34.146       51.288        2.272       25.841       33.522       24.315      667.739     1123.703      591.216        0.309        0.119       61.615       23.536        0.146      335.962        6.943      862.596
12/19/2014  21:19:00       16.986       46.458       -5.547       20.912       32.336       17.691      437.301     1045.626      312.965        0.214        0.090       49.466       17.277        0.122      335.953        6.928      862.608
12/19/2014  21:20:00       23.851       70.002      -10.935       16.286       29.889       14.885      265.224      893.363      221.578        0.348        0.069       73.953       15.193        0.042      335.943        6.911      862.637
12/19/2014  21:21:00       15.502       86.130      -14.975       13.558       19.977       11.498      183.821      399.090      132.215        0.430        0.036       87.514       10.478        0.014      335.944        6.911      862.650
12/19/2014  21:22:00       20.051       82.203       -6.185       27.668       39.096       20.039      765.506     1528.492      401.559        0.495        0.135       84.613       20.924        0.061      335.927        6.885      862.667
12/19/2014  21:23:00       16.000       80.661       -9.068       25.430       26.912       16.913      646.681      724.246      286.055        0.425        0.083       82.232       16.572        0.041      335.928        6.890      862.695
12/19/2014  21:24:00        2.867      107.894      -18.910       16.654       22.500        6.578      277.347      506.269       43.269        0.642        0.041      107.932        7.124        0.004      335.955        6.929      862.725
12/19/2014  21:25:00      -17.707      109.550      -23.357       12.682       12.391        9.086      160.825      153.539       82.554        0.663        0.020      110.972        4.342        0.002      335.989        6.988      862.760
12/19/2014  21:26:00      -60.254       68.729      -10.306       17.214       24.569       19.304      296.335      603.638      372.637        0.487        0.064       91.401       13.698        0.022      336.124        7.215      862.777
12/19/2014  21:27:00      -66.307       63.991      -14.398       14.924       15.565       14.833      222.732      242.284      220.033        0.469        0.034       92.149        8.830        0.009      336.053        7.096      862.790
12/19/2014  21:28:00      -59.869       58.029      -21.687        9.985       16.672        9.138       99.707      277.964       83.494        0.394        0.023       83.377        3.666        0.002      336.031        7.060      862.787
12/19/2014  21:29:00      -51.431       68.426       -5.693       17.730       19.152       15.924      314.368      366.796      253.571        0.415        0.047       85.600        9.437        0.012      336.107        7.186      862.784
12/19/2014  21:30:00      -40.430      -13.676       -4.259       29.943       33.299       15.948      896.569     1108.816      254.328        0.205        0.113       42.680       11.079        0.067      336.252        7.429      862.795
12/19/2014  21:31:00      -67.316      -28.541       -7.043       20.702       28.427       15.991      428.592      808.117      255.702        0.344        0.075       73.117       14.292        0.038      336.216        7.370      862.804
12/19/2014  21:32:00      -57.983      -12.344       -0.401       22.955       14.140       13.620      526.947      199.930      185.509        0.221        0.046       59.282        6.776        0.013      336.075        7.133      862.818
12/19/2014  21:33:00      -25.622       -8.165        9.732       23.086       19.915       18.189      532.941      396.589      330.852        0.104        0.063       26.891       14.224        0.280      336.098        7.171      862.824
12/19/2014  21:34:00      -53.929      -17.591       -7.741       23.032       13.685       13.169      530.490      187.285      173.412        0.208        0.045       56.726       11.445        0.041      336.063        7.113      862.828
12/19/2014  21:35:00      -20.529       -0.539        1.338       22.626       11.173       12.314      511.932      124.845      151.633        0.061        0.039       20.536       10.946        0.284      336.080        7.142      862.815
12/19/2014  21:36:00       -4.800      -21.577        2.968        8.772       16.566        9.590       76.946      274.445       91.960        0.047        0.022       22.104        6.333        0.082      336.117        7.203      862.813
12/19/2014  21:37:00       -0.986       -7.292       23.433       16.025       27.057       14.032      256.812      732.088      196.902        0.089        0.059        7.359       15.334        4.342      336.127        7.218      862.818
12/19/2014  21:38:00        7.072       94.121       85.506       13.917       22.995       15.881      193.689      528.752      252.203        0.860        0.049       94.386       13.657        0.021      336.087        7.153      862.809
12/19/2014  21:39:00       48.474      108.771       98.312       42.796       21.347       19.645     1831.495      455.683      385.916        1.326        0.134      119.083       17.042        0.020      336.113        7.195      862.806
12/19/2014  21:40:00       57.640       65.181       64.661       54.121       39.752       28.890     2929.132     1580.217      834.635        0.855        0.267       87.011       28.122        0.104      336.165        7.283      862.824
12/19/2014  21:41:00       15.676       57.717       67.357       38.101       32.478       18.876     1451.672     1054.839      356.312        0.549        0.143       59.808       17.056        0.081      336.180        7.309      862.860
12/19/2014  21:42:00       20.929      -12.655       21.730       30.664       48.779       26.207      940.255     2379.377      686.794        0.254        0.200       24.457       30.751        1.581      336.184        7.315      862.889
12/19/2014  21:43:00       43.830      -61.421       -1.329       21.354       22.234       20.600      456.002      494.335      424.367        0.353        0.069       75.456       13.199        0.031      336.249        7.425      862.939
12/19/2014  21:44:00       22.424      -31.892       10.982       21.166       31.740       18.432      448.011     1007.457      339.742        0.172        0.090       38.986       17.013        0.190      336.271        7.462      862.984
12/19/2014  21:45:00      -26.118       24.074       11.211       41.062       39.465       22.127     1686.117     1557.495      489.611        0.256        0.187       35.520       20.839        0.344      336.243        7.413      863.014
12/19/2014  21:46:00      -86.159       19.602       -4.709       57.095       47.357       33.534     3259.789     2242.695     1124.521        0.723        0.331       88.361       33.383        0.143      336.253        7.429      863.045
12/19/2014  21:47:00     -104.463      -12.060       -2.403       47.969       35.747       25.001     2301.017     1277.872      625.037        0.763        0.210      105.157       22.628        0.046      336.195        7.334      863.078
12/19/2014  21:48:00      -98.891      -22.034       -2.853       28.910       23.786       18.500      835.786      565.764      342.232        0.601        0.087      101.316       12.243        0.015      336.070        7.125      863.106
12/19/2014  21:49:00      -28.636      -22.271       -4.563       37.946       18.986       19.419     1439.936      360.474      377.102        0.176        0.109       36.277       12.643        0.121      336.118        7.205      863.116
12/19/2014  21:50:00       49.582       29.541       13.069       37.713       40.390       18.069     1422.269     1631.384      326.504        0.344        0.169       57.715       13.072        0.051      336.054        7.100      863.094
12/19/2014  21:51:00      104.788      103.979       44.670       58.266       40.849       48.723     3394.881     1668.649     2373.972        1.561        0.372      147.622       35.654        0.058      336.030        7.057      863.051
12/19/2014  21:52:00      -15.191       57.867       92.807       28.149       62.708       32.519      792.350     3932.246     1057.501        0.899        0.289       59.828       34.841        0.339      336.078        7.139      863.047
12/19/2014  21:53:00       27.109      -81.155        3.585       51.821       41.020       34.501     2685.383     1682.615     1190.346        0.645        0.278       85.563       39.924        0.218      336.205        7.350      863.091
12/19/2014  21:54:00        0.940      -69.150       -6.999       31.126       26.220       18.969      968.832      687.468      359.809        0.342        0.101       69.157       17.670        0.065      336.202        7.345      863.115
12/19/2014  21:55:00      -37.097      -40.308        8.330       37.011       33.767       21.208     1369.794     1140.221      449.762        0.301        0.148       54.781       21.015        0.147      336.246        7.418      863.127
12/19/2014  21:56:00       -8.168       24.059       30.597       23.752       16.055       16.532      564.150      257.759      273.300        0.134        0.055       25.408       15.420        0.368      336.242        7.413      863.123
12/19/2014  21:57:00        5.182       32.979       41.373       16.029       21.131       16.229      256.931      446.518      263.364        0.190        0.048       33.383        9.520        0.081      336.242        7.413      863.115
12/19/2014  21:58:00       36.388       18.041       18.466       25.117       15.313       20.510      630.850      234.486      420.652        0.164        0.064       40.615       16.961        0.174      336.149        7.258      863.115
12/19/2014  21:59:00       35.216       20.959        9.286       13.941       11.830       14.066      194.348      139.945      197.863        0.115        0.027       40.981        7.135        0.030      336.120        7.208      863.125
12/19/2014  22:00:00       44.543       40.499        7.324       10.647       16.787       16.742      113.365      281.810      280.281        0.218        0.034       60.202       11.489        0.036      336.081        7.142      863.113
12/19/2014  22:01:00       44.567       37.663        2.363       26.520       13.143       16.236      703.305      172.744      263.600        0.227        0.057       58.350        5.367        0.008      336.065        7.118      863.101
12/19/2014  22:02:00       63.452       44.130        5.958       18.283       17.028       21.173      334.255      289.941      448.291        0.354        0.054       77.289       12.491        0.026      336.075        7.131      863.103
12/19/2014  22:03:00       14.182       55.541      -10.102       12.489       15.043        9.281      155.971      226.294       86.139        0.193        0.023       57.323        6.656        0.013      336.048        7.087      863.102
12/19/2014  22:04:00       14.755       58.566       -5.543       14.031       21.532       13.786      196.867      463.639      190.060        0.226        0.043       60.396       13.617        0.051      336.057        7.100      863.097
12/19/2014  22:05:00       31.048       41.352       -7.790       14.849       14.792       12.297      220.500      218.817      151.226        0.166        0.030       51.711       10.986        0.045      336.069        7.120      863.094
12/19/2014  22:06:00       24.295       28.891       -2.225        9.828       14.642       12.019       96.593      214.391      144.449        0.094        0.023       37.749       10.827        0.082      336.066        7.117      863.078
12/19/2014  22:07:00       28.777       43.412       -5.758       11.290       21.042        9.383      127.467      442.760       88.039        0.170        0.033       52.083        9.884        0.036      336.050        7.093      863.068
12/19/2014  22:08:00       26.605       63.106      -10.533       12.270       25.806       12.242      150.551      665.960      149.863        0.288        0.048       68.485       14.306        0.044      336.071        7.123      863.056
12/19/2014  22:09:00       24.658       65.996       -8.368        9.502       14.223       11.291       90.283      202.306      127.496        0.273        0.021       70.452        5.372        0.006      336.074        7.133      863.037
12/19/2014  22:10:00       27.175       64.024      -10.595       13.129       21.123        9.938      172.372      446.162       98.767        0.283        0.036       69.553       10.291        0.022      336.087        7.153      863.030
12/19/2014  22:11:00       26.397       37.979        2.287       17.814       16.647       11.969      317.328      277.112      143.264        0.144        0.037       46.252        8.230        0.032      336.067        7.119      863.033
12/19/2014  22:12:00       50.400       40.004        4.315       12.115        7.308        9.079      146.762       53.410       82.432        0.222        0.014       64.347        4.109        0.004      336.072        7.128      863.038
12/19/2014  22:13:00       66.866       29.743        3.772       14.001        8.929       12.761      196.029       79.719      162.849        0.290        0.022       73.183        8.361        0.013      336.080        7.141      863.039
12/19/2014  22:14:00       87.203       43.724        2.075       10.979       13.449       12.317      120.535      180.875      151.709        0.499        0.023       97.551        7.676        0.006      336.062        7.111      863.052
12/19/2014  22:15:00       96.899       42.895        5.100       24.891       16.480       13.394      619.585      271.600      179.398        0.616        0.054      105.969       11.484        0.012      336.027        7.051      863.043
12/19/2014  22:16:00       71.354       44.617       11.359       19.284       13.924       16.083      371.860      193.885      258.672        0.402        0.041       84.155       10.751        0.016      336.006        7.017      863.046
12/19/2014  22:17:00       43.764       20.138        8.617       18.556       17.191       12.162      344.341      295.522      147.904        0.159        0.039       48.175       10.847        0.051      336.024        7.046      863.077
12/19/2014  22:18:00       57.836       41.384       11.475       15.710       13.364       13.319      246.804      178.590      177.405        0.290        0.030       71.117        7.332        0.011      335.997        7.002      863.086
12/19/2014  22:19:00       50.693       44.312       -4.155       22.668       26.846       16.800      513.821      720.714      282.253        0.303        0.076       67.330       14.511        0.046      335.983        6.979      863.073
12/19/2014  22:20:00       22.030       48.398       -1.163       13.490       30.749       16.763      181.977      945.504      281.001        0.212        0.070       53.176       19.986        0.141      335.963        6.945      863.080
12/19/2014  22:21:00        2.157      112.706      -22.171       10.098       21.231        5.755      101.971      450.769       33.124        0.689        0.029      112.727        5.660        0.003      335.922        6.880      863.087
12/19/2014  22:22:00       -9.226      129.135      -23.381        6.972       10.222        6.694       48.610      104.486       44.808        0.875        0.010      129.464        3.914        0.001      335.946        6.916      863.088
12/19/2014  22:23:00       -3.820      108.171      -17.595        8.247       15.694        6.138       68.008      246.301       37.680        0.619        0.018      108.238        4.087        0.001      336.006        7.018      863.084
12/19/2014  22:24:00        8.016       78.368       -9.864       11.427       13.377        8.114      130.586      178.945       65.835        0.334        0.019       78.776        6.526        0.007      336.051        7.092      863.088
12/19/2014  22:25:00        5.672       74.555      -12.914       15.233       19.234       11.229      232.031      369.952      126.101        0.324        0.036       74.771        4.003        0.003      336.187        7.321      863.104
12/19/2014  22:26:00      -25.608       28.097        2.516       17.946       18.730       14.186      322.046      350.799      201.230        0.116        0.044       38.016       12.967        0.116      336.114        7.198      863.112
12/19/2014  22:27:00      -21.798       -4.250        0.462       13.418       10.427        9.619      180.036      108.715       92.524        0.044        0.019       22.208        7.992        0.130      336.074        7.131      863.123
12/19/2014  22:28:00      -15.128        0.350        8.606       14.733       14.588        8.204      217.075      212.803       67.309        0.040        0.025       15.132        9.732        0.414      336.023        7.046      863.132
12/19/2014  22:29:00       53.788       29.771       15.615       16.484        8.249       10.221      271.709       68.049      104.466        0.223        0.022       61.477        4.870        0.006      336.032        7.061      863.100
12/19/2014  22:30:00       43.593       13.214        0.679       21.976       13.139       13.047      482.929      172.632      170.214        0.145        0.041       45.552        8.750        0.037      335.991        6.991      863.066
12/19/2014  22:31:00       66.795       33.445        9.482       15.945       15.954       10.310      254.235      254.532      106.286        0.314        0.031       74.700        7.081        0.009      335.966        6.949      863.034
12/19/2014  22:32:00      134.962       69.692        2.336       27.682       25.619       17.345      766.318      656.322      300.866        1.240        0.086      151.894       13.786        0.008      336.030        7.058      862.991
12/19/2014  22:33:00      137.034       67.105        5.320       33.853       24.691       22.183     1146.012      609.639      492.068        1.278        0.112      152.583       13.527        0.008      336.006        7.016      862.966
12/19/2014  22:34:00       84.034       33.078        3.448       40.061       33.547       27.398     1604.882     1125.381      750.631        0.582        0.174       90.310       20.975        0.054      335.971        6.960      862.964
12/19/2014  22:35:00       68.175       27.095        8.322       21.741       18.809       16.324      472.672      353.777      266.478        0.327        0.055       73.362       10.266        0.020      335.958        6.936      862.964
12/19/2014  22:36:00       59.705       22.983       10.921       17.129       13.506       16.543      293.388      182.402      273.685        0.248        0.037       63.976        9.218        0.021      335.977        6.968      862.966
12/19/2014  22:37:00       37.357       22.907       33.857       16.625       14.848       14.226      276.400      220.472      202.367        0.188        0.035       43.821        9.441        0.046      335.958        6.938      862.962
12/19/2014  22:38:00       29.785       10.317       24.393       21.399       17.714       17.120      457.928      313.771      293.091        0.133        0.053       31.521       12.182        0.149      336.001        7.009      862.979
12/19/2014  22:39:00      -10.437       16.613       22.690       11.153       12.407        9.475      124.393      153.938       89.772        0.063        0.018       19.620        8.543        0.190      336.020        7.040      863.007
12/19/2014  22:40:00      -44.382        0.198       -0.351       16.285       16.779        9.725      265.197      281.547       94.581        0.131        0.032       44.383        7.594        0.029      336.053        7.095      863.025
12/19/2014  22:41:00      -40.272      -20.048       -3.348       28.172       20.560       12.449      793.686      422.725      154.976        0.170        0.069       44.986       12.999        0.083      336.026        7.051      863.033
12/19/2014  22:42:00      -34.258      -18.221        2.061       23.499       17.742       10.769      552.206      314.789      115.970        0.125        0.049       38.802        9.848        0.064      336.024        7.048      863.052
12/19/2014  22:43:00      -16.056      -12.713        8.912       19.366        9.915       11.130      375.032       98.313      123.884        0.055        0.030       20.480       10.138        0.245      336.032        7.060      863.068
12/19/2014  22:44:00       -4.727       -2.824        7.481       21.015       14.161       15.672      441.616      200.535      245.619        0.049        0.044        5.506       14.332        6.775      336.081        7.144      863.071
12/19/2014  22:45:00       13.248       45.419       39.970       14.587       22.580       20.011      212.786      509.841      400.427        0.248        0.056       47.311       14.573        0.095      336.096        7.170      863.074
12/19/2014  22:46:00       41.842       46.793       54.497       45.615       30.943       24.116     2080.691      957.483      581.565        0.526        0.181       62.772       19.722        0.099      336.083        7.145      863.078
12/19/2014  22:47:00       44.280       73.358       81.733       34.673       36.238       17.761     1202.219     1313.167      315.452        0.843        0.142       85.686       16.910        0.039      336.081        7.142      863.074
12/19/2014  22:48:00       47.594       55.441       70.594       38.960       30.873       26.081     1517.874      953.151      680.235        0.674        0.158       73.068       20.451        0.078      336.070        7.125      863.082
12/19/2014  22:49:00       27.896       27.931       54.237       32.526       76.821       37.354     1057.948     5901.482     1395.312        0.643        0.418       39.476       50.401        1.630      336.082        7.143      863.078
12/19/2014  22:50:00       29.804      -38.923       21.703       37.996       39.940       30.503     1443.667     1595.235      930.463        0.342        0.198       49.023       25.767        0.276      336.072        7.128      863.063
12/19/2014  22:51:00       38.512      -41.972       10.597       38.974       55.265       26.566     1519.011     3054.265      705.757        0.432        0.264       56.964       30.160        0.280      336.043        7.079      863.076
12/19/2014  22:52:00       77.690     -100.880       -9.570       20.966       39.884       17.848      439.556     1590.736      318.552        0.933        0.117      127.328       10.588        0.007      336.120        7.207      863.095
12/19/2014  22:53:00       28.729      -21.115       22.279       35.902       49.655       31.337     1288.918     2465.592      981.998        0.325        0.237       35.654       27.311        0.587      336.160        7.273      863.073
12/19/2014  22:54:00       40.687      -50.547        0.988       26.812       28.660       27.883      718.871      821.405      777.478        0.326        0.116       64.888       19.285        0.088      336.102        7.179      863.059
12/19/2014  22:55:00       36.504      -46.021       -2.078       19.945       19.301       18.517      397.810      372.512      342.891        0.228        0.056       58.741       13.251        0.051      336.091        7.160      863.060
12/19/2014  22:56:00       17.986       -3.218       11.002       16.029       17.166       20.682      256.937      294.679      427.732        0.072        0.049       18.271       12.698        0.483      336.074        7.131      863.046
12/19/2014  22:57:00       20.913      -38.526       13.915       15.579       22.674       14.914      242.693      514.099      222.413        0.155        0.049       43.836       12.740        0.084      336.070        7.124      863.020
12/19/2014  22:58:00       41.426      -59.357       -8.201       31.407       29.509       21.838      986.382      870.759      476.895        0.382        0.117       72.384       22.743        0.099      336.070        7.126      862.993
12/19/2014  22:59:00       78.533      -76.948      -19.067       26.875       27.213       13.825      722.270      740.563      191.134        0.705        0.083      109.947       10.988        0.010      336.064        7.117      862.966
12/19/2014  23:00:00       79.864      -99.710      -17.494       13.993       12.582        9.313      195.792      158.298       86.735        0.853        0.022      127.751        6.163        0.002      336.084        7.150      862.952
12/19/2014  23:01:00        1.957      -45.557       -7.750       40.850       33.096       16.510     1668.724     1095.367      272.593        0.259        0.152       45.599       16.801        0.136      336.093        7.165      862.954
12/19/2014  23:02:00      -50.566      -19.764        6.355       32.102       27.887       16.992     1030.536      777.670      288.743        0.254        0.105       54.291       17.169        0.100      336.069        7.123      862.958
12/19/2014  23:03:00      -13.971       -0.483       -0.017       18.789        8.685       13.838      353.018       75.421      191.478        0.041        0.031       13.980       11.021        0.622      336.086        7.151      862.917
12/19/2014  23:04:00      -20.843       -8.712        0.030       22.756        8.338        5.911      517.830       69.530       34.935        0.057        0.031       22.591        5.976        0.070      336.074        7.129      862.870
12/19/2014  23:05:00      -43.891      -29.395        3.723       43.565       31.734       18.530     1897.906     1007.057      343.355        0.303        0.162       52.825       17.108        0.105      336.068        7.120      862.854
12/19/2014  23:06:00      -55.955      -29.759       12.959       45.576       37.020       26.288     2077.181     1370.481      691.079        0.416        0.207       63.377       30.342        0.229      336.074        7.131      862.844
12/19/2014  23:07:00       11.458       25.557       12.879       26.178       28.946       17.866      685.305      837.870      319.193        0.140        0.092       28.008       11.464        0.168      336.071        7.126      862.812
12/19/2014  23:08:00       48.170       43.321        5.421       22.480       17.697       17.569      505.365      313.195      308.658        0.268        0.056       64.784        4.043        0.004      336.034        7.066      862.776
12/19/2014  23:09:00       33.377       27.032       33.645       32.672       31.922       23.487     1067.473     1018.997      551.625        0.281        0.132       42.950       17.422        0.165      336.023        7.045      862.747
12/19/2014  23:10:00       92.024       67.779       25.878       33.684       28.870       32.164     1134.590      833.461     1034.547        0.837        0.150      114.291       21.253        0.035      336.028        7.054      862.711
12/19/2014  23:11:00       83.515       71.580       18.914       41.855       34.813       39.416     1751.881     1211.936     1553.652        0.849        0.226      109.992       31.249        0.081      336.008        7.021      862.685
12/19/2014  23:12:00       60.853       35.203        2.513       37.839       38.753       25.093     1431.773     1501.794      629.677        0.426        0.178       70.302       24.293        0.119      335.939        6.907      862.668
12/19/2014  23:13:00       33.172       18.795       -8.842       29.167       20.330       19.035      850.724      413.322      362.328        0.158        0.081       38.126       14.197        0.139      335.936        6.902      862.660
12/19/2014  23:14:00      -24.189        2.967      -10.966       23.482       18.435       15.245      551.384      339.843      232.406        0.092        0.056       24.370       14.499        0.354      335.921        6.875      862.642
12/19/2014  23:15:00      -71.761      -18.693       -2.543       18.758       10.652        8.694      351.845      113.462       75.580        0.302        0.027       74.156        4.915        0.004      335.896        6.836      862.602
12/19/2014  23:16:00      -28.033      -12.086       -0.516       12.470       10.057        9.354      155.500      101.134       87.493        0.064        0.017       30.527        2.828        0.009      335.951        6.925      862.567
12/19/2014  23:17:00      -10.755       -3.152       -5.509       17.698        8.964        6.059      313.224       80.346       36.712        0.029        0.022       11.207        4.730        0.178      336.007        7.019      862.545
12/19/2014  23:18:00       52.200       36.742       21.029       28.003       20.585       24.349      784.177      423.738      592.853        0.316        0.090       63.835       11.308        0.031      335.968        6.954      862.515
12/19/2014  23:19:00       87.419       72.241       60.848       45.327       57.524       45.720     2054.493     3309.003     2090.344        1.201        0.373      113.405       35.893        0.100      335.884        6.813      862.470
12/19/2014  23:20:00       67.743      119.702      113.698       66.416       48.384       40.906     4411.111     2340.981     1673.270        2.013        0.421      137.541       36.693        0.071      335.783        6.646      862.429
12/19/2014  23:21:00       89.459      118.163       87.180       68.216       53.621       53.778     4653.488     2875.218     2892.084        1.999        0.521      148.207       46.384        0.098      335.737        6.569      862.433
12/19/2014  23:22:00      102.599       59.396       74.835       62.165       50.964       35.428     3864.539     2597.284     1255.142        1.368        0.386      118.551       36.198        0.093      335.692        6.495      862.455
12/19/2014  23:23:00       19.719       71.867       97.531       50.682       49.892       33.865     2568.665     2489.204     1146.848        1.063        0.310       74.524       36.587        0.241      335.746        6.585      862.487
12/19/2014  23:24:00       46.490       36.735       60.743       61.981       34.764       34.615     3841.599     1208.532     1198.206        0.672        0.312       59.252       35.853        0.366      335.747        6.588      862.505
12/19/2014  23:25:00       42.884       -5.308       31.651       49.412       49.249       29.730     2441.514     2425.424      883.863        0.431        0.288       43.211       31.288        0.524      335.731        6.561      862.514
12/19/2014  23:26:00       26.969       21.263       51.963       33.364       36.294       31.989     1113.177     1317.219     1023.297        0.367        0.173       34.343       29.710        0.748      335.732        6.561      862.526
12/19/2014  23:27:00       37.772      -73.004       -3.607       24.202       28.569       18.096      585.747      816.181      327.449        0.425        0.086       82.197       14.017        0.029      335.805        6.685      862.541
12/19/2014  23:28:00       35.796      -64.069       -7.888       25.366       24.193       18.867      643.458      585.314      355.979        0.352        0.079       73.391       14.300        0.038      335.882        6.812      862.541
12/19/2014  23:29:00       43.913      -49.845       11.351       37.811       35.281       22.732     1429.682     1244.766      516.727        0.387        0.160       66.430       15.378        0.054      335.832        6.727      862.510
12/19/2014  23:30:00       -8.229       18.740       42.696       16.162       21.852       11.711      261.202      477.496      137.159        0.156        0.044       20.467        9.747        0.227      335.833        6.732      862.449
12/19/2014  23:31:00      -13.635       41.311       76.478       24.773       43.107       29.336      613.717     1858.206      860.622        0.554        0.167       43.503       28.881        0.441      335.850        6.759      862.367
12/19/2014  23:32:00       -1.130       72.220       90.437       20.923       45.036       27.082      437.765     2028.232      733.408        0.830        0.160       72.229       25.586        0.125      335.805        6.683      862.305
12/19/2014  23:33:00        9.387       78.012      106.431       31.460       41.406       23.954      989.759     1714.471      573.782        1.039        0.164       78.574       21.436        0.074      335.877        6.803      862.273
12/19/2014  23:34:00       40.256      -10.281       40.689       48.011       57.864       50.302     2305.008     3348.222     2530.294        0.578        0.409       41.548       29.733        0.512      335.891        6.826      862.285
12/19/2014  23:35:00       61.404       43.209       92.079       61.666       54.300       41.568     3802.678     2948.516     1727.908        1.130        0.424       75.083       34.704        0.214      335.845        6.750      862.284
12/19/2014  23:36:00       34.037       48.306       85.219       64.717       75.402       54.006     4188.244     5685.433     2916.605        1.177        0.640       59.092       59.389        1.010      335.849        6.756      862.258
12/19/2014  23:37:00       44.973      -10.471       43.007       50.691       60.227       48.953     2569.576     3627.268     2396.444        0.629        0.430       46.176       36.445        0.623      335.835        6.732      862.231
12/19/2014  23:38:00       24.830        0.662       57.841       46.500       48.972       30.518     2162.268     2398.264      931.374        0.473        0.275       24.839       25.881        1.086      335.842        6.745      862.211
12/19/2014  23:39:00       80.900      -99.552        1.547       40.572       42.316       24.694     1646.117     1790.624      609.788        1.025        0.202      128.279       17.902        0.019      335.849        6.756      862.223
12/19/2014  23:40:00      -11.878      -50.596       18.241       46.245       43.130       24.489     2138.570     1860.196      599.732        0.382        0.230       51.972       18.870        0.132      335.941        6.909      862.217
12/19/2014  23:41:00      -44.628      -28.227       -2.114       36.607       51.032       26.549     1340.085     2604.270      704.866        0.372        0.232       52.805       21.280        0.162      335.981        6.975      862.174
12/19/2014  23:42:00       -7.580       -1.620       -0.812       30.206       37.490       18.482      912.411     1405.465      341.582        0.136        0.133        7.751       15.078        3.784      335.917        6.869      862.120
12/19/2014  23:43:00      -35.211       41.724        6.667       37.870       28.747       20.443     1434.102      826.414      417.924        0.285        0.134       54.596        8.992        0.027      336.010        7.025      862.082
12/19/2014  23:44:00     -104.182       30.983      -11.564       40.703       28.287       20.368     1656.754      800.137      414.846        0.741        0.144      108.691       15.493        0.020      335.961        6.943      862.060
12/19/2014  23:45:00     -101.640        8.608      -11.755       51.598       33.352       20.336     2662.393     1112.388      413.549        0.736        0.209      102.003       22.058        0.047      335.965        6.952      862.045
12/19/2014  23:46:00     -164.466      -11.825      -13.890       57.219       43.237       27.769     3273.980     1869.462      771.135        1.665        0.296      164.890       28.208        0.029      335.696        6.502      862.020
12/19/2014  23:47:00     -152.378      -56.814       -1.846       62.403       49.911       28.380     3894.162     2491.158      805.440        1.682        0.360      162.625       30.710        0.036      335.595        6.334      862.003
12/19/2014  23:48:00     -125.701      -73.346      -10.398       49.732       42.231       24.822     2473.311     1783.427      616.128        1.308        0.244      145.535       21.164        0.021      335.634        6.398      861.983
12/19/2014  23:49:00      -94.142      -19.081       -3.761       45.988       24.240       14.060     2114.887      587.555      197.693        0.607        0.145       96.057        8.552        0.008      335.689        6.490      861.954
12/19/2014  23:50:00      -76.008      -32.425       -6.490       35.522       22.398       15.477     1261.800      501.664      239.549        0.444        0.100       82.635       10.487        0.016      335.676        6.467      861.934
12/19/2014  23:51:00      -64.149       -6.695       15.143       41.141       33.869       28.251     1692.572     1147.096      798.131        0.401        0.182       64.497       29.074        0.203      335.732        6.562      861.928
12/19/2014  23:52:00      -94.688      -47.819        4.612       40.443       30.869       19.899     1635.611      952.900      395.973        0.713        0.149      106.077       18.409        0.030      335.690        6.493      861.904
12/19/2014  23:53:00      -62.620      -50.636       -0.869       35.012       36.602       22.018     1225.866     1339.675      484.790        0.477        0.153       80.531       17.422        0.047      335.707        6.520      861.847
12/19/2014  23:54:00      -22.092      -39.887       19.591       48.282       17.095       16.526     2331.191      292.240      273.095        0.268        0.145       45.596       22.053        0.234      335.788        6.655      861.760
12/19/2014  23:55:00      -31.957      -36.359        6.163       28.597       24.642       15.485      817.797      607.231      239.781        0.202        0.083       48.407       13.956        0.083      335.736        6.569      861.662
12/19/2014  23:56:00      -64.797      -75.788       -3.826       24.691       20.053       14.661      609.640      402.106      214.952        0.559        0.061       99.712       13.629        0.019      335.715        6.533      861.594
12/19/2014  23:57:00      -44.620      -45.443        4.201       33.983       29.759       21.537     1154.856      885.569      463.836        0.329        0.125       63.687       20.049        0.099      335.729        6.557      861.567
12/19/2014  23:58:00      -61.335      -33.265       12.214       33.456       26.281       21.578     1119.312      690.695      465.630        0.365        0.114       69.775       21.281        0.093      335.652        6.429      861.538
12/19/2014  23:59:00      -81.126      -40.376       -0.747       36.861       28.463       15.945     1358.739      810.138      254.233        0.532        0.121       90.618       13.753        0.023      335.639        6.407      861.522
